[[{"header":{"parameterUnit":"m.s-1","parameterCategory":1,"la1":31.0,"la2":29.5877,"lo1":-88.7671,"lo2":-86.6584,"dy":0.0162,"dx":0.0185,"nx":115,"ny":88,"refTime":"2023-10-17T06:00:00:Z","depth":0,"parameterNumber":2,"parameterNumberName":"U-component_of_WINDS"},"data":[0.0,0.0,0.0,0.0,0.0,0.0,0.0,0.0,0.0,0.0,0.0,0.0,0.0,0.0,0.0,0.0,0.0,0.0,0.0,0.0,0.0,0.0,0.0,0.0,0.0,0.0,0.0,0.0,0.0,0.0,0.0,0.0,0.0,0.0,0.0,0.0,0.0,0.0,0.0,0.0,0.0,0.0,0.0,0.0,0.0,0.0,0.0,0.0,0.0,0.0,0.0,0.0,0.0,0.0,0.0,0.0,0.0,0.0,0.0,0.0,0.0,0.0,0.0,0.0,0.0,0.0,0.0,0.0,0.0,0.0,0.0,0.0,0.0,0.0,0.0,0.0,0.0,0.0,0.0,0.0,0.0,0.0,0.0,0.0,0.0,0.0,0.0,0.0,0.0,0.0,0.0,0.0,0.0,0.0,0.0,0.0,0.0,0.0,0.0,0.0,0.0,0.0,0.0,0.0,0.0,0.0,0.0,0.0,0.0,0.0,0.0,0.0,0.0,0.0,0.0,0.0,0.0,0.0,0.0,0.0,0.0,0.0,0.0,0.0,0.0,0.0,0.0,0.0,0.0,0.0,0.0,0.0,0.0,0.0,0.0,0.0,0.0,0.0,0.0,0.0,0.0,0.0,0.0,0.0,0.0,0.0,0.0,0.0,0.0,0.0,0.0,0.0,0.0,0.0,0.0,0.0,0.0,0.0,0.0,0.0,0.0,0.0,0.0,0.0,0.0,0.0,0.0,0.0,0.0,0.0,0.0,0.0,0.0,0.0,0.0,0.0,0.0,0.0,0.0,0.0,0.0,0.0,0.0,0.0,0.0,0.0,0.0,0.0,0.0,0.0,0.0,0.0,0.0,0.0,0.0,0.0,0.0,0.0,0.0,0.0,0.0,0.0,0.0,0.0,0.0,0.0,0.0,0.0,0.0,0.0,0.0,0.0,0.0,0.0,0.0,0.0,0.0,0.0,0.0,0.0,0.0,0.0,0.0,0.0,0.0,0.0,0.0,0.0,0.0,0.0,0.0,0.0,0.0,0.0,0.0,0.0,0.0,0.0,0.0,0.0,0.0,0.0,0.0,0.0,0.0,0.0,0.0,0.0,0.0,0.0,0.0,0.0,0.0,0.0,0.0,0.0,0.0,0.0,0.0,0.0,0.0,0.0,0.0,0.0,0.0,0.0,0.0,0.0,0.0,0.0,0.0,0.0,0.0,0.0,0.0,0.0,0.0,0.0,0.0,0.0,0.0,0.0,0.0,0.0,0.0,0.0,0.0,0.0,0.0,0.0,0.0,0.0,0.0,0.0,0.0,0.0,0.0,0.0,0.0,0.0,0.0,0.0,0.0,0.0,0.0,0.0,0.0,0.0,0.0,0.0,0.0,0.0,0.0,0.0,0.0,0.0,0.0,0.0,0.0,0.0,0.0,0.0,0.0,0.0,0.0,0.0,0.0,0.0,0.0,0.0,0.0,0.0,0.0,0.0,0.0,0.0,0.0,0.0,0.0,0.0,0.0,0.0,0.0,0.0,0.0,0.0,0.0,0.0,0.0,0.0,0.0,0.0,0.0,0.0,0.0,0.0,0.0,0.0,0.0,0.0,0.0,0.0,0.0,0.0,0.0,0.0,0.0,0.0,0.0,0.0,0.0,0.0,0.0,0.0,0.0,0.0,0.0,0.0,0.0,0.0,0.0,0.0,0.0,0.0,0.0,0.0,0.0,0.0,0.0,0.0,0.0,0.0,0.0,0.0,0.0,0.0,0.0,0.0,0.0,0.0,0.0,0.0,0.0,0.0,0.0,0.0,0.0,0.0,0.0,0.0,0.0,0.0,0.0,0.0,0.0,0.0,0.0,0.0,0.0,0.0,0.0,0.0,0.0,0.0,0.0,0.0,0.0,0.0,0.0,0.0,0.0,0.0,0.0,0.0,0.0,0.0,0.0,0.0,0.0,0.0,0.0,0.0,0.0,0.0,0.0,0.0,0.0,0.0,0.0,0.0,0.0,0.0,0.0,0.0,0.0,0.0,0.0,0.0,0.0,0.0,0.0,0.0,0.0,0.0,0.0,0.0,0.0,0.0,0.0,0.0,0.0,0.0,0.0,0.0,0.0,0.0,0.0,0.0,0.0,0.0,0.0,0.0,0.0,0.0,0.0,0.0,0.0,0.0,0.0,0.0,0.0,0.0,0.0,0.0,0.0,0.0,0.0,0.0,0.0,0.0,0.0,0.0,0.0,0.0,0.0,0.0,0.0,0.0,0.0,0.0,0.0,0.0,0.0,0.0,0.0,0.0,0.0,0.0,0.0,0.0,0.0,0.0,0.0,0.0,0.0,0.0,0.0,0.0,0.0,0.0,0.0,0.0,0.0,0.0,0.0,0.0,0.0,0.0,0.0,0.0,0.0,0.0,0.0,0.0,0.0,0.0,0.0,0.0,0.0,0.0,0.0,0.0,0.0,0.0,0.0,0.0,0.0,0.0,0.0,0.0,0.0,0.0,0.0,0.0,0.0,0.0,0.0,0.0,0.0,0.0,0.0,0.0,0.0,0.0,0.0,0.0,0.0,0.0,0.0,0.0,0.0,0.0,0.0,0.0,0.0,0.0,0.0,0.0,0.0,0.0,0.0,0.0,0.0,0.0,0.0,0.0,0.0,0.0,0.0,0.0,0.0,0.0,0.0,0.0,0.0,0.0,0.0,0.0,0.0,0.0,0.0,0.0,0.0,0.0,0.0,0.0,0.0,0.0,0.0,0.0,0.0,0.0,0.0,0.0,0.0,0.0,0.0,0.0,0.0,0.0,0.0,0.0,0.0,0.0,0.0,0.0,0.0,0.0,0.0,0.0,0.0,0.0,0.0,0.0,0.0,0.0,0.0,0.0,0.0,0.0,0.0,0.0,0.0,0.0,0.0,0.0,0.0,0.0,0.0,0.0,0.0,0.0,0.0,0.0,0.0,0.0,0.0,0.0,0.0,0.0,0.0,0.0,0.0,0.0,0.0,0.0,0.0,0.0,0.0,0.0,0.0,0.0,0.0,0.0,0.0,0.0,0.0,0.0,0.0,0.0,0.0,0.0,0.0,0.0,0.0,0.0,0.0,0.0,0.0,0.0,0.0,0.0,0.0,0.0,0.0,0.0,0.0,0.0,0.0,0.0,0.0,0.0,0.0,0.0,0.0,0.0,0.0,0.0,0.0,0.0,0.0,0.0,0.0,0.0,0.0,0.0,0.0,0.0,0.0,0.0,0.0,0.0,0.0,0.0,0.0,0.0,0.0,0.0,0.0,0.0,0.0,0.0,0.0,0.0,0.0,0.0,0.0,0.0,0.0,0.0,0.0,0.0,0.0,0.0,0.0,0.0,0.0,0.0,0.0,0.0,0.0,0.0,0.0,0.0,0.0,0.0,0.0,0.0,0.0,0.0,0.0,0.0,0.0,0.0,0.0,0.0,0.0,0.0,0.0,0.0,0.0,0.0,0.0,0.0,0.0,0.0,0.0,0.0,0.0,0.0,0.0,0.0,0.0,0.0,0.0,0.0,0.0,0.0,0.0,0.0,0.0,0.0,0.0,0.0,0.0,0.0,0.0,0.0,0.0,0.0,0.0,0.0,0.0,0.0,0.0,0.0,0.0,0.0,0.0,0.0,0.0,0.0,0.0,0.0,0.0,0.0,0.0,0.0,0.0,0.0,0.0,0.0,0.0,0.0,0.0,0.0,0.0,0.0,0.0,0.0,0.0,0.0,0.0,0.0,0.0,0.0,0.0,0.0,0.0,0.0,0.0,0.0,0.0,0.0,0.0,0.0,0.0,0.0,0.0,0.0,0.0,0.0,0.0,0.0,0.0,0.0,0.0,0.0,0.0,0.0,0.0,0.0,0.0,0.0,0.0,0.0,0.0,0.0,0.0,0.0,0.0,0.0,0.0,0.0,0.0,0.0,0.0,0.0,0.0,0.0,0.0,0.0,0.0,0.0,0.0,0.0,0.0,0.0,0.0,0.0,0.0,0.0,0.0,0.0,0.0,0.0,0.0,0.0,0.0,0.0,0.0,0.0,0.0,0.0,0.0,0.0,0.0,0.0,0.0,0.0,0.0,0.0,0.0,0.0,0.0,0.0,0.0,0.0,0.0,0.0,0.0,0.0,0.0,0.0,0.0,0.0,0.0,0.0,0.0,0.0,0.0,0.0,0.0,0.0,0.0,0.0,0.0,0.0,0.0,0.0,0.0,0.0,0.0,0.0,0.0,0.0,0.0,0.0,0.0,0.0,0.0,0.0,0.0,0.0,0.0,0.0,0.2549,0.0,0.0,0.0,0.0,0.0,0.0,0.0,0.0,0.0,0.0,0.0,0.0,0.0,0.0,0.0,0.0,0.0,0.0,0.0,0.0,0.0,0.0,0.0,0.0,0.0,0.0,0.0,0.0,0.0,0.0,0.0,0.0,0.0,0.0,0.0,0.0,0.0,0.0,0.0,0.0,0.0,0.0,0.0,0.0,0.0,0.0,0.0,0.0,0.0,0.0,0.0,0.0,0.0,0.0,0.0,0.0,0.0,0.0,0.0,0.0,0.0,0.0,0.0,0.0,0.0,0.0,0.0,0.0,0.0,0.0,0.0,0.0,0.0,0.0,0.0,0.0,0.0,0.0,0.0,0.0,0.0,0.0,0.0,0.0,0.0,0.0,0.0,0.0,0.0,0.0,0.0,0.0,0.0,0.0,0.0,0.0,0.0,0.0,0.0,0.0,0.0,0.0,0.0,0.0,0.0,0.0,0.0,0.0,0.0,0.0,0.2909,0.2909,0.2773,0.2684,0.2593,0.0,0.0,0.0,0.0,0.0,0.0,0.0,0.0,0.0,0.0,0.0,0.0,0.0,0.0,0.0,0.0,0.0,0.0,0.0,0.0,0.0,0.0,0.0,0.0,0.0,0.0,0.0,0.0,0.0,0.0,0.0,0.0,0.0,0.0,0.0,0.0,0.0,0.0,0.0,0.0,0.0,0.0,0.0,0.0,0.0,0.0,0.0,0.0,0.0,0.0,0.0,0.0,0.0,0.0,0.0,0.0,0.0,0.0,0.0,0.0,0.0,0.0,0.0,0.0,0.0,0.0,0.0,0.0,0.0,0.0,0.0,0.0,0.0,0.0,0.0,0.0,0.0,0.0,0.0,0.0,0.0,0.0,0.0,0.0,0.0,0.0,0.0,0.0,0.0,0.0,0.0,0.0,0.0,0.0,0.0,0.0,0.0,0.0,0.0,0.0,0.0,0.0,0.0,0.0,0.0,0.0,0.0,0.0,0.0,0.0,0.0,0.0,0.2821,0.2729,0.2684,0.0,0.0,0.0,0.0,0.0,0.0,0.0,0.0,0.0,0.0,0.0,0.0,0.0,0.0,0.0,0.0,0.0,0.0,0.0,0.0,0.0,0.0,0.0,0.0,0.0,0.0,0.0,0.0,0.0,0.0,0.0,0.0,0.0,0.0,0.0,0.0,0.0,0.0,0.0,0.0,0.0,0.0,0.0,0.0,0.0,0.0,0.0,0.0,0.0,0.0,0.0,0.0,0.0,0.0,0.0,0.0,0.0,0.0,0.0,0.0,0.0,0.0,0.0,0.0,0.0,0.0,0.0,0.0,0.0,0.0,0.0,0.0,0.0,0.0,0.0,0.0,0.0,0.0,0.0,0.0,0.0,0.0,0.0,0.0,0.0,0.0,0.0,0.0,0.0,0.0,0.0,0.0,0.0,0.0,0.0,0.0,0.0,0.0,0.0,0.0,0.0,0.0,0.0,0.0,0.0,0.0,0.0,0.0,0.0,0.0,0.2909,0.2909,0.2909,0.0,0.2865,0.0,0.0,0.0,0.0,0.0,0.0,0.0,0.0,0.0,0.0,0.0,0.0,0.0,0.0,0.0,0.0,0.0,0.0,0.0,0.0,0.0,0.0,0.0,0.0,0.0,0.0,0.0,0.0,0.0,0.0,0.0,0.0,0.0,0.0,0.0,0.0,0.0,0.0,0.0,0.0,0.0,0.0,0.0,0.0,0.0,0.0,0.0,0.0,0.0,0.0,0.0,0.0,0.0,0.0,0.0,0.0,0.0,0.0,0.0,0.0,0.0,0.0,0.0,0.0,0.0,0.0,0.0,0.0,0.0,0.0,0.0,0.0,0.0,0.0,0.0,0.0,0.0,0.0,0.0,0.0,0.0,0.0,0.0,0.0,0.0,0.0,0.0,0.0,0.0,0.0,0.0,0.0,0.0,0.0,0.0,0.0,0.0,0.0,0.0,0.0,0.0,0.0,0.0,0.0,0.0,0.0,0.0,0.0,0.0,0.0,0.2909,0.2909,0.2909,0.2909,0.0,0.0,0.0,0.0,0.0,0.0,0.0,0.0,0.0,0.0,0.0,0.0,0.0,0.0,0.0,0.0,0.0,0.0,0.0,0.0,0.0,0.0,0.0,0.0,0.0,0.0,0.0,0.0,0.0,0.0,0.0,0.0,0.0,0.0,0.0,0.0,0.0,0.0,0.0,0.0,0.0,0.0,0.0,0.0,0.0,0.0,0.0,0.0,0.0,0.0,0.0,0.0,0.0,0.0,0.0,0.0,0.0,0.0,0.0,0.0,0.0,0.0,0.0,0.0,0.0,0.0,0.0,0.0,0.0,0.0,0.0,0.0,0.0,0.0,0.0,0.0,0.0,0.0,0.0,0.0,0.0,0.0,0.0,0.0,0.0,0.0,0.0,0.0,0.0,0.0,0.0,0.0,0.0,0.0,0.0,0.0,0.0,0.0,0.0,0.0,0.0,0.0,0.0,0.0,0.0,0.0,0.0,0.0,0.0,0.0,0.2808,0.2826,0.2871,0.2917,0.2948,0.2912,0.0,0.0,0.0,0.0,0.0,0.0,0.0,0.0,0.0,0.0,0.0,0.0,0.0,0.0,0.0,0.0,0.0,0.0,0.0,0.0,0.0,0.0,0.0,0.0,0.0,0.0,0.0,0.0,0.0,0.0,0.0,0.0,0.0,0.0,0.0,0.0,0.0,0.0,0.0,0.0,0.0,0.0,0.0,0.0,0.0,0.0,0.0,0.0,0.0,0.0,0.0,0.0,0.0,0.0,0.0,0.0,0.0,0.0,0.0,0.0,0.0,0.0,0.0,0.0,0.0,0.0,0.0,0.0,0.0,0.0,0.0,0.0,0.0,0.0,0.0,0.0,0.0,0.0,0.0,0.0,0.0,0.0,0.0,0.0,0.0,0.0,0.0,0.0,0.0,0.0,0.0,0.0,0.0,0.0,0.0,0.0,0.0,0.0,0.0,0.0,0.0,0.0,0.0,0.0,0.0,0.0,0.0,0.0,0.2511,0.2558,0.2659,0.2803,0.2945,0.2938,0.0,0.0,0.0,0.0,0.0,0.0,0.0,0.0,0.0,0.0,0.0,0.0,0.0,0.0,0.0,0.0,0.0,0.0,0.0,0.0,0.0,0.0,0.0,0.0,0.0,0.0,0.0,0.0,0.0,0.0,0.0,0.0,0.0,0.0,0.0,0.0,0.0,0.0,0.0,0.0,0.0,0.0,0.0,0.0,0.0,0.0,0.0,0.0,0.0,0.0,0.0,0.0,0.0,0.0,0.0,0.0,0.0,0.0,0.0,0.0,0.0,0.0,0.0,0.0,0.0,0.0,0.0,0.0,0.0,0.0,0.0,0.0,0.0,0.0,0.0,0.0,0.0,0.0,0.0,0.0,0.0,0.0,0.0,0.0,0.0,0.0,0.0,0.0,0.0,0.0,0.0,0.0,0.0,0.0,0.0,0.0,0.0,0.0,0.0,0.0,0.0,0.0,0.0,0.0,0.0,0.0,0.0,0.0,0.0,0.256,0.2661,0.2766,0.2815,0.2848,0.2884,0.0,0.0,0.0,0.0,0.0,0.0,0.0,0.0,0.0,0.0,0.0,0.0,0.0,0.0,0.0,0.0,0.0,0.0,0.0,0.0,0.0,0.0,0.0,0.0,0.0,0.0,0.0,0.0,0.0,0.0,0.0,0.0,0.0,0.0,0.0,0.0,0.0,0.0,0.0,0.0,0.0,0.0,0.0,0.0,0.0,0.0,0.0,0.0,0.0,0.0,0.0,0.0,0.0,0.0,0.0,0.0,0.0,0.0,0.0,0.0,0.0,0.0,0.0,0.0,0.0,0.0,0.0,0.0,0.0,0.0,0.0,0.0,0.0,0.0,0.0,0.0,0.0,0.0,0.0,0.0,0.0,0.0,0.0,0.0,0.0,0.0,0.0,0.0,0.0,0.0,0.0,0.0,0.0,0.0,0.0,0.0,0.0,0.0,0.0,0.0,0.0,0.0,0.0,0.0,0.0,0.0,0.0,0.0,0.0,0.2565,0.0,0.2773,0.2771,0.2806,0.2835,0.0,0.0,0.0,0.0,0.0,0.0,0.0,0.0,0.0,0.0,0.0,0.0,0.0,0.0,0.0,0.0,0.0,0.0,0.0,0.0,0.0,0.0,0.0,0.0,0.0,0.0,0.0,0.0,0.0,0.0,0.0,0.0,0.0,0.0,0.0,0.0,0.0,0.0,0.0,0.0,0.0,0.0,0.0,0.0,0.0,0.0,0.0,0.0,0.0,0.0,0.0,0.0,0.0,0.0,0.0,0.0,0.0,0.0,0.0,0.0,0.0,0.0,0.0,0.0,0.0,0.0,0.0,0.0,0.0,0.0,0.0,0.0,0.0,0.0,0.0,0.0,0.0,0.0,0.0,0.0,0.0,0.0,0.0,0.0,0.0,0.0,0.0,0.0,0.0,0.0,0.0,0.0,0.0,0.0,0.0,0.0,0.0,0.0,0.0,0.0,0.0,0.0,0.0,0.0,0.0,0.0,0.0,0.0,0.237,0.2595,0.2713,0.277,0.2717,0.287,0.2931,0.0,0.0,0.0,0.0,0.0,0.0,0.0,0.0,0.0,0.0,0.0,0.0,0.0,0.0,0.0,0.0,0.0,0.0,0.0,0.0,0.0,0.0,0.0,0.0,0.0,0.0,0.0,0.0,0.0,0.0,0.0,0.0,0.0,0.0,0.0,0.0,0.0,0.0,0.0,0.0,0.0,0.0,0.0,0.0,0.0,0.0,0.0,0.0,0.0,0.0,0.0,0.0,0.0,0.0,0.0,0.0,0.0,0.0,0.0,0.0,0.0,0.0,0.0,0.0,0.0,0.0,0.0,0.0,0.0,0.0,0.0,0.0,0.0,0.0,0.0,0.0,0.0,0.0,0.0,0.0,0.0,0.0,0.0,0.0,0.0,0.0,0.0,0.0,0.0,0.0,0.0,0.0,0.0,0.0,0.0,0.0,0.0,0.0,0.0,0.0,0.0,0.0,0.0,0.0,0.0,0.0,0.0,0.0,0.0,0.223,0.2342,0.2426,0.2536,0.2587,0.2657,0.0,0.0,0.0,0.0,0.0,0.0,0.0,0.0,0.0,0.0,0.0,0.0,0.0,0.0,0.0,0.0,0.0,0.0,0.0,0.0,0.0,0.0,0.0,0.0,0.0,0.0,0.0,0.0,0.0,0.0,0.0,0.0,0.0,0.0,0.0,0.0,0.0,0.0,0.0,0.0,0.0,0.0,0.0,0.0,0.0,0.0,0.0,0.0,0.0,0.0,0.0,0.0,0.0,0.0,0.0,0.0,0.0,0.0,0.0,0.0,0.0,0.0,0.0,0.0,0.0,0.0,0.0,0.0,0.0,0.0,0.0,0.0,0.0,0.0,0.0,0.0,0.0,0.0,0.0,0.0,0.0,0.0,0.0,0.0,0.0,0.0,0.0,0.0,0.0,0.0,0.0,0.0,0.0,0.0,0.0,0.0,0.0,0.0,0.0,0.0,0.0,0.0,0.0,0.0,0.0,0.0,0.0,0.0,0.0,0.1901,0.2104,0.224,0.2354,0.247,0.2509,0.2575,0.0,0.0,0.0,0.0,0.0,0.0,0.0,0.0,0.0,0.0,0.0,0.0,0.0,0.0,0.0,0.0,0.0,0.0,0.0,0.0,0.0,0.0,0.0,0.0,0.0,0.0,0.0,0.0,0.0,0.0,0.0,0.0,0.0,0.0,0.0,0.0,0.0,0.0,0.0,0.0,0.0,0.0,0.0,0.0,0.0,0.0,0.0,0.0,0.0,0.0,0.0,0.0,0.0,0.0,0.0,0.0,0.0,0.0,0.0,0.0,0.0,0.0,0.0,0.0,0.0,0.0,0.0,0.0,0.0,0.0,0.0,0.0,0.0,0.0,0.0,0.0,0.0,0.0,0.0,0.0,0.0,0.0,0.0,0.0,0.0,0.0,0.0,0.0,0.0,0.0,0.0,0.0,0.0,0.0,0.0,0.0,0.0,0.0,0.0,0.0,0.0,0.0,0.0,0.0,0.0,0.0,0.0,0.0,0.1576,0.1964,0.2128,0.2184,0.2352,0.2479,0.0,0.0,0.0,0.0,0.0,0.0,0.0,0.0,0.0,0.0,0.0,0.0,0.0,0.0,0.0,0.0,0.0,0.0,0.0,0.0,0.0,0.0,0.0,0.0,0.0,0.0,0.0,0.0,0.0,0.0,0.0,0.0,0.0,0.0,0.0,0.0,0.0,0.0,0.0,0.0,0.0,0.0,0.0,0.0,0.0,0.0,0.0,0.0,0.0,0.0,0.0,0.0,0.0,0.0,0.0,0.0,0.0,0.0,0.0,0.0,0.0,0.0,0.0,0.0,0.0,0.0,0.0,0.0,0.0,0.0,0.0,0.0,0.0,0.0,0.0,0.0,0.0,0.0,0.0,0.0,0.0,0.0,0.0,0.0,0.0,0.0,0.0,0.0,0.0,0.0,0.0,0.0,0.0,0.0,0.0,0.0,0.0,0.0,0.0,0.0,0.0,0.0,0.0,0.0,0.0,0.0,0.0,0.0,0.0,0.1452,0.1535,0.1626,0.1908,0.2073,0.2204,0.0,0.0,0.0,0.0,0.0,0.0,0.0,0.0,0.0,0.0,0.0,0.0,0.0,0.0,0.0,0.0,0.0,0.0,0.0,0.0,0.0,0.0,0.0,0.0,0.0,0.0,0.0,0.0,0.0,0.0,0.0,0.0,0.0,0.0,0.0,0.0,0.0,0.0,0.0,0.0,0.0,0.0,0.0,0.0,0.0,0.0,0.0,0.0,0.0,0.0,0.0,0.0,0.0,0.0,0.0,0.0,0.0,0.0,0.0,0.0,0.0,0.0,0.0,0.0,0.0,0.0,0.0,0.0,0.0,0.0,0.0,0.0,0.0,0.0,0.0,0.0,0.0,0.0,0.0,0.0,0.0,0.0,0.0,0.0,0.0,0.0,0.0,0.0,0.0,0.0,0.0,0.0,0.0,0.0,0.0,0.0,0.0,0.0,0.0,0.0,0.0,0.0,0.0,0.0,0.0,0.0,0.0,0.0,0.1273,0.1297,0.1291,0.1395,0.1663,0.1808,0.2054,0.0,0.0,0.0,0.0,0.0,0.0,0.0,0.0,0.0,0.0,0.0,0.0,0.0,0.0,0.0,0.0,0.0,0.0,0.0,0.0,0.0,0.0,0.0,0.0,0.0,0.0,0.0,0.0,0.0,0.0,0.0,0.0,0.0,0.0,0.0,0.0,0.0,0.0,0.0,0.0,0.0,0.0,0.0,0.0,0.0,0.0,0.0,0.0,0.0,0.0,0.0,0.0,0.0,0.0,0.0,0.0,0.0,0.0,0.0,0.0,0.0,0.0,0.0,0.0,0.0,0.0,0.0,0.0,0.0,0.0,0.0,0.0,0.0,0.0,0.0,0.0,0.0,0.0,0.0,0.0,0.0,0.0,0.0,0.0,0.0,0.0,0.0,0.0,0.0,0.0,0.0,0.0,0.0,0.0,0.0,0.0,0.0,0.0,0.0,0.0,0.0,0.0,0.0,0.0,0.0,0.0,0.0,0.0,0.118,0.1185,0.1157,0.1221,0.1429,0.1668,0.1914,0.0,0.0,0.0,0.0,0.0,0.0,0.0,0.0,0.0,0.0,0.0,0.0,0.0,0.0,0.0,0.0,0.0,0.0,0.0,0.0,0.0,0.0,0.0,0.0,0.0,0.0,0.0,0.0,0.0,0.0,0.0,0.0,0.0,0.0,0.0,0.0,0.0,0.0,0.0,0.0,0.0,0.0,0.0,0.0,0.0,0.0,0.0,0.0,0.0,0.0,0.0,0.0,0.0,0.0,0.0,0.0,0.0,0.0,0.0,0.0,0.0,0.0,0.0,0.0,0.0,0.0,0.0,0.0,0.0,0.0,0.0,0.0,0.0,0.0,0.0,0.0,0.0,0.0,0.0,0.0,0.0,0.0,0.0,0.0,0.0,0.0,0.0,0.0,0.0,0.0,0.0,0.0,0.0,0.0,0.0,0.0,0.0,0.0,0.0,0.0,0.0,0.0,0.0,0.0,0.0,0.0,0.0,0.0,0.1015,0.1039,0.1046,0.1182,0.1455,0.1562,0.1786,0.0,0.0,0.0,0.0,0.0,0.0,0.0,0.0,0.0,0.0,0.0,0.0,0.0,0.0,0.0,0.0,0.0,0.0,0.0,0.0,0.0,0.0,0.0,0.0,0.0,0.0,0.0,0.0,0.0,0.0,0.0,0.0,0.0,0.0,0.0,0.0,0.0,0.0,0.0,0.0,0.0,0.0,0.0,0.0,0.0,0.0,0.0,0.0,1.4537,0.0,0.0,0.0,0.0,0.0,0.0,0.0,0.0,0.0,0.0,0.0,0.0,0.0,0.0,0.0,0.0,0.0,0.0,0.0,0.0,0.0,0.0,0.0,0.0,0.0,0.0,0.0,0.0,0.0,0.0,0.0,0.0,0.0,0.0,0.0,0.0,0.0,0.0,0.0,0.0,0.0,0.0,0.0,0.0,0.0,0.0,0.0,0.0,0.0,0.0,0.0,0.0,0.0,0.0,0.0,0.0,0.0,0.0,0.0,0.0979,0.1009,0.1022,0.1159,0.1479,0.1604,0.1837,0.0,0.0,0.0,0.0,0.0,0.0,0.0,0.0,0.0,0.0,0.0,0.0,0.0,0.0,0.0,0.0,0.0,0.0,0.0,0.0,0.0,0.0,0.0,0.0,0.0,0.0,0.0,0.0,0.0,0.0,0.0,0.0,0.0,0.0,0.0,0.0,0.0,0.0,0.0,0.0,0.0,0.0,0.0,0.0,0.0,0.0,0.0,0.0,0.0,0.0,0.0,0.0,0.0,0.0,0.0,0.0,0.0,0.0,0.0,0.0,0.0,0.0,0.0,0.0,0.0,0.0,0.0,0.0,0.0,0.0,0.0,0.0,0.0,0.0,0.0,0.0,0.0,0.0,0.0,0.0,0.0,0.0,0.0,0.0,0.0,0.0,0.0,0.0,0.0,0.0,0.0,0.0,0.0,0.0,0.0,0.0,0.0,0.0,0.0,0.0,0.0,0.0,0.0,0.0,0.0,0.0,0.0,0.1094,0.1065,0.1033,0.1127,0.1263,0.1558,0.1694,0.1948,0.2314,0.0,0.0,0.0,0.0,0.0,0.0,0.0,0.0,0.0,0.0,0.0,0.0,0.0,0.0,0.0,0.0,0.0,0.0,0.0,0.0,0.0,0.0,0.0,0.0,0.0,0.0,0.0,0.0,0.0,0.0,0.0,0.0,0.0,0.0,0.0,0.0,0.0,0.0,1.1606,1.2549,0.0,0.0,0.0,0.0,0.0,0.0,0.0,0.0,1.6023,0.0,0.0,0.0,0.0,0.0,0.0,0.0,0.0,0.0,0.0,0.0,0.0,0.0,0.0,0.0,0.0,0.0,0.0,0.0,0.0,0.0,0.0,0.0,0.0,0.0,0.0,0.0,0.0,0.0,0.0,0.0,0.0,0.0,0.0,0.0,0.0,0.0,0.0,0.0,0.0,0.0,0.0,0.0,0.0,0.0,0.0,0.0,0.0,0.0,0.0,0.0,0.0,0.0,0.0,0.0,0.0,0.1179,0.1156,0.119,0.1224,0.1259,0.1409,0.1802,0.184,0.209,0.2566,0.0,0.0,0.0,0.0,0.0,0.0,0.0,0.0,0.0,0.0,0.0,0.0,0.0,0.0,0.0,0.0,0.0,0.0,0.0,0.0,0.0,0.0,0.0,0.0,0.0,0.0,0.0,0.0,0.0,0.0,0.0,0.0,0.0,0.0,0.0,0.0,0.0,0.0,0.0,1.3227,1.3893,0.0,0.0,0.0,0.0,0.0,0.0,0.0,0.0,1.6204,0.0,0.0,0.0,0.0,0.0,0.0,0.0,0.0,0.0,0.0,0.0,0.0,0.0,0.0,0.0,0.0,0.0,0.0,0.0,0.0,0.0,0.0,0.0,0.0,0.0,0.0,0.0,0.0,0.0,0.0,0.0,0.0,0.0,0.0,0.0,0.0,0.0,0.0,0.0,0.0,0.0,0.0,0.0,0.0,0.0,0.0,0.0,0.0,0.0,0.0,0.0,0.0,0.0,0.0,0.0,0.1447,0.143,0.1409,0.1448,0.1469,0.1614,0.2017,0.2065,0.2317,0.0,0.0,0.0,0.0,0.0,0.0,0.0,0.0,0.0,0.0,0.0,0.0,0.0,0.0,0.0,0.0,0.0,0.0,0.0,0.0,0.0,0.0,0.0,0.0,0.0,0.0,0.0,0.0,0.0,0.0,0.0,0.0,0.0,0.0,0.0,0.0,0.0,0.0,0.0,0.0,1.4029,1.4551,1.5074,0.0,0.0,0.0,0.0,0.0,0.0,1.7205,1.7142,0.0,0.0,0.0,0.0,0.0,0.0,0.0,0.0,0.0,0.0,0.0,0.0,0.0,0.0,0.0,0.0,0.0,0.0,0.0,0.0,0.0,0.0,0.0,0.0,0.0,0.0,0.0,0.0,0.0,0.0,0.0,0.0,0.0,0.0,0.0,0.0,0.0,0.0,0.0,0.0,0.0,0.0,0.0,0.0,0.0,0.0,0.0,0.0,0.0,0.0,0.0,0.0,0.0,0.0,0.0,0.1724,0.165,0.1633,0.1678,0.1681,0.1884,0.222,0.2355,0.2605,0.0,0.0,0.0,0.0,0.0,0.0,0.0,0.0,0.0,0.0,0.0,0.0,0.0,0.0,0.0,0.0,0.0,0.0,0.0,0.0,0.0,0.0,0.0,0.0,0.0,0.0,0.0,0.0,0.0,0.0,0.0,0.0,0.0,0.0,0.0,0.0,0.0,0.0,0.0,0.0,0.0,1.5239,1.5984,1.6393,0.0,0.0,0.0,0.0,1.7991,1.808,0.0,0.0,0.0,0.0,0.0,0.0,0.0,0.0,0.0,0.0,0.0,0.0,0.0,0.0,0.0,0.0,0.0,0.0,0.0,0.0,0.0,0.0,0.0,0.0,0.0,0.0,0.0,0.0,0.0,0.0,0.0,0.0,0.0,0.0,0.0,0.0,0.0,0.0,0.0,0.0,0.0,0.0,0.0,0.0,0.0,0.0,0.0,0.0,0.0,0.0,0.0,0.0,0.0,0.0,0.0,0.0,0.1724,0.1777,0.183,0.188,0.2018,0.2221,0.2356,0.2812,0.3048,0.0,0.0,0.0,0.0,0.0,0.0,0.0,0.0,0.0,0.0,0.0,0.0,0.0,0.0,0.0,0.0,0.0,0.0,0.0,0.0,0.0,0.0,0.0,0.0,0.0,0.0,0.0,0.0,0.0,0.0,0.0,0.0,0.0,0.0,0.0,0.0,0.0,0.0,0.0,0.0,0.0,1.5868,1.6595,1.7061,1.7611,0.0,0.0,1.9011,1.9177,1.8988,0.0,0.0,0.0,0.0,0.0,0.0,0.0,0.0,0.0,0.0,0.0,0.0,0.0,0.0,0.0,0.0,0.0,0.0,0.0,0.0,0.0,0.0,0.0,0.0,0.0,0.0,0.0,0.0,0.0,0.0,0.0,0.0,0.0,0.0,0.0,0.0,0.0,0.0,0.0,0.0,0.0,0.0,0.0,0.0,0.0,0.0,0.0,0.0,0.0,0.0,0.0,0.0,0.0,0.0,0.0,0.2271,0.2213,0.2277,0.2323,0.2351,0.242,0.2622,0.2824,0.3057,0.3318,0.0,0.0,0.0,0.0,0.0,0.0,0.0,0.0,0.0,0.0,0.0,0.0,0.0,0.0,0.0,0.0,0.0,0.0,0.0,0.0,0.0,0.0,0.0,0.0,0.0,0.0,0.0,0.0,0.0,0.0,0.0,0.0,0.0,0.0,0.0,0.0,0.0,0.0,0.0,0.0,0.0,0.0,1.6876,1.7543,0.0,0.0,0.0,1.9239,1.9406,0.0,0.0,0.0,0.0,0.0,0.0,0.0,0.0,0.0,0.0,0.0,0.0,0.0,0.0,0.0,0.0,0.0,0.0,0.0,0.0,0.0,0.0,0.0,0.0,0.0,0.0,0.0,0.0,0.0,0.0,0.0,0.0,0.0,0.0,0.0,0.0,0.0,0.0,0.0,0.0,0.0,0.0,0.0,0.0,0.0,0.0,0.0,0.0,0.0,0.0,0.0,0.0,0.0,0.0,0.0,0.0,0.0,0.2581,0.265,0.2686,0.2686,0.282,0.2889,0.3159,0.3291,0.0,0.0,0.0,0.0,0.0,0.0,0.0,0.0,0.0,0.0,0.0,0.0,0.0,0.0,0.0,0.0,0.0,0.0,0.0,0.0,0.0,0.0,0.0,0.0,0.0,0.0,0.0,0.9313,0.0,0.0,0.0,0.0,0.0,0.0,0.0,0.0,0.0,0.0,0.0,0.0,0.0,0.0,1.6941,1.7407,1.8025,1.8599,0.0,0.0,1.9621,1.9841,1.987,1.9872,0.0,0.0,0.0,0.0,0.0,0.0,0.0,0.0,0.0,0.0,0.0,0.0,0.0,0.0,0.0,0.0,0.0,0.0,0.0,0.0,0.0,0.0,0.0,0.0,0.0,0.0,0.0,0.0,0.0,0.0,0.0,0.0,0.0,0.0,0.0,0.0,0.0,0.0,0.0,0.0,0.0,0.0,0.0,0.0,0.0,0.0,0.0,0.0,0.0,0.0,0.0,0.0,0.0,0.0,0.0,0.2581,0.265,0.2688,0.2686,0.3025,0.3092,0.2956,0.356,0.4043,0.0,0.0,0.0,0.0,0.0,0.0,0.0,0.0,0.0,0.0,0.0,0.0,0.0,0.0,0.0,0.0,0.0,0.0,0.0,0.0,0.0,0.0,0.0,0.0,0.0,0.0,0.0,0.0,0.0,0.0,0.0,0.0,0.0,0.0,0.0,0.0,0.0,0.0,0.0,0.0,0.0,1.7521,1.848,1.8765,1.9264,0.0,0.0,2.0696,2.1003,2.0664,2.0427,2.0621,0.0,0.0,0.0,0.0,0.0,0.0,0.0,0.0,0.0,0.0,0.0,0.0,0.0,0.0,0.0,0.0,0.0,0.0,0.0,0.0,0.0,0.0,0.0,0.0,0.0,0.0,0.0,0.0,0.0,0.0,0.0,0.0,0.0,0.0,0.0,0.0,0.0,0.0,0.0,0.0,0.0,0.0,0.0,0.0,0.0,0.0,0.0,0.0,0.0,0.0,0.0,0.0,0.0,0.2959,0.2979,0.3193,0.3303,0.3307,0.3642,0.3743,0.3666,0.4094,0.4382,0.0,0.0,0.0,0.0,0.0,0.0,0.0,0.0,0.0,0.0,0.0,0.0,0.0,0.0,0.0,0.0,0.0,0.0,0.0,0.0,0.0,0.0,0.0,0.0,0.0,0.0,0.0,0.0,1.0987,1.1434,1.1784,0.0,0.0,0.0,0.0,0.0,0.0,0.0,0.0,0.0,0.0,1.8032,1.9135,1.9518,0.0,0.0,2.1554,2.1688,2.2099,2.207,2.2008,2.2085,2.2051,0.0,0.0,0.0,0.0,0.0,0.0,0.0,0.0,0.0,0.0,0.0,0.0,0.0,0.0,0.0,0.0,0.0,0.0,0.0,0.0,0.0,0.0,0.0,0.0,0.0,0.0,0.0,0.0,0.0,0.0,0.0,0.0,0.0,0.0,0.0,0.0,0.0,0.0,0.0,0.0,0.0,0.0,0.0,0.0,0.0,0.0,0.0,0.0,0.0,0.0,0.0,0.0,0.3213,0.3332,0.3602,0.379,0.382,0.4037,0.4217,0.4282,0.4496,0.4719,0.0,0.0,0.0,0.0,0.0,0.0,0.0,0.0,0.0,0.0,0.0,0.0,0.0,0.0,0.0,0.0,0.0,0.0,0.0,0.0,0.0,0.0,0.0,0.0,0.0,0.0,0.0,0.0,1.1567,1.2109,1.24,0.0,0.0,0.0,0.0,0.0,0.0,0.0,0.0,0.0,0.0,1.8696,1.9832,2.0318,2.0855,2.1862,2.2045,2.2263,2.2537,2.2809,2.3024,2.3092,0.0,0.0,0.0,0.0,0.0,0.0,0.0,0.0,0.0,0.0,0.0,0.0,0.0,0.0,0.0,0.0,0.0,0.0,0.0,0.0,0.0,0.0,0.0,0.0,0.0,0.0,0.0,0.0,0.0,0.0,-0.2229,0.0,0.0,0.0,0.0,0.0,0.0,0.0,0.0,0.0,0.0,0.0,0.0,0.0,0.0,0.0,0.0,0.0,0.0,0.0,0.0,0.0,0.0,0.3511,0.3698,0.3851,0.3973,0.407,0.429,0.4439,0.4439,0.4798,0.503,0.519,0.0,0.0,0.0,0.0,0.0,0.0,0.0,0.0,0.0,0.0,0.0,0.0,0.0,0.0,0.0,0.0,0.0,0.0,0.0,0.0,0.0,0.0,0.0,0.0,0.0,0.0,1.1334,1.2036,1.2622,0.0,0.0,0.0,0.0,0.0,0.0,0.0,0.0,0.0,0.0,1.8901,1.9624,2.0783,2.1009,2.1231,2.1721,2.1998,2.2205,2.2434,2.2776,2.3024,0.0,0.0,0.0,0.0,0.0,0.0,0.0,0.0,0.0,0.0,0.0,0.0,0.0,0.0,0.0,0.0,0.0,0.0,0.0,0.0,0.0,0.0,0.0,0.0,0.0,0.0,0.0,-0.3875,-0.3625,0.0,0.0,0.0,0.0,0.0,0.0,0.0,0.0,0.0,0.0,0.0,0.0318,0.0584,0.0,0.0,0.0,0.0,0.0,0.0,0.0,0.0,0.0,0.0,0.0,0.0,0.3742,0.3946,0.4235,0.4365,0.44,0.4701,0.489,0.5042,0.5184,0.552,0.5951,0.0,0.0,0.0,0.0,0.0,0.0,0.0,0.0,0.0,0.0,0.0,0.0,0.0,0.0,0.0,0.0,0.0,0.0,0.0,0.0,0.0,0.0,0.0,0.0,0.0,1.1823,0.0,0.0,0.0,0.0,0.0,0.0,0.0,0.0,0.0,0.0,0.0,1.7939,1.8863,1.9384,2.0104,2.1259,2.1466,2.179,0.0,0.0,0.0,0.0,0.0,0.0,0.0,0.0,0.0,0.0,0.0,0.0,0.0,0.0,2.3368,2.3131,2.3381,2.3554,2.3554,0.0,0.0,0.0,0.0,0.0,0.0,0.0,0.0,0.0,0.0,0.0,0.0,0.0,0.0,-0.4379,0.0,-0.3643,0.0,0.0,0.0,0.0,0.0,0.0,0.0,0.0,-0.0599,-0.027,-0.0,0.0206,0.0624,0.0,0.1315,0.1563,0.0,0.0,0.0,0.0,0.0,0.0,0.0,0.0,0.4023,0.4274,0.4569,0.4701,0.4746,0.4974,0.5168,0.5321,0.5503,0.5909,0.6466,0.6451,0.6559,0.0,0.0,0.0,0.0,0.0,0.0,0.0,0.0,0.0,0.0,0.0,0.0,0.0,0.0,0.0,0.0,0.0,0.0,0.0,0.0,0.0,0.0,0.0,1.265,0.0,0.0,0.0,0.0,0.0,0.0,0.0,0.0,0.0,1.7091,1.7765,1.8586,1.9544,2.001,2.0687,2.203,0.0,0.0,0.0,0.0,0.0,0.0,0.0,2.5453,2.5732,2.6009,2.6186,2.5972,2.5847,2.5815,2.6005,0.0,0.0,2.4763,2.4795,2.4963,2.4975,2.5167,2.5307,2.5307,2.5602,2.5884,0.0,0.0,0.0,0.0,0.0,0.0,0.0,0.0,-0.5442,-0.5043,0.0,-0.4257,0.0,0.0,0.0,0.0,0.0,-0.2054,0.0,0.0,-0.1078,-0.0728,-0.0073,-0.0073,0.0364,0.1166,0.1164,0.131,0.1744,0.2413,0.0,0.0,0.0,0.0,0.0,0.0,0.4279,0.4608,0.4769,0.4904,0.5015,0.5179,0.5338,0.5335,0.5822,0.62,0.6563,0.6844,0.7091,0.7185,0.7394,0.0,0.0,0.0,0.0,0.0,0.0,0.0,0.0,0.0,0.0,0.0,0.0,0.0,0.0,0.0,0.0,0.0,0.0,0.0,0.0,1.2811,0.0,0.0,0.0,0.0,0.0,0.0,0.0,0.0,0.0,0.0,1.7681,1.8447,1.9433,2.043,0.0,0.0,0.0,0.0,2.352,2.4591,2.4993,2.5294,2.5647,2.6194,2.6649,2.6875,0.0,0.0,2.7999,2.829,2.8371,2.8664,2.8646,2.7998,2.5728,2.5486,2.5512,2.5512,2.5627,2.5499,2.5563,2.6503,2.7159,-0.9572,0.0,0.0,0.0,0.0,-0.7272,-0.6929,-0.6518,-0.6165,-0.5744,-0.5323,-0.4795,0.0,0.0,0.0,0.0,0.0,0.0,-0.216,-0.2016,-0.1453,-0.102,-0.0874,-0.0364,0.0146,0.0656,0.102,0.1312,0.1678,0.2283,0.264,0.2882,0.0,0.0,0.0,0.0,0.4468,0.4884,0.5045,0.5184,0.5382,0.5549,0.5758,0.6075,0.6427,0.6663,0.6973,0.7084,0.7269,0.7636,0.7803,0.0,0.0,0.0,0.0,0.0,0.0,0.0,0.0,0.0,0.0,0.0,0.0,0.0,0.0,0.0,0.0,0.0,0.0,0.0,1.3252,1.3648,1.4016,0.0,0.0,0.0,0.0,0.0,0.0,0.0,0.0,0.0,1.9219,1.9629,2.0008,0.0,0.0,2.2278,2.2995,2.3705,2.429,2.4904,2.5294,0.0,2.6065,2.6522,2.6962,2.7261,2.7779,2.823,2.846,2.8677,2.8892,2.9074,2.9261,2.9153,2.867,2.835,2.8131,2.8144,2.8405,2.8609,2.8635,2.89,2.9029,-1.0634,-0.9973,-0.9074,-0.8574,-0.8297,-0.7934,-0.7584,-0.7233,-0.673,-0.6301,-0.5943,-0.5369,-0.5012,-0.4654,-0.4,0.0,0.0,0.0,-0.2732,-0.2367,-0.1868,-0.1502,-0.1202,-0.0751,-0.03,0.0225,0.0902,0.136,0.1527,0.2011,0.2485,0.2934,0.0,0.0,0.4433,0.4436,0.4646,0.5154,0.5224,0.5341,0.5592,0.5829,0.6201,0.6692,0.6941,0.7138,0.7369,0.7586,0.7778,0.7922,0.8243,0.8467,0.0,0.0,0.0,0.0,0.0,0.0,0.0,0.0,0.0,0.0,0.0,1.0719,0.0,0.0,0.0,0.0,1.297,1.3491,1.4044,1.4346,0.0,0.0,0.0,0.0,0.0,0.0,0.0,1.8559,1.9101,1.9717,2.043,2.0867,2.112,2.1283,2.2061,2.294,2.3784,0.0,2.5032,2.578,2.612,2.6514,2.7061,2.7524,2.7983,2.8587,2.9109,2.9417,2.9576,2.9868,3.0099,3.0171,3.0328,3.0472,3.053,3.0459,3.0143,2.9649,2.9754,2.9894,2.9894,3.0067,3.0228,-1.1403,-1.1135,-1.0013,-0.9243,-0.8781,-0.8416,-0.8061,-0.77,-0.7279,-0.6773,-0.6262,-0.5981,-0.5403,-0.4681,-0.4317,0.0,-0.3591,-0.3597,-0.3183,-0.2429,-0.2256,-0.1889,-0.134,-0.1342,-0.0869,-0.0,0.0869,0.1279,0.1305,0.1794,0.2304,0.3016,0.3301,0.3824,0.4551,0.4637,0.4851,0.5366,0.5377,0.5555,0.5823,0.6232,0.6646,0.7069,0.7307,0.7552,0.7789,0.8188,0.8326,0.8227,0.8707,0.9005,0.8796,0.0,0.0,0.0,0.0,0.0,0.0,0.0,0.0,0.0,0.0,0.0,0.0,0.0,0.0,0.0,1.3822,0.0,1.4527,1.4922,0.0,0.0,0.0,1.7122,1.7971,1.8184,1.8732,1.9893,0.0,0.0,2.1405,2.2066,2.26,2.2673,2.2841,2.3541,2.4973,2.5267,2.5791,2.6977,2.7255,2.758,2.8231,2.8809,2.9332,3.0177,3.0748,3.0921,3.0983,3.1307,3.1582,3.1636,3.1736,3.1763,3.1803,3.1964,3.1688,3.0539,3.0218,3.0124,3.0204,3.0566,3.09,-1.2361,-1.1963,-1.1522,-1.0701,-0.9606,-0.9527,-0.908,-0.8403,-0.7961,-0.7585,-0.7127,-0.6453,-0.5689,-0.4917,-0.4844,-0.4461,-0.3932,-0.3799,-0.342,-0.2884,-0.2393,-0.2014,-0.1775,-0.1479,-0.0994,-0.0332,0.0414,0.0996,0.1334,0.1751,0.2339,0.302,0.3323,0.3812,0.4665,0.4665,0.4924,0.5371,0.5628,0.6067,0.6514,0.6954,0.7302,0.7389,0.7621,0.7893,0.8139,0.8465,0.8752,0.91,0.937,0.9464,0.9612,0.9874,0.0,0.0,0.0,0.0,0.0,0.0,0.0,0.0,0.0,1.2416,1.2557,0.0,1.3297,0.0,1.4545,1.5266,1.5655,1.6181,0.0,0.0,1.7436,1.7842,1.8082,1.8976,1.9674,1.9922,2.0681,2.1436,2.2117,2.2496,2.3224,2.4384,2.4584,2.4762,2.5153,2.6136,2.6803,2.7151,2.7765,2.8259,2.8522,2.93,3.0088,3.0748,3.1075,3.1286,3.1461,3.1669,3.1951,3.238,3.2624,3.2874,3.3265,3.3374,3.3279,3.2955,3.2239,3.1676,3.1676,3.1739,3.182,-1.2883,-1.2571,-1.2252,-1.1599,-1.0778,-1.0395,-0.9922,-0.9375,-0.8908,-0.8352,-0.7878,-0.6929,-0.6211,-0.5728,-0.5408,-0.5087,-0.4691,-0.4369,-0.3883,-0.3322,-0.2788,-0.231,-0.1899,-0.1506,-0.1011,-0.0505,0.0337,0.0931,0.1366,0.1793,0.2313,0.2938,0.3286,0.3978,0.4751,0.4796,0.5134,0.57,0.6115,0.6536,0.6877,0.7326,0.7591,0.7848,0.8111,0.8319,0.8582,0.883,0.9142,0.9464,0.9676,0.99,1.025,1.05,1.0767,0.0,0.0,0.0,0.0,0.0,0.0,0.0,0.0,0.0,0.0,0.0,1.4283,1.4905,1.561,1.6146,1.6453,1.6848,1.7255,1.7828,1.8224,1.8591,1.9137,1.9831,2.0436,2.1028,2.1578,2.2283,2.3281,2.3694,2.4233,2.5352,2.5769,2.5984,2.6006,2.6699,2.7267,2.7522,2.8099,2.8766,2.9438,3.0105,3.092,3.1679,3.2038,3.2279,3.2519,3.267,3.2928,3.3238,3.3382,3.3552,3.3801,3.3869,3.3869,3.3865,3.343,3.301,3.2955,3.2969,3.2969,-1.3227,-1.3,-1.2599,-1.2351,-1.2029,-1.1218,-1.0697,-1.0319,-0.9658,-0.8996,-0.8258,-0.7278,-0.6785,-0.6698,-0.604,-0.5621,-0.5371,-0.4868,-0.4367,-0.3697,-0.3201,-0.2615,-0.2026,-0.1527,-0.1104,-0.0594,0.0255,0.0944,0.1399,0.1834,0.2378,0.2865,0.3406,0.4032,0.5006,0.4925,0.5362,0.6169,0.6615,0.6969,0.7139,0.7415,0.7764,0.8197,0.846,0.8727,0.8999,0.9271,0.9517,0.9762,0.999,1.0361,1.0762,1.122,1.1505,0.0,1.2037,0.0,0.0,0.0,0.0,0.0,0.0,0.0,0.0,1.4601,1.5324,1.6304,1.6564,1.6818,1.7037,1.7308,1.7872,1.876,1.8951,1.9486,2.044,2.0771,2.1261,2.2371,2.2621,2.3213,2.4396,2.4993,2.5418,2.5864,2.6515,2.6823,2.6962,2.7185,2.7452,2.7881,2.8342,2.9316,3.0624,3.1159,3.1694,3.2777,3.3052,3.3378,3.3571,3.3752,3.3869,3.3964,3.3991,3.4018,3.4149,3.414,3.4126,3.4258,3.414,3.4032,3.3905,3.3761,3.3869,-1.3748,-1.3497,-1.3329,-1.3071,-1.2819,-1.2064,-1.1333,-1.0562,-0.9897,-0.9078,-0.8098,-0.7529,-0.7033,-0.6698,-0.6201,-0.5702,-0.5371,-0.4951,-0.4367,-0.3699,-0.3251,-0.276,-0.2075,-0.1583,-0.1153,-0.0621,0.0266,0.0977,0.1427,0.1962,0.2412,0.2956,0.3406,0.4032,0.4919,0.0,0.0,0.0,0.6786,0.7143,0.7415,0.7852,0.8201,0.8548,0.8732,0.0,0.9428,0.974,1.0067,1.0489,1.071,0.0,0.0,0.0,0.0,0.0,0.0,0.0,0.0,0.0,0.0,0.0,1.5054,1.5241,1.538,1.5737,1.6137,1.6514,1.7021,1.7441,1.7614,1.8422,1.8943,1.9182,1.9828,2.0324,2.0644,2.1507,2.2251,2.249,2.3445,2.4328,2.4956,2.5444,2.5979,2.6572,2.6976,2.7185,2.7383,2.7638,2.7881,2.8134,2.9068,3.0245,3.1669,3.1919,3.2264,3.2975,3.3301,3.3496,3.386,3.3923,3.4163,3.4543,3.4587,3.4828,3.5248,3.5384,3.5303,3.5371,3.5357,3.5086,3.4086,3.3959,3.3869,-1.4075,0.0,-1.3568,-1.3307,0.0,-1.2381,-1.1725,-1.1244,-1.0559,-0.9634,-0.8624,-0.8033,-0.7606,-0.7261,-0.6487,-0.6058,-0.5717,-0.5114,-0.4506,-0.3819,-0.351,-0.2911,-0.212,-0.1875,-0.1436,-0.0718,0.0269,0.0987,0.1436,0.1974,0.2423,0.2867,0.3406,0.4032,0.501,0.5602,0.6051,0.6428,0.6966,0.745,0.78,0.8333,0.8731,0.8993,0.9362,0.0,0.0,0.0,0.0,0.0,0.0,0.0,0.0,1.2129,0.0,1.2949,1.3146,1.3552,1.4137,1.4575,1.5136,1.5638,1.6339,1.6591,1.6427,1.6644,1.696,1.7449,1.7795,1.8074,1.8399,1.8946,1.9543,2.0047,2.0562,2.1194,2.1799,2.2429,2.3144,2.3785,2.4411,2.515,2.5962,2.6192,2.6597,2.708,2.7278,2.7534,2.8093,2.8315,2.8643,2.9325,2.9906,3.0872,3.2179,3.2483,3.2911,3.3833,3.418,3.4339,3.4736,3.4828,3.4936,3.5208,3.5276,3.5384,3.5615,3.571,3.571,3.5723,3.5817,3.5748,3.5108,3.4906,3.4828,-1.4243,-1.4088,-1.3568,-1.3398,-1.3313,-1.2375,-1.1957,-1.1693,0.0,0.0,0.0,-0.8468,-0.8025,-0.7852,-0.6874,-0.6254,-0.6083,-0.5366,-0.4563,-0.3848,-0.3674,-0.305,-0.2244,-0.2155,-0.1705,-0.0718,0.0269,0.0897,0.1436,0.1974,0.2422,0.2957,0.3419,0.4242,0.516,0.6253,0.6706,0.6687,0.731,0.7829,0.8234,0.8782,0.9217,0.9647,1.0023,1.0315,1.0424,1.068,1.087,1.1144,1.1462,1.181,1.2261,1.2677,1.3155,1.3489,1.3658,1.4014,1.4626,1.515,1.5821,1.6557,1.7448,1.7716,1.7296,1.7341,1.7715,1.8327,1.8495,1.878,1.919,1.9494,2.0052,2.0957,2.1409,2.203,2.3,2.3468,2.3981,2.5017,2.5392,2.5847,2.6801,2.6928,2.7126,2.7464,2.772,2.814,2.9059,2.9249,2.9617,3.0599,3.0901,3.1431,3.2619,3.3021,3.3628,3.4735,3.5019,3.5236,3.5548,3.571,3.571,3.5642,3.571,3.571,3.571,3.5723,3.5804,3.5804,3.5965,3.6152,3.6152,3.5978,3.5749,-1.4166,-1.4082,-1.3568,-1.3398,-1.3307,-1.2381,-1.1602,-1.0819,-1.0299,-0.9777,-0.9262,-0.838,-0.794,-0.7856,-0.6874,-0.6257,-0.6083,-0.5366,-0.4563,-0.3848,-0.3405,-0.2869,-0.2243,-0.2155,-0.1705,-0.0718,0.0269,0.0987,0.1436,0.1974,0.2422,0.2964,0.3648,0.4637,0.5839,0.652,0.6989,0.7429,0.7894,0.847,0.8967,0.9245,0.9625,1.0107,1.0394,1.0658,1.09,1.1354,1.171,1.1951,1.24,1.2858,1.3321,1.3746,1.4071,1.4336,1.4706,1.4986,1.5277,1.6055,1.695,1.7929,1.8372,1.8372,1.77,1.8035,1.8301,1.8451,1.8993,1.958,1.9852,2.0447,2.1066,2.1738,2.2269,2.2798,2.3275,2.4249,2.4935,2.5196,2.6039,2.6685,2.708,2.7151,2.7325,2.7859,2.8503,2.9296,3.0157,3.0254,3.0411,3.1246,3.1478,3.2112,3.3153,3.3585,3.3946,3.4895,3.5086,3.5236,3.5629,3.571,3.571,3.571,3.571,3.571,3.571,3.5898,3.5992,3.6086,3.6246,3.6312,3.6405,3.6312,3.6312,-1.4004,-1.3828,-1.3568,-1.3313,-1.3143,-1.2283,-1.1419,-1.0636,-1.0033,-0.9607,-0.9262,-0.8376,-0.7937,-0.758,-0.6786,-0.6169,-0.5727,-0.5104,-0.4478,-0.3764,-0.3226,-0.278,-0.2243,-0.2155,-0.1705,-0.0718,0.0269,0.1082,0.1824,0.2099,0.257,0.3244,0.4392,0.5494,0.6365,0.7044,0.7654,0.8208,0.8328,0.8667,0.9234,0.9613,1.0134,1.071,1.1006,1.1238,1.15,1.1874,1.209,1.2237,1.2877,1.3338,1.361,1.4237,1.4711,1.4926,1.542,1.5879,1.6271,1.7202,1.7968,1.8566,1.8982,1.9025,1.8674,1.8889,1.9138,1.9321,1.974,2.008,2.0412,2.0985,2.1684,2.2335,2.3031,2.3639,2.4272,2.4981,2.5639,2.598,2.6487,2.7044,2.736,2.729,2.7569,2.8327,2.9368,3.0265,3.0831,3.0939,3.1184,3.1884,3.2031,3.245,3.3348,3.3628,3.3979,3.4647,3.4908,3.5236,3.548,3.5629,3.571,3.571,3.571,3.5804,3.5898,3.5992,3.6086,3.6246,3.6405,3.6563,3.6563,3.6628,3.6615,-1.3913,-1.3646,-1.3483,-1.3222,-1.2802,-1.1935,-1.1241,-1.0463,-0.9864,-0.9432,-0.9082,-0.8464,-0.7845,-0.7401,-0.6694,-0.5988,-0.5371,-0.4926,-0.4302,-0.3587,-0.3048,-0.2607,-0.2259,-0.2079,-0.154,-0.0545,0.0364,0.1284,0.2141,0.233,0.2823,0.3924,0.517,0.6085,0.6787,0.7573,0.8217,0.8803,0.8671,0.8894,0.9598,1.0088,1.0642,1.1277,1.1585,1.1895,1.222,1.2395,1.2598,1.2783,1.3418,1.3786,1.3976,1.4702,1.5305,1.559,1.6106,1.6691,1.7541,1.8295,1.8771,1.9134,1.9549,1.9852,1.9938,1.9929,1.9936,2.0153,2.0349,2.0668,2.11,2.1606,2.2181,2.3013,2.3729,2.4357,2.5126,2.5717,2.6229,2.6644,2.688,2.7242,2.7568,2.751,2.8035,2.9427,3.041,3.0867,3.106,3.1432,3.1825,3.2213,3.24,3.2636,3.324,3.3556,3.3894,3.4314,3.4825,3.5154,3.5399,3.5548,3.571,3.571,3.571,3.5817,3.5992,3.6166,3.6246,3.6405,3.6642,3.68,3.6786,3.685,3.6915,-1.3926,-1.3652,-1.3502,-1.2887,-1.2135,-1.1591,-1.0982,-1.0294,-0.9777,-0.9253,-0.8636,-0.8113,-0.7676,-0.7139,-0.6605,-0.5988,-0.5371,-0.4928,-0.4306,-0.359,-0.2871,-0.2449,-0.2306,-0.1754,-0.0932,-0.0,0.0568,0.1325,0.2188,0.2569,0.3454,0.4873,0.5565,0.6304,0.7099,0.7713,0.8421,0.9137,0.9399,0.978,1.028,1.0774,1.1272,1.1585,1.2078,1.2457,1.2716,1.2926,1.3295,1.3765,1.4023,1.4512,1.4994,1.5461,1.5905,1.6387,1.6911,1.7706,1.8804,1.9171,1.9499,1.9974,2.0332,2.0685,2.106,2.1159,2.0853,2.0558,2.0964,2.1407,2.1702,2.2409,2.3036,2.3604,2.433,2.4999,2.5432,2.6135,2.6644,2.6809,2.7231,2.7708,2.8316,2.8222,2.8881,3.0883,3.1039,3.1096,3.1432,3.1577,3.1761,3.2038,3.2213,3.2562,3.3068,3.3471,3.381,3.4314,3.4825,3.5168,3.5318,3.5548,3.571,3.571,3.5723,3.5817,3.6072,3.6232,3.6405,3.6628,3.6772,3.6993,3.6993,3.6993,3.69,-1.4421,-1.3969,-1.3881,-1.3179,-1.2074,-1.1397,-1.0722,-1.0125,-0.9432,-0.8903,-0.8285,-0.7672,-0.7231,-0.6881,-0.6254,-0.5722,-0.5107,-0.4533,-0.4014,-0.3383,-0.2683,-0.2338,-0.2073,-0.1319,-0.0568,0.0191,0.124,0.2015,0.2522,0.3332,0.4254,0.5176,0.5973,0.679,0.7431,0.8131,0.8832,0.9426,0.9821,1.031,1.0801,1.1096,1.1492,1.2073,1.2467,1.2759,1.2953,1.3346,1.3732,1.4112,1.4496,1.4981,1.5452,1.6015,1.6525,1.6972,1.7697,1.8573,1.9362,1.9552,1.9881,2.0427,2.0738,2.1015,2.1383,2.1482,2.1496,2.1434,2.1655,2.1942,2.2195,2.2872,2.3493,2.4024,2.469,2.52,2.5717,2.6218,2.6644,2.6914,2.7554,2.8128,2.868,2.926,3.0168,3.143,3.1501,3.1444,3.1637,3.1661,3.1749,3.1849,3.2125,3.2475,3.281,3.33,3.3713,3.4063,3.466,3.5168,3.5249,3.548,3.5723,3.571,3.5804,3.5978,3.6232,3.647,3.6642,3.685,3.6915,3.6978,3.6978,3.6978,3.6978,-1.4591,-1.4218,-1.405,-1.3219,-1.2053,-1.1248,-1.0647,-1.0032,-0.9237,-0.8613,-0.8072,-0.7441,-0.6905,-0.6545,-0.6059,-0.5515,-0.4922,-0.4348,-0.3819,-0.3176,-0.2653,-0.2296,-0.2018,-0.0961,-0.0193,0.0387,0.165,0.2538,0.2867,0.4002,0.4841,0.5543,0.6345,0.7141,0.7733,0.8528,0.9229,0.9727,1.0314,1.09,1.1389,1.1487,1.1878,1.2467,1.2764,1.305,1.334,1.3738,1.4118,1.4394,1.4981,1.5458,1.5825,1.6393,1.7052,1.7699,1.855,1.9204,1.9671,1.9936,2.0292,2.0736,2.1006,2.1186,2.1472,2.1651,2.183,2.2078,2.2204,2.2372,2.2618,2.3232,2.3764,2.4196,2.4871,2.5454,2.5884,2.6474,2.7013,2.7295,2.8113,2.8724,2.9307,3.0312,3.1243,3.1574,3.1692,3.1661,3.1661,3.1661,3.1749,3.1749,3.2125,3.24,3.2636,3.3215,3.3628,3.3882,3.4481,3.5072,3.5154,3.548,3.5817,3.5884,3.5992,3.6152,3.6391,3.6628,3.6786,3.6915,3.6978,3.6978,3.6978,3.6978,3.6978,-1.4495,-1.4147,-1.3544,-1.2797,-1.193,-1.1171,-1.0619,-1.0044,-0.9326,-0.859,-0.7923,-0.7363,-0.672,-0.6056,-0.6048,-0.5681,-0.4919,-0.4462,-0.3805,-0.3046,-0.2674,-0.2412,-0.2059,-0.0687,0.0297,0.0801,0.1804,0.261,0.3215,0.4227,0.534,0.6348,0.6645,0.7241,0.7939,0.8737,0.9434,1.0019,1.0703,1.1394,1.1878,1.217,1.2467,1.2764,1.2958,1.334,1.3835,1.4112,1.4394,1.4694,1.535,1.573,1.5927,1.6763,1.7699,1.8635,1.9204,1.9671,1.9928,2.0292,2.0744,2.1006,2.1195,2.1482,2.1651,2.1741,2.183,2.2106,2.2489,2.2842,2.3057,2.3493,2.3927,2.4444,2.5137,2.5738,2.6146,2.6998,2.7706,2.8229,2.8876,2.9588,3.0369,3.1141,3.1517,3.1689,3.1737,3.1661,3.1661,3.1661,3.1761,3.195,3.2213,3.24,3.2487,3.3142,3.3628,3.3882,3.4397,3.5072,3.5236,3.5399,3.5737,3.5978,3.6072,3.6232,3.6549,3.6707,3.685,3.6915,3.6978,3.6978,3.6978,3.6978,3.6978,-1.4852,-1.4178,-1.3071,-1.2445,-1.1973,-1.1091,-1.0288,-0.9647,-0.9084,-0.8337,-0.7688,-0.7123,-0.6602,-0.6101,-0.5482,-0.497,-0.4575,-0.3857,-0.3203,-0.282,-0.2461,-0.1988,-0.1199,-0.04,0.0501,0.1312,0.2121,0.3027,0.3932,0.4738,0.5539,0.6339,0.7039,0.7637,0.8333,0.9031,0.9723,1.0314,1.09,1.1492,1.1975,1.2467,1.2861,1.3249,1.3346,1.3539,1.3835,1.431,1.4688,1.4892,1.5452,1.6021,1.6588,1.7621,1.8357,1.8827,1.9387,1.9936,2.011,2.0473,2.0835,2.1203,2.1302,2.1482,2.1651,2.1928,2.2106,2.2372,2.2949,2.331,2.3513,2.3841,2.4176,2.4594,2.552,2.6417,2.6941,2.7629,2.8277,2.887,2.9597,3.0438,3.1117,3.1529,3.1661,3.1661,3.1661,3.1661,3.1661,3.1661,3.1761,3.2025,3.2213,3.2487,3.281,3.3313,3.3725,3.3979,3.4397,3.4908,3.5154,3.548,3.5817,3.6072,3.6152,3.6391,3.6707,3.685,3.6915,3.6915,3.6978,3.6978,3.6978,3.6978,3.6978,-1.4675,-1.3884,-1.274,-1.2109,-1.1818,-1.1019,-1.0207,-0.9453,-0.8874,-0.8207,-0.7541,-0.6969,-0.644,-0.592,-0.5038,-0.442,-0.4084,-0.3345,-0.2772,-0.2577,-0.241,-0.1617,-0.0606,-0.0,0.0808,0.1819,0.2623,0.353,0.4541,0.5142,0.5942,0.6742,0.7437,0.8031,0.8531,0.9324,1.0023,1.0511,1.1096,1.1688,1.2273,1.2662,1.3152,1.3539,1.3732,1.3925,1.4124,1.4598,1.4975,1.5363,1.5832,1.6494,1.7347,1.8272,1.892,1.9112,1.9563,2.011,2.0382,2.0645,2.0925,2.1392,2.1482,2.1571,2.1741,2.2008,2.2195,2.2558,2.3153,2.3761,2.4307,2.4651,2.4979,2.5198,2.6228,2.7159,2.7644,2.8407,2.9097,2.9764,3.0494,3.1125,3.1577,3.1649,3.1661,3.1661,3.1661,3.1661,3.1661,3.1761,3.1849,3.2125,3.2388,3.2736,3.3068,3.3471,3.3894,3.4147,3.4494,3.4908,3.5236,3.5562,3.5898,3.6152,3.6312,3.6549,3.6707,3.6929,3.6993,3.6978,3.6978,3.6978,3.6978,3.6978,3.7007,-1.4016,-1.3437,-1.2533,-1.1935,-1.1551,-1.0951,-1.0293,-0.9485,-0.8696,-0.8086,-0.748,-0.6711,-0.6106,-0.5527,-0.5018,-0.4321,-0.3613,-0.3016,-0.2616,-0.2416,-0.2323,-0.1516,-0.0101,0.0606,0.1313,0.2223,0.3127,0.4033,0.4843,0.5644,0.6445,0.7353,0.7842,0.8333,0.8825,0.962,1.0212,1.0801,1.1492,1.2175,1.2764,1.2958,1.3346,1.3835,1.4112,1.44,1.4688,1.4987,1.5267,1.5737,1.6298,1.7052,1.7994,1.855,1.902,1.9487,1.9845,2.0201,2.0654,2.0907,2.1105,2.1392,2.1571,2.1651,2.1741,2.2045,2.234,2.2574,2.3386,2.4267,2.5289,2.5905,2.6203,2.6389,2.7206,2.7832,2.8381,2.9259,3.0185,3.0992,3.1388,3.1637,3.1661,3.1661,3.1661,3.1661,3.1661,3.1661,3.1761,3.1849,3.2038,3.23,3.2562,3.2896,3.3227,3.3641,3.3979,3.4314,3.4743,3.5168,3.5413,3.5656,3.5992,3.6246,3.6536,3.6772,3.685,3.6993,3.6993,3.6978,3.6978,3.6978,3.6978,3.6993,3.7077,-1.3913,-1.3147,-1.2554,-1.1975,-1.1292,-1.0507,-0.992,-0.9232,-0.8435,-0.7736,-0.7039,-0.6637,-0.5937,-0.5135,-0.4636,-0.4034,-0.333,-0.2925,-0.2523,-0.2223,-0.1921,-0.1212,-0.0,0.1313,0.2223,0.2928,0.353,0.4334,0.514,0.5842,0.6739,0.754,0.8035,0.863,0.9324,0.992,1.0511,1.1096,1.1683,1.2273,1.2764,1.3152,1.363,1.4112,1.44,1.4783,1.5261,1.5356,1.554,1.5825,1.6501,1.7441,1.8458,1.9112,1.9487,1.9745,2.0201,2.0555,2.0826,2.1105,2.1383,2.1571,2.1651,2.1642,2.1777,2.2367,2.2777,2.3005,2.3975,2.4977,2.5501,2.6456,2.7093,2.7602,2.8144,2.8533,2.9033,2.9943,3.0749,3.1169,3.1572,3.1673,3.1661,3.1661,3.1661,3.1661,3.1661,3.1661,3.1761,3.1849,3.2125,3.24,3.2723,3.3142,3.3471,3.3894,3.423,3.4564,3.4908,3.5331,3.5575,3.5817,3.6152,3.647,3.6693,3.6836,3.6978,3.6978,3.6978,3.6978,3.6978,3.6978,3.6978,3.7077,3.7217,-1.3624,-1.2958,-1.237,-1.1683,-1.0998,-1.0216,-0.9525,-0.8832,-0.8137,-0.7437,-0.6639,-0.6139,-0.5536,-0.4834,-0.4236,-0.3632,-0.3029,-0.2725,-0.2222,-0.1718,-0.1212,-0.0606,0.0202,0.1717,0.2727,0.323,0.3932,0.4634,0.5338,0.6139,0.6936,0.7736,0.8329,0.8928,0.9624,1.0216,1.0801,1.1389,1.198,1.2565,1.3055,1.3448,1.3823,1.4292,1.4688,1.507,1.5547,1.5737,1.5825,1.6204,1.6965,1.7807,1.8727,1.9296,1.9679,1.9936,2.0382,2.0835,2.0997,2.1195,2.1482,2.167,2.1869,2.1951,2.2205,2.2875,2.3376,2.3717,2.47,2.5604,2.6104,2.701,2.7995,2.8712,2.8925,2.9308,2.9814,3.0582,3.1116,3.1395,3.1661,3.1661,3.1661,3.1661,3.1661,3.1661,3.1661,3.1761,3.1849,3.2025,3.23,3.2562,3.2982,3.3398,3.381,3.4147,3.4564,3.4825,3.5154,3.5494,3.5737,3.5978,3.6312,3.6615,3.6915,3.6915,3.6978,3.6978,3.6978,3.6978,3.6978,3.6978,3.7021,3.733,3.7526,-1.3152,-1.2667,-1.1878,-1.1292,-1.0605,-0.9821,-0.913,-0.8333,-0.773,-0.7036,-0.6337,-0.5539,-0.5037,-0.4535,-0.3732,-0.313,-0.2725,-0.2425,-0.1718,-0.0909,-0.0303,0.0101,0.0707,0.212,0.3027,0.3432,0.4334,0.5035,0.5737,0.6539,0.7241,0.8038,0.8627,0.9122,0.9723,1.0413,1.11,1.1683,1.237,1.2958,1.3443,1.3738,1.4106,1.437,1.4873,1.5363,1.5832,1.6116,1.6407,1.6777,1.7621,1.8365,1.8827,1.9296,1.9762,2.0027,2.0464,2.087,2.1041,2.1383,2.1608,2.1861,2.2199,2.2456,2.2777,2.3362,2.399,2.44,2.5322,2.6247,2.6972,2.7793,2.8659,2.9371,2.9567,2.9966,3.0769,3.1128,3.1395,3.1584,3.1661,3.1661,3.1661,3.1661,3.1661,3.1749,3.1749,3.1849,3.1937,3.2213,3.2562,3.2896,3.3227,3.3654,3.3979,3.441,3.4825,3.5072,3.5318,3.5656,3.5912,3.6232,3.647,3.6758,3.69,3.6978,3.6978,3.6978,3.6978,3.6978,3.6978,3.6978,3.7203,3.754,3.8004,-1.2667,-1.2175,-1.159,-1.0806,-0.992,-0.9225,-0.863,-0.8038,-0.7135,-0.6537,-0.5939,-0.5236,-0.4535,-0.393,-0.343,-0.2928,-0.2425,-0.2325,-0.1516,-0.0303,0.0303,0.1111,0.1917,0.2725,0.343,0.4036,0.4736,0.5436,0.6234,0.6936,0.7736,0.8333,0.9027,0.962,1.0212,1.0801,1.1389,1.1883,1.2467,1.3055,1.3539,1.4016,1.4292,1.4669,1.5255,1.5743,1.6224,1.6683,1.7145,1.7441,1.8179,1.8827,1.932,1.9704,2.0095,2.0451,2.0779,2.1157,2.1661,2.1907,2.2217,2.2602,2.2871,2.3047,2.315,2.4172,2.4675,2.5159,2.6044,2.7055,2.7474,2.8215,2.9035,2.9691,3.0045,3.0499,3.0883,3.1139,3.1395,3.1661,3.1661,3.1661,3.1661,3.1661,3.1661,3.1749,3.1849,3.1937,3.2125,3.2376,3.2822,3.3068,3.3398,3.381,3.423,3.466,3.5003,3.5318,3.5575,3.5912,3.6152,3.6405,3.6628,3.6915,3.6978,3.6978,3.6978,3.6978,3.6978,3.7056,3.7056,3.7099,3.747,3.7878,3.8563,-1.237,-1.1585,-1.1096,-1.0408,-0.9525,-0.8733,-0.8134,-0.7537,-0.6736,-0.6037,-0.5436,-0.4734,-0.4133,-0.3429,-0.2928,-0.2626,-0.2224,-0.1617,-0.0808,-0.0,0.111,0.2018,0.2724,0.3128,0.3732,0.4537,0.5238,0.5842,0.6637,0.7338,0.8035,0.863,0.9229,0.992,1.0507,1.1096,1.1683,1.2273,1.2856,1.3346,1.3823,1.4202,1.4777,1.5153,1.5635,1.6021,1.6697,1.7646,1.8232,1.8256,1.8769,1.9321,1.9911,2.0323,2.0763,2.1133,2.1494,2.1895,2.2149,2.2408,2.2694,2.3017,2.3335,2.3636,2.4004,2.4793,2.5428,2.5944,2.6832,2.7505,2.8102,2.885,2.9497,3.0136,3.051,3.0781,3.0972,3.133,3.1484,3.1661,3.1661,3.1661,3.1661,3.1661,3.1661,3.1761,3.1849,3.2025,3.2213,3.2636,3.2982,3.3313,3.3641,3.4147,3.4481,3.4908,3.5249,3.5494,3.5898,3.6232,3.6391,3.6563,3.6772,3.6993,3.6978,3.6978,3.7056,3.7134,3.7226,3.7226,3.7226,3.7466,3.7932,3.8446,3.9148,-1.2073,-1.1096,-1.0511,-1.0019,-0.9327,-0.8336,-0.7637,-0.7039,-0.6437,-0.5634,-0.4834,-0.4234,-0.3632,-0.313,-0.2626,-0.2123,-0.1819,-0.0707,-0.0,0.0808,0.1817,0.2826,0.3027,0.353,0.4133,0.4836,0.5639,0.6342,0.6939,0.7739,0.8333,0.8928,0.9426,1.0117,1.0801,1.1389,1.2073,1.2764,1.334,1.3727,1.4202,1.4682,1.5159,1.5642,1.6116,1.6725,1.7653,1.8558,1.9209,1.9055,1.9421,1.9935,2.0575,2.1156,2.1544,2.1803,2.2147,2.2474,2.2704,2.2911,2.3146,2.3465,2.3839,2.4268,2.4804,2.5439,2.6108,2.6683,2.7136,2.7809,2.8664,2.9508,2.9954,3.0408,3.0781,3.0984,3.1062,3.1407,3.1661,3.1661,3.1661,3.1661,3.1661,3.1661,3.1749,3.1862,3.2038,3.2201,3.2463,3.2896,3.3313,3.3641,3.4063,3.4494,3.4825,3.5154,3.5399,3.5656,3.6138,3.647,3.6628,3.685,3.6915,3.6978,3.6978,3.7056,3.7226,3.7303,3.738,3.7557,3.7613,3.8033,3.8567,3.9121,3.979,-1.1389,-1.0511,-1.0019,-0.9229,-0.8336,-0.7637,-0.7039,-0.6537,-0.5534,-0.5035,-0.4634,-0.3831,-0.3229,-0.2826,-0.2324,-0.1617,-0.0707,-0.0,0.0606,0.1819,0.2625,0.333,0.3731,0.4133,0.4537,0.5238,0.5939,0.6739,0.7434,0.8038,0.8733,0.9327,0.992,1.0511,1.11,1.1785,1.237,1.2861,1.3624,1.4106,1.449,1.5159,1.5635,1.5927,1.6812,1.7878,1.8714,1.9202,1.9811,2.038,2.0695,2.0866,2.105,2.1509,2.197,2.217,2.2429,2.2813,2.324,2.3341,2.3643,2.4175,2.4444,2.4887,2.546,2.6011,2.6582,2.7156,2.762,2.8279,2.9209,2.9703,3.0148,3.0589,3.0871,3.1062,3.1229,3.1484,3.1661,3.1661,3.1661,3.1661,3.1661,3.1749,3.1761,3.195,3.2213,3.2463,3.281,3.3154,3.3484,3.3894,3.4314,3.466,3.499,3.5331,3.5656,3.5898,3.6312,3.6615,3.685,3.6929,3.6993,3.6978,3.6978,3.7134,3.7303,3.738,3.7457,3.7705,3.8073,3.8546,3.914,3.9762,4.0378,-1.09,-1.0019,-0.9422,-0.8733,-0.7935,-0.7135,-0.6534,-0.5934,-0.5133,-0.4533,-0.4033,-0.333,-0.2827,-0.2524,-0.2021,-0.1212,-0.0,0.0808,0.1515,0.2424,0.3029,0.3632,0.4332,0.4834,0.5238,0.5837,0.6339,0.7039,0.7736,0.8432,0.9031,0.9628,1.0413,1.09,1.1492,1.2181,1.2759,1.3249,1.3913,1.4394,1.4783,1.535,1.6109,1.663,1.7675,1.8714,1.9312,2.0175,2.0693,2.129,2.1744,2.1859,2.1862,2.224,2.2611,2.292,2.3211,2.3487,2.3794,2.3929,2.4198,2.4609,2.502,2.5411,2.5984,2.6486,2.6976,2.7452,2.8008,2.8746,2.9588,3.0045,3.0408,3.0691,3.096,3.1229,3.1484,3.1572,3.1661,3.1661,3.1661,3.1661,3.1749,3.1749,3.1862,3.2062,3.2388,3.2636,3.2982,3.3326,3.3738,3.4147,3.4494,3.4908,3.5249,3.5575,3.5912,3.6152,3.6484,3.6693,3.6915,3.6993,3.6978,3.6978,3.7056,3.7226,3.738,3.7457,3.7639,3.7968,3.8376,3.9038,3.9657,4.0233,4.0934,-1.0408,-0.943,-0.8924,-0.8333,-0.7637,-0.6736,-0.5934,-0.5434,-0.4834,-0.4033,-0.3331,-0.2826,-0.2526,-0.2123,-0.1516,-0.0707,0.0505,0.1515,0.2424,0.2826,0.343,0.4033,0.4834,0.5434,0.6034,0.6537,0.6939,0.7441,0.8137,0.8836,0.943,0.9924,1.0708,1.1389,1.1883,1.2467,1.3152,1.3636,1.4208,1.4688,1.5172,1.5737,1.6393,1.7377,1.8369,1.9162,1.9845,2.0759,2.1601,2.1801,2.2581,2.2746,2.2857,2.3134,2.3546,2.3728,2.3943,2.4042,2.415,2.4393,2.4609,2.4932,2.5411,2.5887,2.638,2.687,2.7347,2.7914,2.8571,2.922,2.9886,3.0227,3.0691,3.096,3.1229,3.1395,3.1661,3.1661,3.1661,3.1661,3.1661,3.1661,3.1761,3.1849,3.1962,3.225,3.2574,3.2896,3.3154,3.3569,3.3992,3.4397,3.4825,3.5249,3.5575,3.5831,3.6152,3.6391,3.6642,3.6772,3.6978,3.6978,3.6978,3.7056,3.7134,3.7303,3.7534,3.7625,3.7882,3.8257,3.8855,3.9469,4.0141,4.0742,4.1381,-0.9916,-0.8924,-0.8333,-0.7537,-0.6639,-0.6034,-0.5436,-0.4834,-0.3932,-0.3432,-0.313,-0.2527,-0.2325,-0.1819,-0.0808,0.0505,0.1516,0.2425,0.2827,0.333,0.3934,0.4734,0.5238,0.5934,0.6634,0.7332,0.7736,0.8038,0.8535,0.913,0.9821,1.0511,1.1002,1.1688,1.237,1.2953,1.3437,1.4016,1.4592,1.5166,1.5642,1.6211,1.6986,1.7961,1.8934,1.9702,2.041,2.117,2.1934,2.2715,2.2911,2.3203,2.3448,2.3601,2.3746,2.3854,2.4053,2.4242,2.444,2.4538,2.4922,2.5401,2.5693,2.6187,2.687,2.7251,2.782,2.8571,2.9231,2.9783,3.0125,3.0487,3.0769,3.1128,3.1306,3.1395,3.1661,3.1661,3.1661,3.1661,3.1661,3.1761,3.1849,3.195,3.225,3.2524,3.2847,3.3154,3.3471,3.3894,3.4327,3.4743,3.5072,3.5494,3.5912,3.6152,3.6405,3.6549,3.6786,3.6836,3.6978,3.6978,3.6978,3.7056,3.7148,3.738,3.7534,3.7777,3.802,3.8199,3.9044,3.9915,4.035,4.0815,4.157,-0.9324,-0.8329,-0.7836,-0.7138,-0.6337,-0.5536,-0.4834,-0.4334,-0.3531,-0.303,-0.2626,-0.2324,-0.1718,-0.101,-0.0404,0.0808,0.2021,0.2827,0.323,0.3732,0.4435,0.5236,0.5839,0.6537,0.7135,0.7836,0.8435,0.8832,0.9031,0.9525,1.0212,1.0998,1.1487,1.2175,1.2764,1.3244,1.3727,1.4394,1.4968,1.5445,1.5825,1.6494,1.7579,1.8659,1.9415,2.0264,2.1128,2.1991,2.2546,2.2902,2.3256,2.3555,2.3755,2.3954,2.4053,2.4044,2.4242,2.4341,2.4538,2.4735,2.5226,2.5596,2.5984,2.6572,2.7251,2.782,2.8384,2.9139,2.9611,3.0057,3.0397,3.0679,3.0949,3.1217,3.1395,3.1572,3.1661,3.1661,3.1661,3.1749,3.1749,3.1761,3.1962,3.215,3.2437,3.2785,3.3106,3.3411,3.3713,3.4147,3.466,3.499,3.5318,3.5656,3.6072,3.6325,3.6563,3.6707,3.685,3.6915,3.6978,3.6978,3.6978,3.6978,3.7226,3.7457,3.761,3.7839,3.7991,3.8333,3.9218,3.9987,4.0394,4.0916,4.1686,-0.8832,-0.7839,-0.7238,-0.6637,-0.5934,-0.5033,-0.4334,-0.3833,-0.323,-0.2727,-0.2224,-0.2022,-0.1313,-0.0202,0.0404,0.1212,0.2325,0.3029,0.3632,0.4234,0.4836,0.5536,0.6337,0.7039,0.764,0.8233,0.9031,0.9624,0.9624,1.0019,1.0605,1.1292,1.2073,1.2662,1.3055,1.3636,1.4016,1.4586,1.5153,1.5629,1.6204,1.6972,1.8052,1.9336,2.0062,2.0792,2.1632,2.2404,2.2976,2.3238,2.3546,2.3746,2.3854,2.4152,2.4251,2.4242,2.444,2.4538,2.4833,2.5128,2.5518,2.5897,2.6572,2.7061,2.7631,2.8279,2.9128,2.9794,3.0068,3.025,3.0601,3.096,3.1139,3.1407,3.1584,3.1661,3.1661,3.1661,3.1661,3.1749,3.1749,3.1849,3.205,3.2225,3.2512,3.2934,3.3253,3.3666,3.3979,3.4397,3.4825,3.5236,3.5575,3.5817,3.6152,3.6391,3.6628,3.6786,3.6915,3.6978,3.6978,3.6978,3.6978,3.6993,3.7303,3.761,3.7763,3.7915,3.8066,3.8551,3.9421,4.0002,4.0292,4.1004,4.1874,-0.823,-0.7238,-0.6736,-0.5937,-0.5035,-0.4334,-0.3831,-0.323,-0.2626,-0.2325,-0.2022,-0.1718,-0.101,0.0202,0.1415,0.2121,0.2725,0.3328,0.4033,0.4734,0.5436,0.6039,0.6537,0.7441,0.8134,0.873,0.9426,0.9529,0.992,1.0609,1.1198,1.1688,1.237,1.2958,1.3437,1.3919,1.4496,1.4981,1.5547,1.6204,1.7044,1.7707,1.8457,1.9462,2.0271,2.1045,2.1906,2.2763,2.3238,2.3646,2.3628,2.3827,2.4143,2.4467,2.4548,2.4538,2.4529,2.4735,2.5118,2.5518,2.5907,2.639,2.6965,2.7441,2.8092,2.8839,2.9497,2.9783,3.0227,3.0589,3.0871,3.1139,3.1407,3.1496,3.1673,3.1661,3.1661,3.1661,3.1661,3.1761,3.1849,3.1937,3.2125,3.23,3.2574,3.2982,3.3411,3.3823,3.423,3.466,3.499,3.5399,3.5737,3.5978,3.6232,3.647,3.6615,3.685,3.6915,3.6978,3.6978,3.6978,3.6993,3.7148,3.738,3.761,3.7777,3.7915,3.8127,3.8638,3.9363,3.9784,4.0104,4.1004,4.2034,-0.7431,-0.6739,-0.6137,-0.5536,-0.4734,-0.3934,-0.333,-0.2928,-0.2425,-0.192,-0.1414,-0.0909,-0.0,0.1212,0.2222,0.2725,0.3128,0.383,0.4632,0.5236,0.5937,0.6639,0.7338,0.8035,0.873,0.9324,1.0015,1.0511,1.0708,1.1002,1.1492,1.2273,1.2759,1.334,1.3919,1.4298,1.4873,1.5547,1.6305,1.6958,1.7707,1.8303,1.8996,2.0093,2.0674,2.1527,2.2382,2.2915,2.3347,2.3746,2.3809,2.4097,2.4332,2.4637,2.4815,2.5216,2.5216,2.5314,2.5509,2.5897,2.639,2.687,2.7347,2.782,2.8653,2.9312,2.9863,3.0318,3.0487,3.0769,3.1038,3.1217,3.1407,3.1584,3.1661,3.1661,3.1661,3.1661,3.1761,3.1849,3.1937,3.2113,3.2288,3.2636,3.2896,3.3227,3.3654,3.416,3.4481,3.4895,3.5236,3.5562,3.5898,3.6152,3.6312,3.6549,3.6693,3.6929,3.6993,3.6978,3.6978,3.6993,3.707,3.7148,3.7457,3.761,3.7777,3.7915,3.8202,3.8681,3.9247,3.9683,4.0191,4.1192,4.2034,-0.6637,-0.6037,-0.5634,-0.5035,-0.4433,-0.353,-0.2928,-0.2625,-0.2223,-0.1516,-0.0606,0.0202,0.1212,0.2122,0.2625,0.3128,0.3432,0.4433,0.5133,0.5734,0.6437,0.7135,0.7836,0.863,0.9324,0.9821,1.0605,1.1194,1.159,1.1785,1.2078,1.2856,1.3244,1.3721,1.4202,1.4777,1.5445,1.6204,1.6857,1.752,1.8179,1.855,1.9523,2.0413,2.1122,2.1782,2.2915,2.3347,2.3655,2.3935,2.4223,2.4421,2.4627,2.503,2.5216,2.5596,2.5781,2.6051,2.6274,2.6582,2.687,2.7251,2.782,2.8384,2.9312,2.9874,3.0148,3.0487,3.0758,3.0937,3.1205,3.1306,3.1484,3.1661,3.1661,3.1661,3.1749,3.1749,3.1761,3.1937,3.2113,3.2376,3.2636,3.3056,3.3313,3.3471,3.3894,3.441,3.4825,3.5154,3.548,3.5817,3.6072,3.6325,3.6484,3.6628,3.685,3.6915,3.6993,3.6978,3.6978,3.6978,3.707,3.7226,3.7457,3.7625,3.7777,3.7991,3.8246,3.8638,3.9102,3.9741,4.0423,4.1395,4.2005,-0.6039,-0.524,-0.4935,-0.4433,-0.3627,-0.3127,-0.2625,-0.2224,-0.1819,-0.101,0.0101,0.1313,0.1921,0.2324,0.2929,0.343,0.3932,0.4533,0.5434,0.6234,0.6936,0.7537,0.8333,0.9126,0.9817,1.0413,1.1096,1.1878,1.2467,1.2662,1.2759,1.2856,1.3624,1.4106,1.4682,1.535,1.6109,1.6857,1.7326,1.7893,1.845,1.8976,1.9662,2.0774,2.1386,2.2056,2.3285,2.3646,2.3945,2.4332,2.4538,2.4735,2.503,2.5547,2.583,2.5984,2.631,2.6693,2.7125,2.7262,2.7357,2.7726,2.829,2.9035,2.9772,3.0045,3.0318,3.0668,3.0937,3.1205,3.1395,3.1484,3.1661,3.1661,3.1661,3.1661,3.1749,3.1749,3.1849,3.2038,3.23,3.2636,3.297,3.3313,3.3654,3.381,3.4314,3.4825,3.5154,3.548,3.5737,3.5978,3.6232,3.6484,3.6642,3.6786,3.6915,3.6993,3.6978,3.6978,3.6978,3.7056,3.7134,3.7303,3.7534,3.7701,3.7853,3.8066,3.8275,3.8507,3.8971,3.9683,4.0481,4.1395,4.1874,-0.5536,-0.4935,-0.4135,-0.363,-0.333,-0.2726,-0.2325,-0.2123,-0.1718,-0.0606,0.101,0.1819,0.2325,0.2625,0.3228,0.383,0.4533,0.5238,0.6037,0.6836,0.7437,0.8137,0.8931,0.9624,1.0413,1.0998,1.1683,1.2268,1.2759,1.334,1.3624,1.3913,1.4196,1.4682,1.5255,1.6015,1.677,1.7232,1.7606,1.8179,1.8643,1.9244,1.9926,2.1249,2.1518,2.2399,2.3403,2.3818,2.4134,2.4529,2.4843,2.5128,2.5411,2.5936,2.6324,2.6572,2.6778,2.7253,2.7998,2.8134,2.8344,2.8581,2.9139,2.9691,3.0045,3.0306,3.0668,3.0937,3.1217,3.1395,3.1572,3.1661,3.1661,3.1661,3.1661,3.1661,3.1761,3.1837,3.2013,3.2213,3.2562,3.2995,3.3326,3.3654,3.3894,3.4147,3.4647,3.5141,3.548,3.5737,3.5978,3.6152,3.6405,3.6549,3.6707,3.685,3.6978,3.6978,3.6978,3.6978,3.6978,3.7134,3.7303,3.7457,3.761,3.7839,3.7991,3.8127,3.8275,3.8405,3.8957,3.9712,4.0554,4.1439,4.1802,-0.5035,-0.4433,-0.353,-0.313,-0.3029,-0.2425,-0.2022,-0.1718,-0.1313,-0.0,0.1819,0.2122,0.2526,0.3027,0.363,0.4332,0.5035,0.5739,0.6639,0.7338,0.8035,0.8733,0.9525,1.0314,1.0904,1.1585,1.2268,1.2856,1.334,1.401,1.4394,1.4586,1.4771,1.5255,1.573,1.6588,1.7246,1.7613,1.7986,1.855,1.902,1.9604,2.0298,2.1484,2.1891,2.2584,2.3511,2.4035,2.4341,2.4726,2.5118,2.5509,2.5897,2.6294,2.6784,2.7136,2.7484,2.7829,2.8466,2.8987,2.9101,2.9335,2.968,3.0045,3.0306,3.0566,3.1026,3.1205,3.1383,3.1484,3.1661,3.1661,3.1661,3.1661,3.1661,3.1761,3.1849,3.1937,3.2201,3.2475,3.2822,3.3167,3.3654,3.3979,3.4397,3.4647,3.4895,3.5399,3.5723,3.5992,3.6166,3.6325,3.6563,3.6628,3.6772,3.6915,3.6978,3.6978,3.6978,3.6978,3.7056,3.7226,3.738,3.7534,3.7687,3.7915,3.8052,3.8202,3.8202,3.8217,3.9,3.9915,4.0684,4.1512,4.186,-0.4535,-0.3932,-0.3128,-0.2826,-0.2725,-0.2324,-0.1718,-0.0808,-0.0202,0.0808,0.2021,0.2323,0.2726,0.333,0.4034,0.4736,0.5534,0.6237,0.7036,0.7935,0.8531,0.9126,0.9916,1.0708,1.1389,1.1975,1.2657,1.3431,1.4106,1.4394,1.4873,1.5445,1.5635,1.5825,1.592,1.6763,1.752,1.8079,1.855,1.9012,1.9571,2.0036,2.0711,2.1698,2.2262,2.2847,2.3744,2.4332,2.4637,2.502,2.5401,2.58,2.6187,2.6774,2.7262,2.7441,2.8186,2.8653,2.8861,2.922,2.9588,2.9874,3.0136,3.0306,3.0668,3.0937,3.1217,3.1395,3.1484,3.1661,3.1661,3.1661,3.1661,3.1661,3.1661,3.1761,3.1862,3.2038,3.23,3.2636,3.2982,3.3326,3.3894,3.4397,3.4825,3.5154,3.5236,3.5562,3.5898,3.6232,3.6325,3.6484,3.6642,3.6772,3.6836,3.6915,3.6978,3.6978,3.6978,3.6993,3.707,3.7226,3.7457,3.761,3.7839,3.8066,3.8127,3.8202,3.8202,3.8318,3.9305,4.0205,4.0945,4.1541,4.1903,-0.4137,-0.343,-0.2927,-0.2624,-0.2324,-0.192,-0.1212,-0.0202,0.0909,0.1718,0.2224,0.2726,0.3229,0.3833,0.4435,0.5236,0.6134,0.6736,0.7537,0.8528,0.9126,0.9916,1.0605,1.1194,1.1878,1.2565,1.3141,1.3721,1.4298,1.4777,1.5255,1.5832,1.6393,1.677,1.6958,1.7434,1.79,1.8458,1.8827,1.9196,1.9928,2.0335,2.0919,2.2209,2.2555,2.3135,2.4159,2.4627,2.4932,2.5314,2.579,2.6284,2.6678,2.7357,2.7631,2.8102,2.8757,2.9068,2.953,3.008,3.0216,3.0408,3.0499,3.0668,3.1026,3.1116,3.1294,3.1484,3.1661,3.1661,3.1661,3.1661,3.1661,3.1661,3.1761,3.1849,3.195,3.2213,3.2475,3.2896,3.3227,3.3823,3.4327,3.4729,3.5154,3.548,3.5642,3.5817,3.6072,3.6391,3.6563,3.6628,3.6772,3.6915,3.6978,3.6978,3.6978,3.6978,3.707,3.707,3.7148,3.7303,3.7534,3.7777,3.7915,3.8142,3.8127,3.8202,3.8202,3.8536,3.9421,4.0017,4.0481,4.1236,4.1976,-0.3732,-0.3029,-0.2725,-0.2222,-0.1718,-0.1617,-0.0808,0.0606,0.1718,0.2325,0.2526,0.3029,0.3632,0.4234,0.4834,0.5636,0.6637,0.7235,0.8035,0.9023,0.962,1.031,1.0998,1.178,1.237,1.305,1.3624,1.4202,1.4688,1.5255,1.592,1.6487,1.7052,1.752,1.78,1.8087,1.828,1.8827,1.9096,1.9646,2.0201,2.0668,2.1313,2.2227,2.2835,2.3404,2.4287,2.4932,2.5323,2.5703,2.6187,2.6678,2.7251,2.7726,2.8102,2.8664,2.9139,2.953,3.0171,3.0432,3.0578,3.0847,3.0847,3.1026,3.1294,3.1395,3.1484,3.1661,3.1661,3.1661,3.1661,3.1661,3.1661,3.1661,3.1761,3.1849,3.2125,3.2388,3.2723,3.3142,3.3556,3.416,3.4743,3.5072,3.5413,3.5737,3.6058,3.6152,3.6232,3.6549,3.68,3.685,3.685,3.6915,3.6978,3.6978,3.6978,3.6978,3.707,3.7148,3.7303,3.7457,3.7701,3.7853,3.7991,3.8142,3.8202,3.8202,3.8202,3.8594,3.9349,3.9799,4.0046,4.0945,4.2005,-0.3228,-0.2724,-0.2425,-0.1617,-0.0909,-0.1111,-0.0101,0.1617,0.2021,0.2425,0.2826,0.313,0.3934,0.4834,0.5334,0.6234,0.7238,0.7736,0.863,0.9525,1.0113,1.0806,1.1492,1.2273,1.2856,1.334,1.3913,1.4586,1.5083,1.5832,1.6487,1.7052,1.7613,1.8087,1.8458,1.8827,1.892,1.9279,1.9654,2.011,2.0572,2.105,2.1751,2.2489,2.3082,2.3669,2.4541,2.5216,2.5606,2.6091,2.6668,2.7156,2.7631,2.8279,2.856,2.9035,2.9508,3.0057,3.042,3.0578,3.0847,3.1128,3.1217,3.1306,3.1395,3.1484,3.1661,3.1661,3.1661,3.1661,3.1661,3.1661,3.1661,3.1761,3.1849,3.2038,3.23,3.2649,3.297,3.33,3.3725,3.4314,3.4895,3.5318,3.5737,3.5965,3.6204,3.6457,3.6549,3.6615,3.685,3.6915,3.6993,3.6978,3.6978,3.6993,3.707,3.707,3.7226,3.7303,3.7457,3.761,3.7777,3.8005,3.8066,3.8217,3.8202,3.8202,3.8202,3.871,3.9204,3.9726,4.0031,4.1163,4.2092,-0.2927,-0.2425,-0.2325,-0.1516,-0.0202,0.0707,0.1516,0.2022,0.2223,0.2624,0.313,0.3734,0.4535,0.5336,0.5732,0.6634,0.7633,0.8435,0.9126,0.9916,1.0703,1.1394,1.198,1.2662,1.3244,1.3817,1.4394,1.4975,1.5642,1.6298,1.6864,1.7326,1.8079,1.855,1.9012,1.9471,1.9646,1.992,2.0292,2.0572,2.0934,2.1302,2.2071,2.2787,2.3196,2.3955,2.4899,2.5489,2.5887,2.6572,2.6965,2.7452,2.8384,2.8664,2.8943,2.96,3.0057,3.0499,3.0668,3.0949,3.1128,3.1306,3.1484,3.1572,3.1572,3.1661,3.1661,3.1661,3.1661,3.1661,3.1661,3.1661,3.1761,3.1849,3.1937,3.2213,3.2475,3.2822,3.3142,3.3641,3.4063,3.4538,3.5209,3.5656,3.5992,3.6204,3.635,3.6601,3.6772,3.685,3.685,3.6993,3.6978,3.6978,3.6993,3.707,3.7148,3.724,3.7303,3.7457,3.7625,3.7853,3.7929,3.8066,3.8142,3.8217,3.8202,3.8202,3.8202,3.8405,3.887,3.9465,4.0162,4.1178,4.2005,-0.2726,-0.2224,-0.192,-0.0808,0.0707,0.1718,0.2224,0.2425,0.2624,0.3027,0.3531,0.4236,0.5035,0.5837,0.6132,0.6927,0.8333,0.8931,0.9723,1.0605,1.1194,1.1883,1.2467,1.3147,1.3721,1.4298,1.4873,1.5356,1.6015,1.6763,1.7326,1.7986,1.8643,1.9012,1.9471,2.0019,2.0382,2.0564,2.0843,2.1024,2.1302,2.1598,2.2418,2.3122,2.3467,2.4345,2.5286,2.5781,2.638,2.7061,2.7357,2.7914,2.8757,2.9046,2.9497,3.0057,3.0408,3.0668,3.0937,3.1128,3.1306,3.1484,3.1584,3.1661,3.1661,3.1661,3.1661,3.1661,3.1661,3.1661,3.1661,3.1749,3.1761,3.1849,3.2025,3.23,3.2636,3.2982,3.3484,3.3979,3.4468,3.4937,3.544,3.5817,3.6166,3.6377,3.6522,3.6693,3.685,3.6915,3.6915,3.6978,3.6978,3.6978,3.707,3.7148,3.7226,3.7394,3.7548,3.7701,3.7853,3.8005,3.8066,3.8142,3.8202,3.8202,3.8202,3.8202,3.8231,3.842,3.8696,3.9349,4.0031,4.0858,4.1555,-0.2526,-0.2022,-0.1111,0.0202,0.1617,0.2022,0.2425,0.2826,0.313,0.3533,0.4133,0.4636,0.5434,0.6337,0.6528,0.7422,0.873,0.9735,1.0422,1.1194,1.178,1.237,1.3044,1.3817,1.4202,1.4675,1.5159,1.5825,1.6197,1.7044,1.7986,1.8827,1.9004,1.9371,2.0019,2.0382,2.0835,2.1195,2.1293,2.1482,2.1571,2.1931,2.246,2.3326,2.3963,2.4617,2.5555,2.6294,2.6784,2.7347,2.782,2.8373,2.8943,2.9588,3.0136,3.0408,3.0668,3.0847,3.1128,3.1306,3.1484,3.1572,3.1661,3.1661,3.1661,3.1661,3.1661,3.1661,3.1661,3.1661,3.1661,3.1749,3.1749,3.1937,3.2125,3.2475,3.2822,3.324,3.3907,3.4397,3.4895,3.5277,3.5548,3.591,3.6432,3.6549,3.6679,3.685,3.6915,3.6978,3.7056,3.7056,3.7056,3.7148,3.7303,3.7394,3.7457,3.7625,3.7792,3.7853,3.8005,3.8066,3.8202,3.8202,3.8202,3.8202,3.8202,3.8202,3.8217,3.8289,3.8667,3.9291,3.9973,4.0655,4.1323,-0.2122,-0.1617,-0.0202,0.101,0.2021,0.2221,0.2624,0.313,0.3835,0.4336,0.4634,0.5233,0.6034,0.6936,0.7126,0.7922,0.9327,1.0538,1.1128,1.16,1.2175,1.2851,1.3329,1.41,1.4586,1.5159,1.573,1.6298,1.6951,1.78,1.8473,1.9252,1.9496,2.0019,2.0382,2.0753,2.1293,2.1651,2.183,2.1919,2.2008,2.2119,2.255,2.3509,2.4326,2.4987,2.5899,2.6678,2.7156,2.7536,2.829,2.8943,2.9611,3.0148,3.0408,3.0668,3.0949,3.1128,3.1306,3.1496,3.1572,3.1661,3.1661,3.1661,3.1661,3.1661,3.1661,3.1661,3.1661,3.1661,3.1749,3.1749,3.1837,3.2025,3.2313,3.2649,3.2995,3.3654,3.4314,3.4812,3.5236,3.5521,3.5695,3.6056,3.6563,3.6814,3.685,3.6993,3.707,3.7134,3.7226,3.7226,3.7226,3.7303,3.7471,3.7548,3.761,3.7777,3.7868,3.8005,3.8066,3.8127,3.8202,3.8202,3.8202,3.8202,3.8202,3.8202,3.8231,3.826,3.8449,3.9,3.9668,4.0365,4.1091,-0.1718,-0.0707,0.0808,0.1718,0.2223,0.2624,0.3027,0.3632,0.4236,0.4937,0.5434,0.5834,0.6537,0.7537,0.7928,0.8524,0.9924,1.1236,1.1717,1.1986,1.2565,1.3238,1.3817,1.4388,1.4968,1.5547,1.6298,1.6951,1.7692,1.8357,1.8944,1.9812,2.0326,2.0482,2.0753,2.1293,2.1651,2.1919,2.2087,2.2274,2.2362,2.2536,2.3066,2.3987,2.4653,2.5327,2.6364,2.7167,2.7536,2.8102,2.8943,2.9324,2.9886,3.0318,3.0589,3.0859,3.1038,3.1306,3.1496,3.1584,3.1661,3.1661,3.1661,3.1661,3.1661,3.1661,3.1661,3.1661,3.1661,3.1661,3.1761,3.1761,3.1901,3.2077,3.2624,3.3068,3.3484,3.4076,3.4647,3.5059,3.548,3.579,3.6004,3.6336,3.6735,3.6878,3.6978,3.7056,3.7134,3.7303,3.738,3.7457,3.7457,3.7534,3.7701,3.7777,3.7839,3.7929,3.8005,3.8066,3.8127,3.8202,3.8202,3.8202,3.8202,3.8202,3.8202,3.8202,3.8202,3.8231,3.8391,3.8638,3.9363,4.0118,4.0858,-0.1111,0.0404,0.1617,0.2224,0.2426,0.2928,0.3531,0.4133,0.4734,0.5534,0.6437,0.6537,0.7238,0.8035,0.8832,0.9525,1.0422,1.1526,1.2103,1.2473,1.305,1.3727,1.4304,1.4879,1.554,1.6109,1.6763,1.7598,1.8334,1.8812,1.9487,2.0443,2.0698,2.0753,2.1293,2.1651,2.1919,2.2176,2.2441,2.2618,2.2715,2.292,2.3512,2.4212,2.4861,2.5734,2.6763,2.7547,2.8008,2.8571,2.9312,2.9783,3.0159,3.0499,3.0769,3.105,3.1217,3.1484,3.1572,3.1673,3.1661,3.1661,3.1661,3.1661,3.1661,3.1661,3.1661,3.1761,3.1761,3.1761,3.1761,3.1837,3.1989,3.2326,3.2884,3.3496,3.3992,3.4481,3.4908,3.5399,3.5723,3.5965,3.6204,3.6549,3.6786,3.6915,3.7056,3.7134,3.7303,3.7457,3.761,3.7687,3.7763,3.7853,3.7929,3.7915,3.7991,3.8066,3.8142,3.8217,3.8202,3.8202,3.8202,3.8202,3.8202,3.8202,3.8202,3.8202,3.8202,3.8202,3.8289,3.8536,3.9276,4.0017,4.0684,0.0101,0.1921,0.2123,0.2526,0.303,0.313,0.3731,0.4634,0.5236,0.6037,0.6936,0.7537,0.8134,0.8726,0.9229,0.992,1.0909,1.1908,1.2494,1.277,1.3534,1.4208,1.4783,1.554,1.6197,1.6763,1.7326,1.7885,1.8619,1.918,1.9745,2.04,2.114,2.1302,2.1562,2.1909,2.2185,2.253,2.2715,2.2891,2.3154,2.3389,2.3761,2.4526,2.5351,2.629,2.7181,2.7893,2.829,2.885,2.9497,3.0057,3.042,3.0679,3.096,3.1229,3.1395,3.1572,3.1661,3.1661,3.1661,3.1661,3.1661,3.1661,3.1661,3.1661,3.1761,3.1761,3.1761,3.1862,3.195,3.2038,3.2189,3.2822,3.3364,3.3836,3.4314,3.4743,3.5236,3.5642,3.5978,3.6177,3.6294,3.6638,3.6929,3.707,3.7148,3.7303,3.738,3.761,3.7777,3.7929,3.7991,3.8066,3.8142,3.8142,3.8127,3.8202,3.8202,3.8202,3.8202,3.8202,3.8202,3.8202,3.8202,3.8202,3.8202,3.8202,3.8202,3.8202,3.8202,3.8478,3.9204,3.9886,4.0539]},{"header":{"parameterUnit":"m.s-1","parameterCategory":1,"la1":31.0,"la2":29.5877,"lo1":-88.7671,"lo2":-86.6584,"dy":0.0162,"dx":0.0185,"nx":115,"ny":88,"refTime":"2023-10-17T06:00:00:Z","depth":0,"parameterNumber":3,"parameterNumberName":"V-component_of_WINDS"},"data":[0.0,0.0,0.0,0.0,0.0,0.0,0.0,0.0,0.0,0.0,0.0,0.0,0.0,0.0,0.0,0.0,0.0,0.0,0.0,0.0,0.0,0.0,0.0,0.0,0.0,0.0,0.0,0.0,0.0,0.0,0.0,0.0,0.0,0.0,0.0,0.0,0.0,0.0,0.0,0.0,0.0,0.0,0.0,0.0,0.0,0.0,0.0,0.0,0.0,0.0,0.0,0.0,0.0,0.0,0.0,0.0,0.0,0.0,0.0,0.0,0.0,0.0,0.0,0.0,0.0,0.0,0.0,0.0,0.0,0.0,0.0,0.0,0.0,0.0,0.0,0.0,0.0,0.0,0.0,0.0,0.0,0.0,0.0,0.0,0.0,0.0,0.0,0.0,0.0,0.0,0.0,0.0,0.0,0.0,0.0,0.0,0.0,0.0,0.0,0.0,0.0,0.0,0.0,0.0,0.0,0.0,0.0,0.0,0.0,0.0,0.0,0.0,0.0,0.0,0.0,0.0,0.0,0.0,0.0,0.0,0.0,0.0,0.0,0.0,0.0,0.0,0.0,0.0,0.0,0.0,0.0,0.0,0.0,0.0,0.0,0.0,0.0,0.0,0.0,0.0,0.0,0.0,0.0,0.0,0.0,0.0,0.0,0.0,0.0,0.0,0.0,0.0,0.0,0.0,0.0,0.0,0.0,0.0,0.0,0.0,0.0,0.0,0.0,0.0,0.0,0.0,0.0,0.0,0.0,0.0,0.0,0.0,0.0,0.0,0.0,0.0,0.0,0.0,0.0,0.0,0.0,0.0,0.0,0.0,0.0,0.0,0.0,0.0,0.0,0.0,0.0,0.0,0.0,0.0,0.0,0.0,0.0,0.0,0.0,0.0,0.0,0.0,0.0,0.0,0.0,0.0,0.0,0.0,0.0,0.0,0.0,0.0,0.0,0.0,0.0,0.0,0.0,0.0,0.0,0.0,0.0,0.0,0.0,0.0,0.0,0.0,0.0,0.0,0.0,0.0,0.0,0.0,0.0,0.0,0.0,0.0,0.0,0.0,0.0,0.0,0.0,0.0,0.0,0.0,0.0,0.0,0.0,0.0,0.0,0.0,0.0,0.0,0.0,0.0,0.0,0.0,0.0,0.0,0.0,0.0,0.0,0.0,0.0,0.0,0.0,0.0,0.0,0.0,0.0,0.0,0.0,0.0,0.0,0.0,0.0,0.0,0.0,0.0,0.0,0.0,0.0,0.0,0.0,0.0,0.0,0.0,0.0,0.0,0.0,0.0,0.0,0.0,0.0,0.0,0.0,0.0,0.0,0.0,0.0,0.0,0.0,0.0,0.0,0.0,0.0,0.0,0.0,0.0,0.0,0.0,0.0,0.0,0.0,0.0,0.0,0.0,0.0,0.0,0.0,0.0,0.0,0.0,0.0,0.0,0.0,0.0,0.0,0.0,0.0,0.0,0.0,0.0,0.0,0.0,0.0,0.0,0.0,0.0,0.0,0.0,0.0,0.0,0.0,0.0,0.0,0.0,0.0,0.0,0.0,0.0,0.0,0.0,0.0,0.0,0.0,0.0,0.0,0.0,0.0,0.0,0.0,0.0,0.0,0.0,0.0,0.0,0.0,0.0,0.0,0.0,0.0,0.0,0.0,0.0,0.0,0.0,0.0,0.0,0.0,0.0,0.0,0.0,0.0,0.0,0.0,0.0,0.0,0.0,0.0,0.0,0.0,0.0,0.0,0.0,0.0,0.0,0.0,0.0,0.0,0.0,0.0,0.0,0.0,0.0,0.0,0.0,0.0,0.0,0.0,0.0,0.0,0.0,0.0,0.0,0.0,0.0,0.0,0.0,0.0,0.0,0.0,0.0,0.0,0.0,0.0,0.0,0.0,0.0,0.0,0.0,0.0,0.0,0.0,0.0,0.0,0.0,0.0,0.0,0.0,0.0,0.0,0.0,0.0,0.0,0.0,0.0,0.0,0.0,0.0,0.0,0.0,0.0,0.0,0.0,0.0,0.0,0.0,0.0,0.0,0.0,0.0,0.0,0.0,0.0,0.0,0.0,0.0,0.0,0.0,0.0,0.0,0.0,0.0,0.0,0.0,0.0,0.0,0.0,0.0,0.0,0.0,0.0,0.0,0.0,0.0,0.0,0.0,0.0,0.0,0.0,0.0,0.0,0.0,0.0,0.0,0.0,0.0,0.0,0.0,0.0,0.0,0.0,0.0,0.0,0.0,0.0,0.0,0.0,0.0,0.0,0.0,0.0,0.0,0.0,0.0,0.0,0.0,0.0,0.0,0.0,0.0,0.0,0.0,0.0,0.0,0.0,0.0,0.0,0.0,0.0,0.0,0.0,0.0,0.0,0.0,0.0,0.0,0.0,0.0,0.0,0.0,0.0,0.0,0.0,0.0,0.0,0.0,0.0,0.0,0.0,0.0,0.0,0.0,0.0,0.0,0.0,0.0,0.0,0.0,0.0,0.0,0.0,0.0,0.0,0.0,0.0,0.0,0.0,0.0,0.0,0.0,0.0,0.0,0.0,0.0,0.0,0.0,0.0,0.0,0.0,0.0,0.0,0.0,0.0,0.0,0.0,0.0,0.0,0.0,0.0,0.0,0.0,0.0,0.0,0.0,0.0,0.0,0.0,0.0,0.0,0.0,0.0,0.0,0.0,0.0,0.0,0.0,0.0,0.0,0.0,0.0,0.0,0.0,0.0,0.0,0.0,0.0,0.0,0.0,0.0,0.0,0.0,0.0,0.0,0.0,0.0,0.0,0.0,0.0,0.0,0.0,0.0,0.0,0.0,0.0,0.0,0.0,0.0,0.0,0.0,0.0,0.0,0.0,0.0,0.0,0.0,0.0,0.0,0.0,0.0,0.0,0.0,0.0,0.0,0.0,0.0,0.0,0.0,0.0,0.0,0.0,0.0,0.0,0.0,0.0,0.0,0.0,0.0,0.0,0.0,0.0,0.0,0.0,0.0,0.0,0.0,0.0,0.0,0.0,0.0,0.0,0.0,0.0,0.0,0.0,0.0,0.0,0.0,0.0,0.0,0.0,0.0,0.0,0.0,0.0,0.0,0.0,0.0,0.0,0.0,0.0,0.0,0.0,0.0,0.0,0.0,0.0,0.0,0.0,0.0,0.0,0.0,0.0,0.0,0.0,0.0,0.0,0.0,0.0,0.0,0.0,0.0,0.0,0.0,0.0,0.0,0.0,0.0,0.0,0.0,0.0,0.0,0.0,0.0,0.0,0.0,0.0,0.0,0.0,0.0,0.0,0.0,0.0,0.0,0.0,0.0,0.0,0.0,0.0,0.0,0.0,0.0,0.0,0.0,0.0,0.0,0.0,0.0,0.0,0.0,0.0,0.0,0.0,0.0,0.0,0.0,0.0,0.0,0.0,0.0,0.0,0.0,0.0,0.0,0.0,0.0,0.0,0.0,0.0,0.0,0.0,0.0,0.0,0.0,0.0,0.0,0.0,0.0,0.0,0.0,0.0,0.0,0.0,0.0,0.0,0.0,0.0,0.0,0.0,0.0,0.0,0.0,0.0,0.0,0.0,0.0,0.0,0.0,0.0,0.0,0.0,0.0,0.0,0.0,0.0,0.0,0.0,0.0,0.0,0.0,0.0,0.0,0.0,0.0,0.0,0.0,0.0,0.0,0.0,0.0,0.0,0.0,0.0,0.0,0.0,0.0,0.0,0.0,0.0,0.0,0.0,0.0,0.0,0.0,0.0,0.0,0.0,0.0,0.0,0.0,0.0,0.0,0.0,0.0,0.0,0.0,0.0,0.0,0.0,0.0,0.0,0.0,0.0,0.0,0.0,0.0,0.0,0.0,0.0,0.0,0.0,0.0,0.0,0.0,0.0,0.0,0.0,0.0,0.0,0.0,0.0,0.0,0.0,0.0,0.0,0.0,0.0,0.0,0.0,0.0,0.0,0.0,0.0,0.0,0.0,0.0,0.0,0.0,0.0,0.0,0.0,0.0,0.0,0.0,0.0,0.0,0.0,0.0,0.0,0.0,0.0,0.0,0.0,0.0,0.0,0.0,0.0,0.0,0.0,0.0,0.0,0.0,0.0,0.0,0.0,0.0,0.0,0.0,0.0,0.0,0.0,0.0,0.0,0.0,0.0,0.0,0.0,0.0,0.0,0.0,0.0,0.0,0.0,0.0,0.0,0.0,0.0,0.0,0.0,0.0,0.0,0.0,0.0,0.0,0.0,0.0,0.0,0.0,0.0,0.0,0.0,0.0,0.0,0.0,0.0,0.0,-2.0388,0.0,0.0,0.0,0.0,0.0,0.0,0.0,0.0,0.0,0.0,0.0,0.0,0.0,0.0,0.0,0.0,0.0,0.0,0.0,0.0,0.0,0.0,0.0,0.0,0.0,0.0,0.0,0.0,0.0,0.0,0.0,0.0,0.0,0.0,0.0,0.0,0.0,0.0,0.0,0.0,0.0,0.0,0.0,0.0,0.0,0.0,0.0,0.0,0.0,0.0,0.0,0.0,0.0,0.0,0.0,0.0,0.0,0.0,0.0,0.0,0.0,0.0,0.0,0.0,0.0,0.0,0.0,0.0,0.0,0.0,0.0,0.0,0.0,0.0,0.0,0.0,0.0,0.0,0.0,0.0,0.0,0.0,0.0,0.0,0.0,0.0,0.0,0.0,0.0,0.0,0.0,0.0,0.0,0.0,0.0,0.0,0.0,0.0,0.0,0.0,0.0,0.0,0.0,0.0,0.0,0.0,0.0,0.0,0.0,0.0,-2.0379,-2.0379,-2.0379,-2.039,-2.0383,0.0,0.0,0.0,0.0,0.0,0.0,0.0,0.0,0.0,0.0,0.0,0.0,0.0,0.0,0.0,0.0,0.0,0.0,0.0,0.0,0.0,0.0,0.0,0.0,0.0,0.0,0.0,0.0,0.0,0.0,0.0,0.0,0.0,0.0,0.0,0.0,0.0,0.0,0.0,0.0,0.0,0.0,0.0,0.0,0.0,0.0,0.0,0.0,0.0,0.0,0.0,0.0,0.0,0.0,0.0,0.0,0.0,0.0,0.0,0.0,0.0,0.0,0.0,0.0,0.0,0.0,0.0,0.0,0.0,0.0,0.0,0.0,0.0,0.0,0.0,0.0,0.0,0.0,0.0,0.0,0.0,0.0,0.0,0.0,0.0,0.0,0.0,0.0,0.0,0.0,0.0,0.0,0.0,0.0,0.0,0.0,0.0,0.0,0.0,0.0,0.0,0.0,0.0,0.0,0.0,0.0,0.0,0.0,0.0,0.0,0.0,0.0,-2.0392,-2.0385,-2.039,0.0,0.0,0.0,0.0,0.0,0.0,0.0,0.0,0.0,0.0,0.0,0.0,0.0,0.0,0.0,0.0,0.0,0.0,0.0,0.0,0.0,0.0,0.0,0.0,0.0,0.0,0.0,0.0,0.0,0.0,0.0,0.0,0.0,0.0,0.0,0.0,0.0,0.0,0.0,0.0,0.0,0.0,0.0,0.0,0.0,0.0,0.0,0.0,0.0,0.0,0.0,0.0,0.0,0.0,0.0,0.0,0.0,0.0,0.0,0.0,0.0,0.0,0.0,0.0,0.0,0.0,0.0,0.0,0.0,0.0,0.0,0.0,0.0,0.0,0.0,0.0,0.0,0.0,0.0,0.0,0.0,0.0,0.0,0.0,0.0,0.0,0.0,0.0,0.0,0.0,0.0,0.0,0.0,0.0,0.0,0.0,0.0,0.0,0.0,0.0,0.0,0.0,0.0,0.0,0.0,0.0,0.0,0.0,0.0,0.0,-2.0379,-2.0379,-2.0379,0.0,-2.0386,0.0,0.0,0.0,0.0,0.0,0.0,0.0,0.0,0.0,0.0,0.0,0.0,0.0,0.0,0.0,0.0,0.0,0.0,0.0,0.0,0.0,0.0,0.0,0.0,0.0,0.0,0.0,0.0,0.0,0.0,0.0,0.0,0.0,0.0,0.0,0.0,0.0,0.0,0.0,0.0,0.0,0.0,0.0,0.0,0.0,0.0,0.0,0.0,0.0,0.0,0.0,0.0,0.0,0.0,0.0,0.0,0.0,0.0,0.0,0.0,0.0,0.0,0.0,0.0,0.0,0.0,0.0,0.0,0.0,0.0,0.0,0.0,0.0,0.0,0.0,0.0,0.0,0.0,0.0,0.0,0.0,0.0,0.0,0.0,0.0,0.0,0.0,0.0,0.0,0.0,0.0,0.0,0.0,0.0,0.0,0.0,0.0,0.0,0.0,0.0,0.0,0.0,0.0,0.0,0.0,0.0,0.0,0.0,0.0,0.0,-2.0379,-2.0379,-2.0379,-2.0379,0.0,0.0,0.0,0.0,0.0,0.0,0.0,0.0,0.0,0.0,0.0,0.0,0.0,0.0,0.0,0.0,0.0,0.0,0.0,0.0,0.0,0.0,0.0,0.0,0.0,0.0,0.0,0.0,0.0,0.0,0.0,0.0,0.0,0.0,0.0,0.0,0.0,0.0,0.0,0.0,0.0,0.0,0.0,0.0,0.0,0.0,0.0,0.0,0.0,0.0,0.0,0.0,0.0,0.0,0.0,0.0,0.0,0.0,0.0,0.0,0.0,0.0,0.0,0.0,0.0,0.0,0.0,0.0,0.0,0.0,0.0,0.0,0.0,0.0,0.0,0.0,0.0,0.0,0.0,0.0,0.0,0.0,0.0,0.0,0.0,0.0,0.0,0.0,0.0,0.0,0.0,0.0,0.0,0.0,0.0,0.0,0.0,0.0,0.0,0.0,0.0,0.0,0.0,0.0,0.0,0.0,0.0,0.0,0.0,0.0,-2.063,-2.0766,-2.0759,-2.0753,-2.065,-2.0399,0.0,0.0,0.0,0.0,0.0,0.0,0.0,0.0,0.0,0.0,0.0,0.0,0.0,0.0,0.0,0.0,0.0,0.0,0.0,0.0,0.0,0.0,0.0,0.0,0.0,0.0,0.0,0.0,0.0,0.0,0.0,0.0,0.0,0.0,0.0,0.0,0.0,0.0,0.0,0.0,0.0,0.0,0.0,0.0,0.0,0.0,0.0,0.0,0.0,0.0,0.0,0.0,0.0,0.0,0.0,0.0,0.0,0.0,0.0,0.0,0.0,0.0,0.0,0.0,0.0,0.0,0.0,0.0,0.0,0.0,0.0,0.0,0.0,0.0,0.0,0.0,0.0,0.0,0.0,0.0,0.0,0.0,0.0,0.0,0.0,0.0,0.0,0.0,0.0,0.0,0.0,0.0,0.0,0.0,0.0,0.0,0.0,0.0,0.0,0.0,0.0,0.0,0.0,0.0,0.0,0.0,0.0,0.0,-2.0452,-2.1214,-2.1654,-2.1655,-2.1636,-2.1243,0.0,0.0,0.0,0.0,0.0,0.0,0.0,0.0,0.0,0.0,0.0,0.0,0.0,0.0,0.0,0.0,0.0,0.0,0.0,0.0,0.0,0.0,0.0,0.0,0.0,0.0,0.0,0.0,0.0,0.0,0.0,0.0,0.0,0.0,0.0,0.0,0.0,0.0,0.0,0.0,0.0,0.0,0.0,0.0,0.0,0.0,0.0,0.0,0.0,0.0,0.0,0.0,0.0,0.0,0.0,0.0,0.0,0.0,0.0,0.0,0.0,0.0,0.0,0.0,0.0,0.0,0.0,0.0,0.0,0.0,0.0,0.0,0.0,0.0,0.0,0.0,0.0,0.0,0.0,0.0,0.0,0.0,0.0,0.0,0.0,0.0,0.0,0.0,0.0,0.0,0.0,0.0,0.0,0.0,0.0,0.0,0.0,0.0,0.0,0.0,0.0,0.0,0.0,0.0,0.0,0.0,0.0,0.0,0.0,-2.1233,-2.2067,-2.2526,-2.252,-2.2004,-2.1546,0.0,0.0,0.0,0.0,0.0,0.0,0.0,0.0,0.0,0.0,0.0,0.0,0.0,0.0,0.0,0.0,0.0,0.0,0.0,0.0,0.0,0.0,0.0,0.0,0.0,0.0,0.0,0.0,0.0,0.0,0.0,0.0,0.0,0.0,0.0,0.0,0.0,0.0,0.0,0.0,0.0,0.0,0.0,0.0,0.0,0.0,0.0,0.0,0.0,0.0,0.0,0.0,0.0,0.0,0.0,0.0,0.0,0.0,0.0,0.0,0.0,0.0,0.0,0.0,0.0,0.0,0.0,0.0,0.0,0.0,0.0,0.0,0.0,0.0,0.0,0.0,0.0,0.0,0.0,0.0,0.0,0.0,0.0,0.0,0.0,0.0,0.0,0.0,0.0,0.0,0.0,0.0,0.0,0.0,0.0,0.0,0.0,0.0,0.0,0.0,0.0,0.0,0.0,0.0,0.0,0.0,0.0,0.0,0.0,-2.2511,0.0,-2.343,-2.3411,-2.2856,-2.2281,0.0,0.0,0.0,0.0,0.0,0.0,0.0,0.0,0.0,0.0,0.0,0.0,0.0,0.0,0.0,0.0,0.0,0.0,0.0,0.0,0.0,0.0,0.0,0.0,0.0,0.0,0.0,0.0,0.0,0.0,0.0,0.0,0.0,0.0,0.0,0.0,0.0,0.0,0.0,0.0,0.0,0.0,0.0,0.0,0.0,0.0,0.0,0.0,0.0,0.0,0.0,0.0,0.0,0.0,0.0,0.0,0.0,0.0,0.0,0.0,0.0,0.0,0.0,0.0,0.0,0.0,0.0,0.0,0.0,0.0,0.0,0.0,0.0,0.0,0.0,0.0,0.0,0.0,0.0,0.0,0.0,0.0,0.0,0.0,0.0,0.0,0.0,0.0,0.0,0.0,0.0,0.0,0.0,0.0,0.0,0.0,0.0,0.0,0.0,0.0,0.0,0.0,0.0,0.0,0.0,0.0,0.0,0.0,-2.2552,-2.4178,-2.4282,-2.4315,-2.4321,-2.4245,-2.345,0.0,0.0,0.0,0.0,0.0,0.0,0.0,0.0,0.0,0.0,0.0,0.0,0.0,0.0,0.0,0.0,0.0,0.0,0.0,0.0,0.0,0.0,0.0,0.0,0.0,0.0,0.0,0.0,0.0,0.0,0.0,0.0,0.0,0.0,0.0,0.0,0.0,0.0,0.0,0.0,0.0,0.0,0.0,0.0,0.0,0.0,0.0,0.0,0.0,0.0,0.0,0.0,0.0,0.0,0.0,0.0,0.0,0.0,0.0,0.0,0.0,0.0,0.0,0.0,0.0,0.0,0.0,0.0,0.0,0.0,0.0,0.0,0.0,0.0,0.0,0.0,0.0,0.0,0.0,0.0,0.0,0.0,0.0,0.0,0.0,0.0,0.0,0.0,0.0,0.0,0.0,0.0,0.0,0.0,0.0,0.0,0.0,0.0,0.0,0.0,0.0,0.0,0.0,0.0,0.0,0.0,0.0,0.0,0.0,-2.4273,-2.489,-2.5196,-2.5185,-2.461,-2.3778,0.0,0.0,0.0,0.0,0.0,0.0,0.0,0.0,0.0,0.0,0.0,0.0,0.0,0.0,0.0,0.0,0.0,0.0,0.0,0.0,0.0,0.0,0.0,0.0,0.0,0.0,0.0,0.0,0.0,0.0,0.0,0.0,0.0,0.0,0.0,0.0,0.0,0.0,0.0,0.0,0.0,0.0,0.0,0.0,0.0,0.0,0.0,0.0,0.0,0.0,0.0,0.0,0.0,0.0,0.0,0.0,0.0,0.0,0.0,0.0,0.0,0.0,0.0,0.0,0.0,0.0,0.0,0.0,0.0,0.0,0.0,0.0,0.0,0.0,0.0,0.0,0.0,0.0,0.0,0.0,0.0,0.0,0.0,0.0,0.0,0.0,0.0,0.0,0.0,0.0,0.0,0.0,0.0,0.0,0.0,0.0,0.0,0.0,0.0,0.0,0.0,0.0,0.0,0.0,0.0,0.0,0.0,0.0,0.0,-2.4849,-2.5323,-2.5605,-2.5615,-2.5074,-2.4383,-2.3512,0.0,0.0,0.0,0.0,0.0,0.0,0.0,0.0,0.0,0.0,0.0,0.0,0.0,0.0,0.0,0.0,0.0,0.0,0.0,0.0,0.0,0.0,0.0,0.0,0.0,0.0,0.0,0.0,0.0,0.0,0.0,0.0,0.0,0.0,0.0,0.0,0.0,0.0,0.0,0.0,0.0,0.0,0.0,0.0,0.0,0.0,0.0,0.0,0.0,0.0,0.0,0.0,0.0,0.0,0.0,0.0,0.0,0.0,0.0,0.0,0.0,0.0,0.0,0.0,0.0,0.0,0.0,0.0,0.0,0.0,0.0,0.0,0.0,0.0,0.0,0.0,0.0,0.0,0.0,0.0,0.0,0.0,0.0,0.0,0.0,0.0,0.0,0.0,0.0,0.0,0.0,0.0,0.0,0.0,0.0,0.0,0.0,0.0,0.0,0.0,0.0,0.0,0.0,0.0,0.0,0.0,0.0,0.0,-2.5772,-2.5667,-2.5615,-2.561,-2.5595,-2.5171,0.0,0.0,0.0,0.0,0.0,0.0,0.0,0.0,0.0,0.0,0.0,0.0,0.0,0.0,0.0,0.0,0.0,0.0,0.0,0.0,0.0,0.0,0.0,0.0,0.0,0.0,0.0,0.0,0.0,0.0,0.0,0.0,0.0,0.0,0.0,0.0,0.0,0.0,0.0,0.0,0.0,0.0,0.0,0.0,0.0,0.0,0.0,0.0,0.0,0.0,0.0,0.0,0.0,0.0,0.0,0.0,0.0,0.0,0.0,0.0,0.0,0.0,0.0,0.0,0.0,0.0,0.0,0.0,0.0,0.0,0.0,0.0,0.0,0.0,0.0,0.0,0.0,0.0,0.0,0.0,0.0,0.0,0.0,0.0,0.0,0.0,0.0,0.0,0.0,0.0,0.0,0.0,0.0,0.0,0.0,0.0,0.0,0.0,0.0,0.0,0.0,0.0,0.0,0.0,0.0,0.0,0.0,0.0,0.0,-2.6601,-2.6029,-2.5671,-2.5671,-2.5619,-2.5197,0.0,0.0,0.0,0.0,0.0,0.0,0.0,0.0,0.0,0.0,0.0,0.0,0.0,0.0,0.0,0.0,0.0,0.0,0.0,0.0,0.0,0.0,0.0,0.0,0.0,0.0,0.0,0.0,0.0,0.0,0.0,0.0,0.0,0.0,0.0,0.0,0.0,0.0,0.0,0.0,0.0,0.0,0.0,0.0,0.0,0.0,0.0,0.0,0.0,0.0,0.0,0.0,0.0,0.0,0.0,0.0,0.0,0.0,0.0,0.0,0.0,0.0,0.0,0.0,0.0,0.0,0.0,0.0,0.0,0.0,0.0,0.0,0.0,0.0,0.0,0.0,0.0,0.0,0.0,0.0,0.0,0.0,0.0,0.0,0.0,0.0,0.0,0.0,0.0,0.0,0.0,0.0,0.0,0.0,0.0,0.0,0.0,0.0,0.0,0.0,0.0,0.0,0.0,0.0,0.0,0.0,0.0,0.0,-2.6493,-2.7,-2.6883,-2.6624,-2.6256,-2.5855,-2.5386,0.0,0.0,0.0,0.0,0.0,0.0,0.0,0.0,0.0,0.0,0.0,0.0,0.0,0.0,0.0,0.0,0.0,0.0,0.0,0.0,0.0,0.0,0.0,0.0,0.0,0.0,0.0,0.0,0.0,0.0,0.0,0.0,0.0,0.0,0.0,0.0,0.0,0.0,0.0,0.0,0.0,0.0,0.0,0.0,0.0,0.0,0.0,0.0,0.0,0.0,0.0,0.0,0.0,0.0,0.0,0.0,0.0,0.0,0.0,0.0,0.0,0.0,0.0,0.0,0.0,0.0,0.0,0.0,0.0,0.0,0.0,0.0,0.0,0.0,0.0,0.0,0.0,0.0,0.0,0.0,0.0,0.0,0.0,0.0,0.0,0.0,0.0,0.0,0.0,0.0,0.0,0.0,0.0,0.0,0.0,0.0,0.0,0.0,0.0,0.0,0.0,0.0,0.0,0.0,0.0,0.0,0.0,0.0,-2.7025,-2.7142,-2.7906,-2.7962,-2.7267,-2.6334,-2.5749,0.0,0.0,0.0,0.0,0.0,0.0,0.0,0.0,0.0,0.0,0.0,0.0,0.0,0.0,0.0,0.0,0.0,0.0,0.0,0.0,0.0,0.0,0.0,0.0,0.0,0.0,0.0,0.0,0.0,0.0,0.0,0.0,0.0,0.0,0.0,0.0,0.0,0.0,0.0,0.0,0.0,0.0,0.0,0.0,0.0,0.0,0.0,0.0,0.0,0.0,0.0,0.0,0.0,0.0,0.0,0.0,0.0,0.0,0.0,0.0,0.0,0.0,0.0,0.0,0.0,0.0,0.0,0.0,0.0,0.0,0.0,0.0,0.0,0.0,0.0,0.0,0.0,0.0,0.0,0.0,0.0,0.0,0.0,0.0,0.0,0.0,0.0,0.0,0.0,0.0,0.0,0.0,0.0,0.0,0.0,0.0,0.0,0.0,0.0,0.0,0.0,0.0,0.0,0.0,0.0,0.0,0.0,0.0,-2.7344,-2.8008,-2.8203,-2.8511,-2.8967,-2.7514,-2.6365,0.0,0.0,0.0,0.0,0.0,0.0,0.0,0.0,0.0,0.0,0.0,0.0,0.0,0.0,0.0,0.0,0.0,0.0,0.0,0.0,0.0,0.0,0.0,0.0,0.0,0.0,0.0,0.0,0.0,0.0,0.0,0.0,0.0,0.0,0.0,0.0,0.0,0.0,0.0,0.0,0.0,0.0,0.0,0.0,0.0,0.0,0.0,0.0,-2.2278,0.0,0.0,0.0,0.0,0.0,0.0,0.0,0.0,0.0,0.0,0.0,0.0,0.0,0.0,0.0,0.0,0.0,0.0,0.0,0.0,0.0,0.0,0.0,0.0,0.0,0.0,0.0,0.0,0.0,0.0,0.0,0.0,0.0,0.0,0.0,0.0,0.0,0.0,0.0,0.0,0.0,0.0,0.0,0.0,0.0,0.0,0.0,0.0,0.0,0.0,0.0,0.0,0.0,0.0,0.0,0.0,0.0,0.0,0.0,-2.803,-2.8889,-2.9279,-2.9489,-2.9455,-2.8255,-2.7125,0.0,0.0,0.0,0.0,0.0,0.0,0.0,0.0,0.0,0.0,0.0,0.0,0.0,0.0,0.0,0.0,0.0,0.0,0.0,0.0,0.0,0.0,0.0,0.0,0.0,0.0,0.0,0.0,0.0,0.0,0.0,0.0,0.0,0.0,0.0,0.0,0.0,0.0,0.0,0.0,0.0,0.0,0.0,0.0,0.0,0.0,0.0,0.0,0.0,0.0,0.0,0.0,0.0,0.0,0.0,0.0,0.0,0.0,0.0,0.0,0.0,0.0,0.0,0.0,0.0,0.0,0.0,0.0,0.0,0.0,0.0,0.0,0.0,0.0,0.0,0.0,0.0,0.0,0.0,0.0,0.0,0.0,0.0,0.0,0.0,0.0,0.0,0.0,0.0,0.0,0.0,0.0,0.0,0.0,0.0,0.0,0.0,0.0,0.0,0.0,0.0,0.0,0.0,0.0,0.0,0.0,0.0,-2.785,-2.8711,-2.9572,-3.037,-3.0443,-2.9725,-2.872,-2.7862,-2.7128,0.0,0.0,0.0,0.0,0.0,0.0,0.0,0.0,0.0,0.0,0.0,0.0,0.0,0.0,0.0,0.0,0.0,0.0,0.0,0.0,0.0,0.0,0.0,0.0,0.0,0.0,0.0,0.0,0.0,0.0,0.0,0.0,0.0,0.0,0.0,0.0,0.0,0.0,-2.3152,-2.3478,0.0,0.0,0.0,0.0,0.0,0.0,0.0,0.0,-2.3423,0.0,0.0,0.0,0.0,0.0,0.0,0.0,0.0,0.0,0.0,0.0,0.0,0.0,0.0,0.0,0.0,0.0,0.0,0.0,0.0,0.0,0.0,0.0,0.0,0.0,0.0,0.0,0.0,0.0,0.0,0.0,0.0,0.0,0.0,0.0,0.0,0.0,0.0,0.0,0.0,0.0,0.0,0.0,0.0,0.0,0.0,0.0,0.0,0.0,0.0,0.0,0.0,0.0,0.0,0.0,0.0,-2.7005,-2.7867,-2.8686,-2.9506,-3.0364,-3.0729,-3.0552,-2.9043,-2.8126,-2.7929,0.0,0.0,0.0,0.0,0.0,0.0,0.0,0.0,0.0,0.0,0.0,0.0,0.0,0.0,0.0,0.0,0.0,0.0,0.0,0.0,0.0,0.0,0.0,0.0,0.0,0.0,0.0,0.0,0.0,0.0,0.0,0.0,0.0,0.0,0.0,0.0,0.0,0.0,0.0,-2.411,-2.4431,0.0,0.0,0.0,0.0,0.0,0.0,0.0,0.0,-2.3035,0.0,0.0,0.0,0.0,0.0,0.0,0.0,0.0,0.0,0.0,0.0,0.0,0.0,0.0,0.0,0.0,0.0,0.0,0.0,0.0,0.0,0.0,0.0,0.0,0.0,0.0,0.0,0.0,0.0,0.0,0.0,0.0,0.0,0.0,0.0,0.0,0.0,0.0,0.0,0.0,0.0,0.0,0.0,0.0,0.0,0.0,0.0,0.0,0.0,0.0,0.0,0.0,0.0,0.0,0.0,-2.7618,-2.848,-2.9341,-3.0141,-3.059,-3.0798,-3.0774,-2.9537,-2.8637,0.0,0.0,0.0,0.0,0.0,0.0,0.0,0.0,0.0,0.0,0.0,0.0,0.0,0.0,0.0,0.0,0.0,0.0,0.0,0.0,0.0,0.0,0.0,0.0,0.0,0.0,0.0,0.0,0.0,0.0,0.0,0.0,0.0,0.0,0.0,0.0,0.0,0.0,0.0,0.0,-2.505,-2.5203,-2.5463,0.0,0.0,0.0,0.0,0.0,0.0,-2.4457,-2.4143,0.0,0.0,0.0,0.0,0.0,0.0,0.0,0.0,0.0,0.0,0.0,0.0,0.0,0.0,0.0,0.0,0.0,0.0,0.0,0.0,0.0,0.0,0.0,0.0,0.0,0.0,0.0,0.0,0.0,0.0,0.0,0.0,0.0,0.0,0.0,0.0,0.0,0.0,0.0,0.0,0.0,0.0,0.0,0.0,0.0,0.0,0.0,0.0,0.0,0.0,0.0,0.0,0.0,0.0,0.0,-2.8189,-2.9055,-2.9916,-3.0735,-3.0794,-3.0802,-3.0779,-2.9927,-2.9044,0.0,0.0,0.0,0.0,0.0,0.0,0.0,0.0,0.0,0.0,0.0,0.0,0.0,0.0,0.0,0.0,0.0,0.0,0.0,0.0,0.0,0.0,0.0,0.0,0.0,0.0,0.0,0.0,0.0,0.0,0.0,0.0,0.0,0.0,0.0,0.0,0.0,0.0,0.0,0.0,0.0,-2.6,-2.6602,-2.649,0.0,0.0,0.0,0.0,-2.5694,-2.5465,0.0,0.0,0.0,0.0,0.0,0.0,0.0,0.0,0.0,0.0,0.0,0.0,0.0,0.0,0.0,0.0,0.0,0.0,0.0,0.0,0.0,0.0,0.0,0.0,0.0,0.0,0.0,0.0,0.0,0.0,0.0,0.0,0.0,0.0,0.0,0.0,0.0,0.0,0.0,0.0,0.0,0.0,0.0,0.0,0.0,0.0,0.0,0.0,0.0,0.0,0.0,0.0,0.0,0.0,0.0,0.0,-2.8189,-2.9047,-2.9924,-3.0743,-3.0793,-3.0799,-3.0789,-2.9887,-2.9,0.0,0.0,0.0,0.0,0.0,0.0,0.0,0.0,0.0,0.0,0.0,0.0,0.0,0.0,0.0,0.0,0.0,0.0,0.0,0.0,0.0,0.0,0.0,0.0,0.0,0.0,0.0,0.0,0.0,0.0,0.0,0.0,0.0,0.0,0.0,0.0,0.0,0.0,0.0,0.0,0.0,-2.6672,-2.7214,-2.704,-2.6989,0.0,0.0,-2.715,-2.7009,-2.6376,0.0,0.0,0.0,0.0,0.0,0.0,0.0,0.0,0.0,0.0,0.0,0.0,0.0,0.0,0.0,0.0,0.0,0.0,0.0,0.0,0.0,0.0,0.0,0.0,0.0,0.0,0.0,0.0,0.0,0.0,0.0,0.0,0.0,0.0,0.0,0.0,0.0,0.0,0.0,0.0,0.0,0.0,0.0,0.0,0.0,0.0,0.0,0.0,0.0,0.0,0.0,0.0,0.0,0.0,0.0,-2.8072,-2.8919,-2.9757,-3.036,-3.073,-3.0745,-3.0748,-3.073,-3.0354,-2.9698,0.0,0.0,0.0,0.0,0.0,0.0,0.0,0.0,0.0,0.0,0.0,0.0,0.0,0.0,0.0,0.0,0.0,0.0,0.0,0.0,0.0,0.0,0.0,0.0,0.0,0.0,0.0,0.0,0.0,0.0,0.0,0.0,0.0,0.0,0.0,0.0,0.0,0.0,0.0,0.0,0.0,0.0,-2.7271,-2.7405,0.0,0.0,0.0,-2.7348,-2.7206,0.0,0.0,0.0,0.0,0.0,0.0,0.0,0.0,0.0,0.0,0.0,0.0,0.0,0.0,0.0,0.0,0.0,0.0,0.0,0.0,0.0,0.0,0.0,0.0,0.0,0.0,0.0,0.0,0.0,0.0,0.0,0.0,0.0,0.0,0.0,0.0,0.0,0.0,0.0,0.0,0.0,0.0,0.0,0.0,0.0,0.0,0.0,0.0,0.0,0.0,0.0,0.0,0.0,0.0,0.0,0.0,0.0,-2.9497,-3.0294,-3.0703,-3.0703,-3.0691,-3.0704,-3.0697,-3.0664,0.0,0.0,0.0,0.0,0.0,0.0,0.0,0.0,0.0,0.0,0.0,0.0,0.0,0.0,0.0,0.0,0.0,0.0,0.0,0.0,0.0,0.0,0.0,0.0,0.0,0.0,0.0,-2.2906,0.0,0.0,0.0,0.0,0.0,0.0,0.0,0.0,0.0,0.0,0.0,0.0,0.0,0.0,-2.7781,-2.7722,-2.8024,-2.8233,0.0,0.0,-2.7892,-2.7688,-2.7474,-2.7352,0.0,0.0,0.0,0.0,0.0,0.0,0.0,0.0,0.0,0.0,0.0,0.0,0.0,0.0,0.0,0.0,0.0,0.0,0.0,0.0,0.0,0.0,0.0,0.0,0.0,0.0,0.0,0.0,0.0,0.0,0.0,0.0,0.0,0.0,0.0,0.0,0.0,0.0,0.0,0.0,0.0,0.0,0.0,0.0,0.0,0.0,0.0,0.0,0.0,0.0,0.0,0.0,0.0,0.0,0.0,-2.9497,-3.0294,-3.0722,-3.0703,-3.0711,-3.0704,-3.0698,-3.0653,-3.0199,0.0,0.0,0.0,0.0,0.0,0.0,0.0,0.0,0.0,0.0,0.0,0.0,0.0,0.0,0.0,0.0,0.0,0.0,0.0,0.0,0.0,0.0,0.0,0.0,0.0,0.0,0.0,0.0,0.0,0.0,0.0,0.0,0.0,0.0,0.0,0.0,0.0,0.0,0.0,0.0,0.0,-2.8732,-2.9008,-2.9034,-2.9105,0.0,0.0,-2.9284,-2.9041,-2.8442,-2.7987,-2.7868,0.0,0.0,0.0,0.0,0.0,0.0,0.0,0.0,0.0,0.0,0.0,0.0,0.0,0.0,0.0,0.0,0.0,0.0,0.0,0.0,0.0,0.0,0.0,0.0,0.0,0.0,0.0,0.0,0.0,0.0,0.0,0.0,0.0,0.0,0.0,0.0,0.0,0.0,0.0,0.0,0.0,0.0,0.0,0.0,0.0,0.0,0.0,0.0,0.0,0.0,0.0,0.0,0.0,-2.9383,-3.0244,-3.1028,-3.1428,-3.1467,-3.1961,-3.2225,-3.2175,-3.1631,-3.1178,0.0,0.0,0.0,0.0,0.0,0.0,0.0,0.0,0.0,0.0,0.0,0.0,0.0,0.0,0.0,0.0,0.0,0.0,0.0,0.0,0.0,0.0,0.0,0.0,0.0,0.0,0.0,0.0,-2.4676,-2.4946,-2.5128,0.0,0.0,0.0,0.0,0.0,0.0,0.0,0.0,0.0,0.0,-2.9426,-2.9748,-3.0199,0.0,0.0,-3.0782,-3.0688,-3.0417,-3.01,-2.9879,-2.9846,-2.9531,0.0,0.0,0.0,0.0,0.0,0.0,0.0,0.0,0.0,0.0,0.0,0.0,0.0,0.0,0.0,0.0,0.0,0.0,0.0,0.0,0.0,0.0,0.0,0.0,0.0,0.0,0.0,0.0,0.0,0.0,0.0,0.0,0.0,0.0,0.0,0.0,0.0,0.0,0.0,0.0,0.0,0.0,0.0,0.0,0.0,0.0,0.0,0.0,0.0,0.0,0.0,0.0,-2.9945,-3.1052,-3.1612,-3.2023,-3.2275,-3.2878,-3.3151,-3.3083,-3.2503,-3.2057,0.0,0.0,0.0,0.0,0.0,0.0,0.0,0.0,0.0,0.0,0.0,0.0,0.0,0.0,0.0,0.0,0.0,0.0,0.0,0.0,0.0,0.0,0.0,0.0,0.0,0.0,0.0,0.0,-2.5679,-2.5968,-2.5852,0.0,0.0,0.0,0.0,0.0,0.0,0.0,0.0,0.0,0.0,-3.0508,-3.0833,-3.1286,-3.1658,-3.1662,-3.163,-3.1501,-3.1306,-3.1108,-3.0974,-3.0923,0.0,0.0,0.0,0.0,0.0,0.0,0.0,0.0,0.0,0.0,0.0,0.0,0.0,0.0,0.0,0.0,0.0,0.0,0.0,0.0,0.0,0.0,0.0,0.0,0.0,0.0,0.0,0.0,0.0,0.0,-2.6822,0.0,0.0,0.0,0.0,0.0,0.0,0.0,0.0,0.0,0.0,0.0,0.0,0.0,0.0,0.0,0.0,0.0,0.0,0.0,0.0,0.0,0.0,-3.0226,-3.1837,-3.1937,-3.2355,-3.3149,-3.3141,-3.3161,-3.3161,-3.3091,-3.2681,-3.1865,0.0,0.0,0.0,0.0,0.0,0.0,0.0,0.0,0.0,0.0,0.0,0.0,0.0,0.0,0.0,0.0,0.0,0.0,0.0,0.0,0.0,0.0,0.0,0.0,0.0,0.0,-2.5911,-2.641,-2.6763,0.0,0.0,0.0,0.0,0.0,0.0,0.0,0.0,0.0,0.0,-3.1457,-3.2024,-3.2311,-3.2351,-3.2229,-3.1901,-3.171,-3.1566,-3.1451,-3.1205,-3.0974,0.0,0.0,0.0,0.0,0.0,0.0,0.0,0.0,0.0,0.0,0.0,0.0,0.0,0.0,0.0,0.0,0.0,0.0,0.0,0.0,0.0,0.0,0.0,0.0,0.0,0.0,0.0,-2.8014,-2.8008,0.0,0.0,0.0,0.0,0.0,0.0,0.0,0.0,0.0,0.0,0.0,-2.9178,-2.976,0.0,0.0,0.0,0.0,0.0,0.0,0.0,0.0,0.0,0.0,0.0,0.0,-3.1615,-3.2732,-3.3286,-3.3723,-3.3994,-3.4545,-3.4795,-3.4773,-3.4179,-3.3434,-3.2506,0.0,0.0,0.0,0.0,0.0,0.0,0.0,0.0,0.0,0.0,0.0,0.0,0.0,0.0,0.0,0.0,0.0,0.0,0.0,0.0,0.0,0.0,0.0,0.0,0.0,-2.6869,0.0,0.0,0.0,0.0,0.0,0.0,0.0,0.0,0.0,0.0,0.0,-3.1072,-3.1549,-3.2261,-3.2807,-3.305,-3.3055,-3.3077,0.0,0.0,0.0,0.0,0.0,0.0,0.0,0.0,0.0,0.0,0.0,0.0,0.0,0.0,-2.8474,-2.8693,-2.849,-2.8321,-2.8321,0.0,0.0,0.0,0.0,0.0,0.0,0.0,0.0,0.0,0.0,0.0,0.0,0.0,0.0,-2.8869,0.0,-2.8636,0.0,0.0,0.0,0.0,0.0,0.0,0.0,0.0,-3.0521,-3.0917,-3.0937,-3.1503,-3.1752,0.0,-3.1711,-3.1113,0.0,0.0,0.0,0.0,0.0,0.0,0.0,0.0,-3.2762,-3.3596,-3.4129,-3.4545,-3.4874,-3.5394,-3.5643,-3.5601,-3.4743,-3.3943,-3.3264,-3.2431,-3.1532,0.0,0.0,0.0,0.0,0.0,0.0,0.0,0.0,0.0,0.0,0.0,0.0,0.0,0.0,0.0,0.0,0.0,0.0,0.0,0.0,0.0,0.0,0.0,-2.8083,0.0,0.0,0.0,0.0,0.0,0.0,0.0,0.0,0.0,-3.0834,-3.124,-3.1871,-3.2689,-3.3138,-3.3594,-3.4086,0.0,0.0,0.0,0.0,0.0,0.0,0.0,-3.3472,-3.3234,-3.2992,-3.2627,-3.2072,-3.1494,-3.1039,-3.0854,0.0,0.0,-2.9907,-2.9549,-2.9357,-2.9372,-2.9208,-2.9112,-2.9112,-2.9451,-2.9776,0.0,0.0,0.0,0.0,0.0,0.0,0.0,0.0,-3.0475,-3.0543,0.0,-2.9815,0.0,0.0,0.0,0.0,0.0,-3.1339,0.0,0.0,-3.2931,-3.3371,-3.334,-3.334,-3.3396,-3.3378,-3.3339,-3.3334,-3.3275,-3.2469,0.0,0.0,0.0,0.0,0.0,0.0,-3.3635,-3.4419,-3.4476,-3.4891,-3.5684,-3.572,-3.5717,-3.5697,-3.479,-3.4288,-3.416,-3.3268,-3.2317,-3.1435,-3.0503,0.0,0.0,0.0,0.0,0.0,0.0,0.0,0.0,0.0,0.0,0.0,0.0,0.0,0.0,0.0,0.0,0.0,0.0,0.0,0.0,-2.8439,0.0,0.0,0.0,0.0,0.0,0.0,0.0,0.0,0.0,0.0,-3.1735,-3.1952,-3.2664,-3.4002,0.0,0.0,0.0,0.0,-3.5703,-3.5948,-3.586,-3.5625,-3.53,-3.4919,-3.4574,-3.4398,0.0,0.0,-3.3516,-3.327,-3.3072,-3.2974,-3.2809,-3.2208,-2.9859,-2.9448,-2.9348,-2.9348,-2.9351,-2.9204,-2.9278,-3.022,-3.0969,-3.2058,0.0,0.0,0.0,0.0,-3.1816,-3.1913,-3.2039,-3.2089,-3.2167,-3.2239,-3.2085,0.0,0.0,0.0,0.0,0.0,0.0,-3.2957,-3.2966,-3.3269,-3.3383,-3.3387,-3.3377,-3.3379,-3.3392,-3.3383,-3.3392,-3.3415,-3.3712,-3.3549,-3.2941,0.0,0.0,0.0,0.0,-3.4517,-3.5308,-3.5897,-3.6311,-3.6559,-3.7127,-3.7411,-3.7301,-3.6449,-3.595,-3.5871,-3.4435,-3.3478,-3.3075,-3.2193,0.0,0.0,0.0,0.0,0.0,0.0,0.0,0.0,0.0,0.0,0.0,0.0,0.0,0.0,0.0,0.0,0.0,0.0,0.0,-2.9419,-2.9775,-3.0057,0.0,0.0,0.0,0.0,0.0,0.0,0.0,0.0,0.0,-3.3626,-3.3659,-3.3799,0.0,0.0,-3.548,-3.5579,-3.5815,-3.6011,-3.5899,-3.5625,0.0,-3.5065,-3.4721,-3.4355,-3.4118,-3.3698,-3.3347,-3.3176,-3.2989,-3.2801,-3.2718,-3.2498,-3.2095,-3.1426,-3.1348,-3.1518,-3.1533,-3.1271,-3.1085,-3.1113,-3.1401,-3.168,-3.3222,-3.2876,-3.2446,-3.2279,-3.2372,-3.2422,-3.2526,-3.2626,-3.2713,-3.2799,-3.2865,-3.2964,-3.304,-3.3112,-3.3178,0.0,0.0,0.0,-3.3776,-3.3843,-3.4207,-3.4401,-3.4432,-3.4425,-3.4432,-3.4433,-3.4441,-3.4602,-3.4967,-3.5412,-3.5538,-3.5308,0.0,0.0,-3.5466,-3.5485,-3.5892,-3.6671,-3.7174,-3.7414,-3.7416,-3.7874,-3.8073,-3.795,-3.7448,-3.7153,-3.7048,-3.5687,-3.4725,-3.4312,-3.3372,-3.2449,0.0,0.0,0.0,0.0,0.0,0.0,0.0,0.0,0.0,0.0,0.0,-2.6866,0.0,0.0,0.0,0.0,-2.9651,-3.0125,-3.0818,-3.0765,0.0,0.0,0.0,0.0,0.0,0.0,0.0,-3.3481,-3.376,-3.415,-3.4684,-3.4901,-3.4977,-3.4901,-3.5477,-3.6009,-3.6277,0.0,-3.6593,-3.6478,-3.6283,-3.5996,-3.5587,-3.523,-3.4866,-3.4373,-3.3932,-3.3691,-3.3577,-3.3318,-3.3136,-3.3071,-3.2953,-3.282,-3.2739,-3.2806,-3.2752,-3.2357,-3.2047,-3.1917,-3.1917,-3.2103,-3.2274,-3.4328,-3.4271,-3.3007,-3.25,-3.2487,-3.2543,-3.2632,-3.2699,-3.2836,-3.2924,-3.2985,-3.3077,-3.3176,-3.3305,-3.3355,0.0,-3.346,-3.4225,-3.4639,-3.4739,-3.5612,-3.6044,-3.6108,-3.6166,-3.62,-3.6191,-3.622,-3.6618,-3.736,-3.734,-3.7664,-3.8319,-3.6805,-3.6382,-3.7065,-3.7094,-3.748,-3.8179,-3.8257,-3.831,-3.8389,-3.8265,-3.8176,-3.8139,-3.8035,-3.7967,-3.7859,-3.6935,-3.6063,-3.5284,-3.4283,-3.3316,-3.2543,0.0,0.0,0.0,0.0,0.0,0.0,0.0,0.0,0.0,0.0,0.0,0.0,0.0,0.0,0.0,-3.0683,0.0,-3.1693,-3.1638,0.0,0.0,0.0,-3.3604,-3.3978,-3.4019,-3.4144,-3.4455,0.0,0.0,-3.5102,-3.5658,-3.5993,-3.6109,-3.6026,-3.6249,-3.7199,-3.7284,-3.7351,-3.7302,-3.7342,-3.7103,-3.6461,-3.6056,-3.5582,-3.4868,-3.4601,-3.4341,-3.4259,-3.4016,-3.3868,-3.3925,-3.3884,-3.3913,-3.3956,-3.3831,-3.3393,-3.2464,-3.2122,-3.2023,-3.2108,-3.2492,-3.2848,-3.59,-3.6014,-3.5727,-3.5002,-3.4062,-3.4064,-3.4186,-3.4338,-3.4483,-3.4568,-3.4645,-3.4817,-3.493,-3.4988,-3.5018,-3.5069,-3.5191,-3.5402,-3.5519,-3.5645,-3.6504,-3.6898,-3.695,-3.7647,-3.7975,-3.7987,-3.7966,-3.8053,-3.8199,-3.8202,-3.8249,-3.8377,-3.798,-3.7855,-3.7996,-3.7996,-3.8042,-3.8218,-3.8813,-3.9419,-4.0,-3.9946,-3.9884,-3.9868,-3.9207,-3.8795,-3.8704,-3.7794,-3.7167,-3.6842,-3.5907,-3.5013,-3.4081,-3.3334,0.0,0.0,0.0,0.0,0.0,0.0,0.0,0.0,0.0,-3.0161,-3.0315,0.0,-3.0765,0.0,-3.2478,-3.3115,-3.3193,-3.3547,0.0,0.0,-3.4036,-3.3913,-3.4007,-3.4233,-3.4423,-3.4506,-3.4762,-3.5152,-3.5741,-3.5827,-3.6105,-3.6841,-3.6966,-3.7059,-3.729,-3.7326,-3.7404,-3.737,-3.7013,-3.6662,-3.6507,-3.5861,-3.5228,-3.4601,-3.4361,-3.4142,-3.4034,-3.3813,-3.3817,-3.4271,-3.4228,-3.434,-3.475,-3.4862,-3.4764,-3.4425,-3.3677,-3.2945,-3.2945,-3.3155,-3.324,-3.638,-3.6509,-3.6618,-3.6236,-3.553,-3.5664,-3.5778,-3.5926,-3.6064,-3.6177,-3.6283,-3.6496,-3.6625,-3.6684,-3.6733,-3.6779,-3.6871,-3.691,-3.6945,-3.7039,-3.7514,-3.7761,-3.7804,-3.833,-3.86,-3.861,-3.8612,-3.8797,-3.9117,-3.9099,-3.9229,-3.9539,-3.9551,-3.9507,-3.9402,-3.9062,-3.8999,-3.9315,-3.9727,-4.0135,-4.0554,-4.0515,-4.0466,-4.0377,-3.9867,-3.9564,-3.9528,-3.8632,-3.8078,-3.7959,-3.7079,-3.6311,-3.5747,-3.5165,-3.4409,0.0,0.0,0.0,0.0,0.0,0.0,0.0,0.0,0.0,0.0,0.0,-3.2081,-3.3087,-3.386,-3.4235,-3.411,-3.4353,-3.4609,-3.4801,-3.4639,-3.4599,-3.4702,-3.4873,-3.5043,-3.517,-3.5385,-3.5661,-3.6022,-3.6313,-3.6613,-3.7061,-3.7319,-3.7455,-3.7488,-3.743,-3.7358,-3.7194,-3.6785,-3.649,-3.6353,-3.5878,-3.5413,-3.5183,-3.4963,-3.4767,-3.4569,-3.4427,-3.4397,-3.4721,-3.4719,-3.4745,-3.5156,-3.5226,-3.5226,-3.5068,-3.4618,-3.4183,-3.4126,-3.414,-3.414,-3.6589,-3.6711,-3.6851,-3.6914,-3.7021,-3.7274,-3.7305,-3.7209,-3.7345,-3.747,-3.764,-3.7881,-3.7993,-3.7988,-3.8138,-3.8182,-3.8218,-3.8266,-3.8326,-3.8397,-3.852,-3.8603,-3.8658,-3.8857,-3.893,-3.8921,-3.8925,-3.9325,-4.0054,-3.9997,-4.032,-4.0974,-4.0991,-4.0935,-4.0768,-4.0109,-4.0053,-4.0668,-4.0617,-4.0558,-4.0489,-4.0499,-4.0413,-4.0288,-4.0233,-4.0196,-4.0176,-3.9372,-3.8892,-3.8791,-3.7945,-3.7359,-3.7225,-3.6988,-3.6491,0.0,-3.471,0.0,0.0,0.0,0.0,0.0,0.0,0.0,0.0,-3.2795,-3.3626,-3.4765,-3.4923,-3.4867,-3.4738,-3.4714,-3.4888,-3.5283,-3.527,-3.5335,-3.5582,-3.5616,-3.5736,-3.5975,-3.6026,-3.6089,-3.634,-3.688,-3.7157,-3.711,-3.7345,-3.7605,-3.7626,-3.7417,-3.727,-3.6999,-3.677,-3.6527,-3.6335,-3.6162,-3.5981,-3.5927,-3.5755,-3.5638,-3.5376,-3.5257,-3.5226,-3.5325,-3.5353,-3.5381,-3.5363,-3.5508,-3.5494,-3.5475,-3.5508,-3.5395,-3.511,-3.5113,-3.5226,-3.829,-3.8379,-3.8438,-3.8506,-3.8591,-3.8854,-3.8259,-3.7141,-3.7263,-3.7451,-3.7695,-3.7852,-3.7947,-3.7988,-3.8073,-3.815,-3.8218,-3.8255,-3.8326,-3.8416,-3.9123,-3.9474,-3.9594,-4.0281,-4.0628,-4.064,-4.0624,-4.0711,-4.0873,-4.0851,-4.0905,-4.0987,-4.0991,-4.0935,-4.0798,0.0,0.0,0.0,-4.0549,-4.0508,-4.0499,-4.0396,-4.0307,-4.0215,-4.0215,0.0,-4.0038,-3.9802,-3.964,-3.949,-3.862,0.0,0.0,0.0,0.0,0.0,0.0,0.0,0.0,0.0,0.0,0.0,-3.4623,-3.4434,-3.4543,-3.4532,-3.4606,-3.4817,-3.5289,-3.5563,-3.5521,-3.5769,-3.6004,-3.6077,-3.577,-3.5559,-3.5577,-3.5793,-3.5957,-3.5992,-3.6102,-3.6409,-3.6999,-3.7021,-3.7102,-3.7425,-3.7472,-3.7417,-3.7345,-3.7181,-3.6999,-3.6831,-3.6873,-3.6854,-3.6754,-3.6718,-3.6468,-3.5985,-3.5711,-3.5608,-3.537,-3.5282,-3.5377,-3.577,-3.5972,-3.6065,-3.6501,-3.6641,-3.6557,-3.6627,-3.6613,-3.6332,-3.5451,-3.5166,-3.5226,-3.867,0.0,-3.8851,-3.8921,0.0,-3.9266,-3.8957,-3.8265,-3.8399,-3.8641,-3.8899,-3.9045,-3.9131,-3.9176,-3.9292,-3.9361,-3.9431,-3.9514,-3.9549,-3.966,-4.012,-4.0364,-4.0452,-4.0894,-4.1108,-4.1107,-4.1112,-4.1101,-4.1108,-4.1105,-4.1081,-4.0994,-4.0991,-4.0935,-4.0807,-4.1163,-4.11,-4.0588,-4.0539,-4.0691,-4.1082,-4.0958,-4.1074,-4.1418,-4.1376,0.0,0.0,0.0,0.0,0.0,0.0,0.0,0.0,-3.8178,0.0,-3.7081,-3.6867,-3.649,-3.589,-3.6073,-3.6095,-3.5966,-3.6061,-3.5989,-3.5634,-3.549,-3.5557,-3.5776,-3.6085,-3.6252,-3.611,-3.6201,-3.6371,-3.6542,-3.6344,-3.6161,-3.6279,-3.6421,-3.6504,-3.6626,-3.6706,-3.6938,-3.7423,-3.7406,-3.7287,-3.7445,-3.7373,-3.738,-3.7451,-3.7405,-3.7328,-3.7367,-3.743,-3.7451,-3.7345,-3.7367,-3.7199,-3.6761,-3.6653,-3.6504,-3.6127,-3.6065,-3.6178,-3.6459,-3.6529,-3.6641,-3.688,-3.6978,-3.6978,-3.6993,-3.6929,-3.6696,-3.6039,-3.5989,-3.6065,-3.8609,-3.8707,-3.8851,-3.891,-3.8939,-3.9248,-3.9418,-3.9476,0.0,0.0,0.0,-4.0272,-4.0342,-4.0396,-4.0534,-4.0635,-4.07,-4.0761,-4.084,-4.0894,-4.0968,-4.1039,-4.1111,-4.1115,-4.1097,-4.1107,-4.1112,-4.1103,-4.1108,-4.1105,-4.1061,-4.1007,-4.1147,-4.1228,-4.128,-4.184,-4.175,-4.106,-4.0934,-4.1236,-4.1874,-4.1762,-4.2008,-4.2633,-4.2566,-4.2155,-4.1423,-4.1297,-4.0925,-4.0183,-3.9971,-3.987,-3.9794,-3.9602,-3.9034,-3.8092,-3.7783,-3.7235,-3.62,-3.6576,-3.6823,-3.6755,-3.7206,-3.7143,-3.6262,-3.6154,-3.632,-3.6759,-3.6893,-3.6858,-3.6669,-3.6663,-3.674,-3.7041,-3.6895,-3.6846,-3.6987,-3.7015,-3.7105,-3.7264,-3.7293,-3.7432,-3.7573,-3.7578,-3.7508,-3.7285,-3.7291,-3.7513,-3.787,-3.7946,-3.7908,-3.8126,-3.8159,-3.8129,-3.8023,-3.7986,-3.7843,-3.7577,-3.7553,-3.7457,-3.7134,-3.6978,-3.6978,-3.6908,-3.6978,-3.6978,-3.6978,-3.6993,-3.6915,-3.6915,-3.6758,-3.6628,-3.6628,-3.6772,-3.6858,-3.8658,-3.8689,-3.8851,-3.891,-3.8921,-3.9266,-3.9483,-3.9684,-3.9823,-3.9954,-4.0117,-4.029,-4.0379,-4.0415,-4.0534,-4.0654,-4.07,-4.0761,-4.084,-4.0894,-4.0972,-4.1033,-4.1091,-4.1115,-4.1097,-4.1107,-4.1112,-4.1101,-4.1108,-4.1105,-4.1061,-4.1104,-4.1696,-4.2344,-4.2905,-4.2985,-4.2911,-4.2678,-4.2595,-4.2584,-4.2642,-4.2582,-4.2538,-4.2506,-4.2477,-4.2351,-4.2148,-4.2008,-4.187,-4.168,-4.1528,-4.1409,-4.1303,-4.1082,-4.0579,-3.9656,-3.9333,-3.8787,-3.7812,-3.7594,-3.7628,-3.8015,-3.8735,-3.8518,-3.7108,-3.6773,-3.6706,-3.6806,-3.7276,-3.7413,-3.7335,-3.7659,-3.7809,-3.7652,-3.7431,-3.7203,-3.7068,-3.7163,-3.7319,-3.7355,-3.7536,-3.7584,-3.7445,-3.737,-3.7266,-3.7138,-3.7484,-3.8008,-3.8774,-3.8723,-3.8576,-3.8759,-3.8872,-3.8782,-3.8646,-3.8635,-3.8369,-3.7749,-3.7625,-3.7457,-3.7056,-3.6978,-3.6978,-3.6978,-3.6978,-3.6978,-3.6978,-3.685,-3.6786,-3.6721,-3.6563,-3.647,-3.6405,-3.647,-3.647,-3.8738,-3.878,-3.8851,-3.8939,-3.8997,-3.9256,-3.9496,-3.9693,-3.987,-4.0015,-4.0117,-4.0271,-4.036,-4.0408,-4.0549,-4.0668,-4.0752,-4.0834,-4.0888,-4.096,-4.0986,-4.1039,-4.1091,-4.1115,-4.1097,-4.1107,-4.1112,-4.1333,-4.1777,-4.1803,-4.2011,-4.2396,-4.2685,-4.3187,-4.3896,-4.3852,-4.3968,-4.4285,-4.3348,-4.3082,-4.3443,-4.3361,-4.3463,-4.3767,-4.3734,-4.3453,-4.2919,-4.2817,-4.2513,-4.1983,-4.1792,-4.1667,-4.1579,-4.1348,-4.0974,-4.0459,-4.0169,-3.9801,-3.9283,-3.8863,-3.8752,-3.8924,-3.9135,-3.9006,-3.8286,-3.8093,-3.7969,-3.792,-3.8122,-3.8165,-3.7988,-3.8054,-3.8133,-3.8299,-3.7953,-3.7831,-3.7916,-3.7921,-3.7834,-3.7625,-3.7652,-3.7567,-3.7314,-3.7219,-3.7257,-3.7421,-3.8101,-3.8912,-3.9462,-3.9601,-3.9557,-3.9549,-3.9555,-3.9365,-3.9045,-3.8855,-3.8575,-3.7976,-3.7763,-3.7457,-3.7226,-3.7056,-3.6978,-3.6978,-3.6978,-3.6915,-3.685,-3.6786,-3.6721,-3.6563,-3.6405,-3.6246,-3.6246,-3.6152,-3.6138,-3.875,-3.8803,-3.8881,-3.895,-3.911,-3.9343,-3.9526,-3.9739,-3.9933,-4.0057,-4.0138,-4.0252,-4.0358,-4.0422,-4.0545,-4.0675,-4.08,-4.0856,-4.0927,-4.0996,-4.102,-4.1148,-4.1384,-4.1393,-4.1495,-4.1656,-4.1678,-4.2031,-4.2641,-4.2671,-4.3072,-4.375,-4.3679,-4.3995,-4.4742,-4.4655,-4.4879,-4.5285,-4.4097,-4.3714,-4.4204,-4.4135,-4.4326,-4.4814,-4.4796,-4.4391,-4.3694,-4.3584,-4.3221,-4.2473,-4.2236,-4.2117,-4.2075,-4.1807,-4.1486,-4.115,-4.0887,-4.0546,-4.0101,-3.9913,-3.9799,-3.9669,-3.9641,-3.9599,-3.9556,-3.9539,-3.9338,-3.892,-3.8884,-3.887,-3.866,-3.8581,-3.8614,-3.8875,-3.8534,-3.8418,-3.869,-3.8488,-3.8164,-3.7876,-3.7685,-3.7496,-3.7427,-3.7348,-3.7543,-3.8178,-3.8923,-3.9508,-3.9754,-4.0232,-4.037,-4.0137,-4.0011,-3.9768,-3.9265,-3.8943,-3.8649,-3.8277,-3.7839,-3.7534,-3.7303,-3.7134,-3.6978,-3.6978,-3.6978,-3.6929,-3.6786,-3.6642,-3.6563,-3.6405,-3.6166,-3.6006,-3.5992,-3.5898,-3.5804,-3.8787,-3.8822,-3.8936,-3.9082,-3.9384,-3.9446,-3.9599,-3.9804,-3.9954,-4.0078,-4.0196,-4.0325,-4.043,-4.0489,-4.0559,-4.0675,-4.08,-4.0876,-4.0966,-4.1035,-4.1052,-4.1529,-4.2242,-4.2288,-4.2705,-4.332,-4.3375,-4.3378,-4.3558,-4.3557,-4.3888,-4.4499,-4.4517,-4.4852,-4.5465,-4.5483,-4.5437,-4.5418,-4.5185,-4.5044,-4.4973,-4.4877,-4.4795,-4.4796,-4.4685,-4.4541,-4.4346,-4.4346,-4.4175,-4.399,-4.3806,-4.3688,-4.3545,-4.3361,-4.2825,-4.1868,-4.1596,-4.0966,-3.987,-4.0193,-4.0426,-4.0281,-4.0779,-4.1039,-4.0891,-4.0863,-4.0273,-3.9282,-3.9221,-3.9427,-3.9354,-3.9608,-3.9699,-3.9478,-3.9126,-3.8865,-3.8606,-3.8205,-3.7876,-3.7759,-3.748,-3.7445,-3.7747,-3.7793,-3.8153,-3.8999,-3.9373,-3.9801,-4.0232,-4.0416,-4.047,-4.0277,-4.0137,-3.9854,-3.9409,-3.9017,-3.8723,-3.8277,-3.7839,-3.7548,-3.738,-3.7134,-3.6978,-3.6978,-3.6993,-3.6929,-3.6707,-3.6549,-3.6405,-3.6152,-3.5978,-3.5723,-3.5723,-3.5723,-3.579,-4.0165,-4.0283,-4.0314,-4.0261,-4.0117,-3.9746,-3.967,-3.9867,-4.0057,-4.0158,-4.027,-4.0411,-4.0492,-4.0573,-4.0635,-4.0713,-4.0854,-4.1393,-4.1682,-4.1816,-4.2356,-4.2827,-4.3153,-4.3163,-4.3375,-4.3671,-4.3693,-4.3958,-4.4421,-4.4837,-4.521,-4.5429,-4.537,-4.5433,-4.5629,-4.553,-4.5438,-4.5319,-4.5235,-4.5106,-4.4991,-4.4919,-4.484,-4.4667,-4.4578,-4.4496,-4.444,-4.4344,-4.4226,-4.4085,-4.3961,-4.3818,-4.3634,-4.341,-4.305,-4.254,-4.2201,-4.1716,-4.1054,-4.1223,-4.1217,-4.0971,-4.1143,-4.1244,-4.1076,-4.1047,-4.0642,-4.01,-4.0092,-4.0203,-4.0041,-4.0018,-3.9884,-3.959,-3.9131,-3.8805,-3.8488,-3.8148,-3.7876,-3.7732,-3.7752,-3.7839,-3.806,-3.8479,-3.8963,-3.9512,-3.978,-4.0247,-4.0493,-4.0524,-4.0455,-4.0401,-4.0207,-3.9925,-3.9625,-3.9162,-3.8782,-3.8501,-3.7991,-3.7548,-3.7471,-3.7226,-3.6993,-3.6978,-3.6915,-3.6772,-3.6549,-3.6312,-3.6166,-3.5898,-3.5804,-3.571,-3.571,-3.571,-3.571,-4.1204,-4.1292,-4.1391,-4.1295,-4.102,-4.0559,-4.0438,-4.0615,-4.0823,-4.096,-4.105,-4.1149,-4.1262,-4.1321,-4.1158,-4.1195,-4.1585,-4.2257,-4.2583,-4.2734,-4.3376,-4.3807,-4.4016,-4.4052,-4.4179,-4.4393,-4.4461,-4.4694,-4.5261,-4.5743,-4.6055,-4.5976,-4.5872,-4.5735,-4.5599,-4.5457,-4.536,-4.5275,-4.5125,-4.4967,-4.4846,-4.4821,-4.4719,-4.4578,-4.4515,-4.4411,-4.4325,-4.4244,-4.4104,-4.3974,-4.3818,-4.3652,-4.3479,-4.3268,-4.3013,-4.2729,-4.2409,-4.2139,-4.1945,-4.1797,-4.1604,-4.1363,-4.1226,-4.1134,-4.1029,-4.0935,-4.084,-4.0662,-4.0683,-4.0568,-4.0387,-4.0037,-3.9746,-3.9484,-3.904,-3.8639,-3.8375,-3.8162,-3.8046,-3.7916,-3.8166,-3.8466,-3.8541,-3.9148,-3.9809,-3.9872,-4.0201,-4.0524,-4.0524,-4.0524,-4.0455,-4.0455,-4.0207,-4.0011,-3.9768,-3.9235,-3.8855,-3.8634,-3.8127,-3.761,-3.7534,-3.7226,-3.6929,-3.6836,-3.6786,-3.6628,-3.6391,-3.6152,-3.5992,-3.5804,-3.571,-3.571,-3.571,-3.571,-3.571,-4.1217,-4.1379,-4.1683,-4.1857,-4.195,-4.2057,-4.22,-4.224,-4.2504,-4.2699,-4.2748,-4.2848,-4.3033,-4.3092,-4.2363,-4.2434,-4.3178,-4.3365,-4.3486,-4.3565,-4.3727,-4.4172,-4.4914,-4.4956,-4.535,-4.5911,-4.5921,-4.5961,-4.5981,-4.5998,-4.598,-4.5891,-4.5829,-4.5719,-4.5603,-4.5477,-4.5357,-4.5192,-4.5014,-4.4865,-4.4719,-4.464,-4.4578,-4.4515,-4.4458,-4.4325,-4.4214,-4.4085,-4.3974,-4.3915,-4.3649,-4.3513,-4.3463,-4.3105,-4.2729,-4.2351,-4.2139,-4.1945,-4.178,-4.1604,-4.138,-4.1226,-4.1152,-4.1047,-4.0935,-4.0888,-4.084,-4.0714,-4.0571,-4.0373,-4.0138,-3.9884,-3.9625,-3.9309,-3.8892,-3.852,-3.8221,-3.8558,-3.8486,-3.8323,-3.867,-3.9087,-3.94,-4.0038,-4.0339,-4.0378,-4.0439,-4.0524,-4.0524,-4.0524,-4.047,-4.0347,-4.0137,-4.0011,-3.994,-3.9322,-3.8855,-3.8634,-3.8202,-3.761,-3.7457,-3.7303,-3.7007,-3.6772,-3.6707,-3.6549,-3.6232,-3.6072,-3.5898,-3.5804,-3.571,-3.571,-3.571,-3.571,-3.571,-4.283,-4.2996,-4.2753,-4.2696,-4.281,-4.2502,-4.2443,-4.2633,-4.2737,-4.2889,-4.3049,-4.3146,-4.3525,-4.4111,-4.3858,-4.3624,-4.353,-4.4089,-4.4416,-4.452,-4.5069,-4.5542,-4.5785,-4.5838,-4.5954,-4.6251,-4.626,-4.619,-4.6102,-4.6046,-4.5937,-4.5833,-4.5731,-4.5635,-4.5513,-4.54,-4.5256,-4.5125,-4.4967,-4.484,-4.4693,-4.4578,-4.4487,-4.4373,-4.4344,-4.4285,-4.4214,-4.4042,-4.3897,-4.3869,-4.3634,-4.3428,-4.3214,-4.2804,-4.2472,-4.2287,-4.2055,-4.1797,-4.1692,-4.1515,-4.1335,-4.1169,-4.114,-4.1047,-4.0935,-4.081,-4.0714,-4.0568,-4.0357,-4.0172,-3.9918,-3.9677,-3.9451,-3.9169,-3.911,-3.8982,-3.8836,-3.9093,-3.9279,-3.9015,-3.9277,-3.9668,-4.0007,-4.0355,-4.0524,-4.0524,-4.0524,-4.0524,-4.0524,-4.0524,-4.047,-4.0261,-4.0137,-3.994,-3.9625,-3.9177,-3.8797,-3.8575,-3.8202,-3.7763,-3.7534,-3.7226,-3.6929,-3.6707,-3.6628,-3.6391,-3.6072,-3.5898,-3.5804,-3.5804,-3.571,-3.571,-3.571,-3.571,-3.571,-4.386,-4.4035,-4.3708,-4.3664,-4.3724,-4.3388,-4.3346,-4.3536,-4.3618,-4.3748,-4.3888,-4.4002,-4.4418,-4.4963,-4.509,-4.488,-4.4442,-4.5013,-4.5325,-4.5376,-4.5991,-4.63,-4.6305,-4.6289,-4.6301,-4.6292,-4.6195,-4.6135,-4.6105,-4.6022,-4.5906,-4.5795,-4.5668,-4.5547,-4.5476,-4.532,-4.5211,-4.508,-4.4919,-4.4789,-4.4632,-4.4524,-4.4401,-4.4285,-4.4226,-4.4165,-4.4123,-4.3947,-4.38,-4.3686,-4.3497,-4.3251,-4.2936,-4.253,-4.2246,-4.2181,-4.1952,-4.1692,-4.156,-4.1408,-4.129,-4.1093,-4.1047,-4.1,-4.0888,-4.0745,-4.0666,-4.0487,-4.051,-4.0338,-4.0057,-4.003,-3.9781,-3.9364,-3.9438,-3.9516,-3.9297,-3.9642,-3.9866,-3.9859,-3.992,-4.0198,-4.0416,-4.0509,-4.0524,-4.0524,-4.0524,-4.0524,-4.0524,-4.047,-4.0401,-4.0207,-3.9996,-3.9711,-3.9409,-3.9017,-3.8649,-3.8427,-3.8142,-3.7763,-3.7457,-3.7148,-3.685,-3.6628,-3.647,-3.6232,-3.6072,-3.5817,-3.5723,-3.571,-3.571,-3.571,-3.571,-3.571,-3.5737,-4.4116,-4.4296,-4.4438,-4.4542,-4.4663,-4.4754,-4.503,-4.5107,-4.5266,-4.528,-4.5305,-4.5583,-4.5609,-4.584,-4.582,-4.593,-4.5913,-4.6014,-4.6078,-4.6108,-4.625,-4.6303,-4.6289,-4.6305,-4.629,-4.6275,-4.6164,-4.6093,-4.6074,-4.5963,-4.5858,-4.578,-4.564,-4.5513,-4.54,-4.5258,-4.5129,-4.4991,-4.484,-4.4659,-4.4515,-4.4458,-4.4344,-4.4214,-4.4085,-4.3992,-4.3897,-4.3837,-4.3719,-4.3532,-4.3304,-4.3013,-4.2649,-4.2409,-4.2222,-4.203,-4.1841,-4.1648,-4.1426,-4.1255,-4.1198,-4.1093,-4.1,-4.0935,-4.0888,-4.0814,-4.072,-4.0724,-4.0917,-4.0992,-4.0669,-4.0859,-4.0738,-3.987,-3.9957,-4.0119,-3.9973,-4.0087,-4.0423,-4.0572,-4.0538,-4.0493,-4.0524,-4.0524,-4.0524,-4.0524,-4.0524,-4.0524,-4.047,-4.0401,-4.0277,-4.0066,-3.9854,-3.9553,-3.925,-3.887,-3.8575,-3.8277,-3.7915,-3.7548,-3.7317,-3.7084,-3.6786,-3.6563,-3.6218,-3.5978,-3.5898,-3.5723,-3.5723,-3.571,-3.571,-3.571,-3.571,-3.5723,-3.5805,-4.4128,-4.4383,-4.4513,-4.4693,-4.487,-4.5061,-4.5213,-4.5379,-4.5514,-4.5618,-4.5731,-4.5771,-4.5867,-4.5964,-4.6037,-4.6113,-4.6169,-4.6177,-4.622,-4.6275,-4.6308,-4.6293,-4.6289,-4.629,-4.6275,-4.6216,-4.6135,-4.6066,-4.6003,-4.5919,-4.5776,-4.5671,-4.5566,-4.5457,-4.532,-4.5213,-4.508,-4.4919,-4.477,-4.4632,-4.4515,-4.4401,-4.4237,-4.4085,-4.3992,-4.3865,-4.3701,-4.3667,-4.3582,-4.3479,-4.3269,-4.2899,-4.245,-4.2181,-4.203,-4.1866,-4.1648,-4.1453,-4.1318,-4.1198,-4.1076,-4.1,-4.0935,-4.0918,-4.0957,-4.1194,-4.1304,-4.1289,-4.1525,-4.1569,-4.1411,-4.1527,-4.1324,-4.0349,-4.0569,-4.075,-4.0515,-4.0651,-4.0805,-4.0805,-4.0593,-4.0539,-4.0524,-4.0524,-4.0524,-4.0524,-4.0524,-4.0524,-4.047,-4.0401,-4.0207,-4.0011,-3.9696,-3.9322,-3.9017,-3.8649,-3.8352,-3.8052,-3.7763,-3.7394,-3.7162,-3.6929,-3.6628,-3.6312,-3.6058,-3.5884,-3.571,-3.571,-3.571,-3.571,-3.571,-3.571,-3.571,-3.5805,-3.594,-4.4218,-4.4458,-4.4605,-4.477,-4.4943,-4.5148,-4.5298,-4.5438,-4.5568,-4.5668,-4.5791,-4.586,-4.5917,-4.5997,-4.6095,-4.6146,-4.6209,-4.6209,-4.6255,-4.6296,-4.6293,-4.6305,-4.6289,-4.6277,-4.6248,-4.6196,-4.6102,-4.6017,-4.596,-4.586,-4.5727,-4.5618,-4.5494,-4.54,-4.5277,-4.5148,-4.4991,-4.4846,-4.4712,-4.4551,-4.443,-4.4333,-4.4177,-4.3986,-4.3897,-4.3767,-4.36,-4.3532,-4.3479,-4.3339,-4.3068,-4.2727,-4.231,-4.2097,-4.1962,-4.1797,-4.156,-4.1335,-4.1209,-4.1152,-4.1047,-4.097,-4.1129,-4.1285,-4.1326,-4.1696,-4.1955,-4.192,-4.2142,-4.2194,-4.1979,-4.2193,-4.1898,-4.1196,-4.1309,-4.1279,-4.1035,-4.0955,-4.0919,-4.073,-4.0524,-4.0524,-4.0524,-4.0524,-4.0524,-4.0524,-4.0524,-4.047,-4.0401,-4.0261,-4.0066,-3.9854,-3.9481,-3.9104,-3.8723,-3.8427,-3.8052,-3.7839,-3.7534,-3.724,-3.7007,-3.6772,-3.647,-3.6138,-3.5804,-3.5804,-3.571,-3.571,-3.571,-3.571,-3.571,-3.571,-3.575,-3.6049,-3.6239,-4.4401,-4.4542,-4.4719,-4.487,-4.5038,-4.5235,-4.538,-4.5513,-4.558,-4.5712,-4.5814,-4.5937,-4.5994,-4.6047,-4.6138,-4.6203,-4.6209,-4.6265,-4.6296,-4.63,-4.6288,-4.6289,-4.6264,-4.624,-4.619,-4.6181,-4.6066,-4.5975,-4.5893,-4.5805,-4.5719,-4.5586,-4.5438,-4.5341,-4.5256,-4.5103,-4.4938,-4.477,-4.4605,-4.4458,-4.4314,-4.4244,-4.4067,-4.3899,-4.3814,-4.3686,-4.3497,-4.3393,-4.3305,-4.3142,-4.2804,-4.249,-4.2287,-4.2097,-4.1902,-4.1754,-4.1498,-4.1405,-4.1296,-4.1296,-4.1289,-4.1332,-4.175,-4.2012,-4.195,-4.2364,-4.2618,-4.2475,-4.2774,-4.2832,-4.2541,-4.2594,-4.2488,-4.2142,-4.1837,-4.1625,-4.1205,-4.0935,-4.073,-4.0608,-4.0524,-4.0524,-4.0524,-4.0524,-4.0524,-4.0455,-4.0455,-4.0401,-4.0331,-4.0137,-3.9854,-3.9553,-3.925,-3.8885,-3.8575,-3.8217,-3.7839,-3.761,-3.738,-3.7084,-3.6864,-3.6549,-3.6312,-3.5965,-3.579,-3.571,-3.571,-3.571,-3.571,-3.571,-3.571,-3.571,-3.5927,-3.6252,-3.67,-4.4542,-4.4659,-4.4815,-4.501,-4.5213,-4.5341,-4.5457,-4.5586,-4.5696,-4.5786,-4.5887,-4.5953,-4.6047,-4.6083,-4.6162,-4.6216,-4.6265,-4.6289,-4.6303,-4.6288,-4.6288,-4.6276,-4.623,-4.6209,-4.6162,-4.6132,-4.6026,-4.5929,-4.5808,-4.5727,-4.5618,-4.5513,-4.538,-4.5258,-4.5129,-4.4991,-4.4846,-4.4738,-4.4578,-4.443,-4.4285,-4.4116,-4.3986,-4.3841,-4.3682,-4.355,-4.3394,-4.3178,-4.2975,-4.2899,-4.257,-4.2287,-4.215,-4.2015,-4.1895,-4.17,-4.145,-4.1522,-4.1834,-4.186,-4.2006,-4.2509,-4.2565,-4.2669,-4.2636,-4.2942,-4.3172,-4.3141,-4.3344,-4.3297,-4.3125,-4.2831,-4.2445,-4.2012,-4.1736,-4.1406,-4.1169,-4.095,-4.073,-4.0524,-4.0524,-4.0524,-4.0524,-4.0524,-4.0524,-4.0455,-4.0401,-4.0331,-4.0207,-3.998,-3.964,-3.9409,-3.9104,-3.8723,-3.8352,-3.7991,-3.7701,-3.738,-3.7162,-3.6864,-3.6628,-3.6405,-3.6152,-3.5804,-3.571,-3.571,-3.571,-3.571,-3.571,-3.5629,-3.5629,-3.567,-3.6185,-3.6578,-3.7077,-4.4605,-4.4796,-4.4919,-4.5084,-4.5298,-4.5458,-4.5549,-4.5651,-4.5757,-4.5854,-4.5929,-4.6007,-4.6084,-4.6142,-4.6216,-4.6254,-4.6294,-4.63,-4.6301,-4.6289,-4.6256,-4.6225,-4.6189,-4.6183,-4.6138,-4.6066,-4.5972,-4.5919,-4.5771,-4.5684,-4.5566,-4.5457,-4.536,-4.5213,-4.5061,-4.4919,-4.477,-4.4632,-4.4468,-4.4344,-4.4177,-4.4036,-4.3846,-4.3697,-4.3548,-4.3428,-4.3215,-4.3132,-4.2951,-4.2749,-4.2655,-4.2643,-4.2457,-4.2608,-4.257,-4.2387,-4.2183,-4.2285,-4.2549,-4.259,-4.2681,-4.3062,-4.3202,-4.3306,-4.3304,-4.36,-4.3821,-4.3608,-4.3573,-4.3383,-4.3068,-4.2571,-4.2125,-4.167,-4.1421,-4.1221,-4.1102,-4.083,-4.0662,-4.0524,-4.0524,-4.0524,-4.0524,-4.0524,-4.0524,-4.047,-4.0401,-4.0261,-4.0137,-3.9768,-3.9481,-3.9177,-3.887,-3.8427,-3.8127,-3.7763,-3.7471,-3.724,-3.685,-3.6549,-3.6391,-3.6246,-3.5978,-3.5723,-3.571,-3.571,-3.5629,-3.5548,-3.548,-3.548,-3.548,-3.5709,-3.6154,-3.6804,-3.7313,-4.4667,-4.4919,-4.508,-4.5192,-4.5339,-4.5532,-4.5635,-4.5731,-4.58,-4.5886,-4.5997,-4.6075,-4.6146,-4.6203,-4.6254,-4.6299,-4.6292,-4.6303,-4.6289,-4.6282,-4.6253,-4.6203,-4.619,-4.6135,-4.6084,-4.6016,-4.5925,-4.5852,-4.5746,-4.5637,-4.5513,-4.54,-4.5319,-4.517,-4.4991,-4.4846,-4.4667,-4.4515,-4.4325,-4.4207,-4.4036,-4.3878,-4.3716,-4.3566,-4.3393,-4.3287,-4.315,-4.3194,-4.3144,-4.2549,-4.3113,-4.3243,-4.3137,-4.3617,-4.3687,-4.3493,-4.3232,-4.3172,-4.3383,-4.3318,-4.3304,-4.3443,-4.3906,-4.4006,-4.3841,-4.4062,-4.4102,-4.3756,-4.3638,-4.3235,-4.2696,-4.2141,-4.1801,-4.1472,-4.1221,-4.1117,-4.1034,-4.0746,-4.0524,-4.0524,-4.0524,-4.0524,-4.0524,-4.0524,-4.0455,-4.0416,-4.0277,-4.0121,-3.991,-3.9553,-3.9177,-3.887,-3.8501,-3.8142,-3.7839,-3.7534,-3.7303,-3.7084,-3.6615,-3.6312,-3.6152,-3.5898,-3.5804,-3.571,-3.571,-3.5629,-3.548,-3.5399,-3.5318,-3.533,-3.5383,-3.5621,-3.5965,-3.6802,-3.7431,-4.4846,-4.508,-4.5192,-4.536,-4.5532,-4.5635,-4.5731,-4.5786,-4.5898,-4.5975,-4.6017,-4.6111,-4.6176,-4.6203,-4.627,-4.63,-4.6303,-4.6289,-4.6305,-4.6292,-4.6234,-4.6169,-4.6119,-4.6084,-4.6066,-4.5972,-4.5887,-4.5776,-4.5648,-4.5586,-4.5458,-4.5339,-4.5213,-4.508,-4.4938,-4.4764,-4.4605,-4.4487,-4.4218,-4.4067,-4.3942,-4.3716,-4.3548,-4.3463,-4.3233,-4.3162,-4.3297,-4.3382,-4.3472,-4.3704,-4.388,-4.3994,-4.3885,-4.3857,-4.3825,-4.3746,-4.3548,-4.359,-4.3939,-4.4129,-4.4234,-4.4524,-4.4555,-4.4667,-4.4321,-4.4158,-4.4023,-4.3671,-4.3355,-4.2929,-4.2302,-4.2028,-4.1686,-4.1339,-4.1153,-4.1034,-4.0882,-4.0662,-4.0524,-4.0524,-4.0524,-4.0524,-4.0524,-4.0455,-4.047,-4.0347,-4.0137,-3.991,-3.9625,-3.9337,-3.9031,-3.8649,-3.8277,-3.7991,-3.7687,-3.7394,-3.7084,-3.685,-3.647,-3.6138,-3.5898,-3.5817,-3.5723,-3.571,-3.571,-3.5548,-3.5399,-3.5318,-3.5236,-3.5314,-3.5349,-3.5787,-3.6181,-3.6917,-3.7488,-4.4967,-4.5192,-4.53,-4.5458,-4.5584,-4.5696,-4.5766,-4.5848,-4.5944,-4.6027,-4.6093,-4.6169,-4.6222,-4.624,-4.6284,-4.6293,-4.6289,-4.6301,-4.6284,-4.6245,-4.6209,-4.6146,-4.6047,-4.5997,-4.5972,-4.588,-4.5833,-4.5731,-4.5618,-4.5495,-4.54,-4.5297,-4.5103,-4.4967,-4.484,-4.4678,-4.4496,-4.4373,-4.4128,-4.3974,-4.3865,-4.3649,-4.3375,-4.3324,-4.3204,-4.3297,-4.3375,-4.4014,-4.4377,-4.4636,-4.4829,-4.4817,-4.4576,-4.4607,-4.4617,-4.4503,-4.4352,-4.4406,-4.4751,-4.4768,-4.48,-4.5089,-4.4906,-4.4686,-4.4333,-4.408,-4.3805,-4.3509,-4.3129,-4.2618,-4.2061,-4.1736,-4.1472,-4.1288,-4.1086,-4.0882,-4.0662,-4.0593,-4.0524,-4.0524,-4.0524,-4.0524,-4.0455,-4.0455,-4.0416,-4.0307,-3.9996,-3.9768,-3.9481,-3.9192,-3.8811,-3.8427,-3.8142,-3.7763,-3.7471,-3.7162,-3.6864,-3.6628,-3.6325,-3.6058,-3.5804,-3.5723,-3.571,-3.571,-3.5629,-3.548,-3.5318,-3.5236,-3.5099,-3.4944,-3.5165,-3.5772,-3.6339,-3.6867,-3.7345,-4.5084,-4.5338,-4.5381,-4.5513,-4.5635,-4.5757,-4.5848,-4.591,-4.5997,-4.6093,-4.6189,-4.6203,-4.6259,-4.6299,-4.6303,-4.6303,-4.6306,-4.6284,-4.6245,-4.6203,-4.6162,-4.6093,-4.5997,-4.591,-4.5835,-4.5786,-4.5746,-4.5687,-4.5568,-4.5458,-4.5338,-4.5233,-4.5033,-4.4846,-4.4738,-4.4578,-4.4401,-4.4255,-4.4055,-4.3897,-4.3753,-4.3532,-4.3268,-4.3009,-4.3274,-4.3549,-4.38,-4.4519,-4.5288,-4.5452,-4.5789,-4.5621,-4.5346,-4.5403,-4.5718,-4.558,-4.5269,-4.5216,-4.5181,-4.5161,-4.5089,-4.4978,-4.4686,-4.439,-4.4121,-4.3848,-4.3552,-4.319,-4.2759,-4.2318,-4.1898,-4.1604,-4.1288,-4.1086,-4.0882,-4.073,-4.0524,-4.0524,-4.0524,-4.0524,-4.0524,-4.0524,-4.047,-4.0401,-4.0362,-4.0182,-3.9869,-3.9553,-3.9337,-3.8958,-3.859,-3.8202,-3.7839,-3.7471,-3.7162,-3.6943,-3.6628,-3.6391,-3.6166,-3.5978,-3.571,-3.571,-3.571,-3.5629,-3.5548,-3.5399,-3.5154,-3.5086,-3.4865,-3.4599,-3.4986,-3.5851,-3.6302,-3.6684,-3.726,-4.5194,-4.5381,-4.5513,-4.5651,-4.5791,-4.5835,-4.5929,-4.5997,-4.6102,-4.6181,-4.6203,-4.6279,-4.6289,-4.6292,-4.6301,-4.6306,-4.6303,-4.6265,-4.6222,-4.6169,-4.6122,-4.6007,-4.5972,-4.5848,-4.5752,-4.5645,-4.5618,-4.5586,-4.5495,-4.538,-4.5235,-4.508,-4.4962,-4.4789,-4.4605,-4.444,-4.4296,-4.4116,-4.3929,-4.3734,-4.3566,-4.3358,-4.3123,-4.2832,-4.3286,-4.3736,-4.4272,-4.4887,-4.5475,-4.581,-4.5953,-4.5784,-4.5527,-4.558,-4.5615,-4.5581,-4.5476,-4.5353,-4.5247,-4.5194,-4.4961,-4.4669,-4.4502,-4.4236,-4.3848,-4.3611,-4.3251,-4.2759,-4.2334,-4.1947,-4.1654,-4.139,-4.1205,-4.0935,-4.0799,-4.073,-4.0524,-4.0524,-4.0524,-4.0524,-4.0524,-4.047,-4.0401,-4.0347,-4.0182,-3.9985,-3.967,-3.9337,-3.9017,-3.8649,-3.8292,-3.7915,-3.761,-3.724,-3.6864,-3.6628,-3.6405,-3.6232,-3.5992,-3.5884,-3.571,-3.571,-3.571,-3.5629,-3.5562,-3.5318,-3.5154,-3.4921,-3.4686,-3.4546,-3.5155,-3.594,-3.6332,-3.675,-3.7429,-4.532,-4.5494,-4.5601,-4.5715,-4.5814,-4.5917,-4.5997,-4.6066,-4.6154,-4.6229,-4.6254,-4.627,-4.6296,-4.6297,-4.6287,-4.6301,-4.6284,-4.6222,-4.6196,-4.6138,-4.6056,-4.5953,-4.5899,-4.5786,-4.5696,-4.5601,-4.5514,-4.5438,-4.54,-4.5298,-4.5129,-4.4943,-4.4821,-4.4659,-4.4515,-4.4354,-4.4207,-4.3974,-4.3781,-4.3615,-4.3479,-4.3251,-4.2969,-4.3171,-4.3607,-4.421,-4.4799,-4.5339,-4.5719,-4.5935,-4.5889,-4.5736,-4.5632,-4.5528,-4.5476,-4.5459,-4.5353,-4.53,-4.5194,-4.5086,-4.4814,-4.4558,-4.4333,-4.4006,-4.3611,-4.3251,-4.2883,-4.2397,-4.2093,-4.1752,-4.1456,-4.1272,-4.107,-4.0867,-4.073,-4.0593,-4.0524,-4.0524,-4.0524,-4.0455,-4.0455,-4.047,-4.0362,-4.0237,-4.0056,-3.9772,-3.9454,-3.9119,-3.8782,-3.8427,-3.7991,-3.7687,-3.738,-3.7084,-3.6707,-3.6484,-3.6246,-3.6072,-3.5898,-3.5804,-3.571,-3.571,-3.571,-3.571,-3.548,-3.5236,-3.5072,-3.4825,-3.466,-3.4515,-3.5312,-3.6005,-3.6371,-3.6841,-3.7534,-4.5438,-4.562,-4.57,-4.5771,-4.5848,-4.5956,-4.6066,-4.613,-4.6196,-4.6248,-4.6294,-4.6303,-4.629,-4.6289,-4.6307,-4.6293,-4.6289,-4.6209,-4.6146,-4.6075,-4.6016,-4.5917,-4.5814,-4.5731,-4.5654,-4.5531,-4.54,-4.5277,-4.5277,-4.5192,-4.5038,-4.487,-4.4667,-4.4524,-4.443,-4.4255,-4.4116,-4.391,-4.3697,-4.3529,-4.3339,-4.3086,-4.3048,-4.3429,-4.4023,-4.459,-4.51,-4.5681,-4.5833,-4.5854,-4.5718,-4.5615,-4.5581,-4.5423,-4.5371,-4.5353,-4.5247,-4.5194,-4.5032,-4.4869,-4.4648,-4.4406,-4.4006,-4.373,-4.3372,-4.2929,-4.2381,-4.1963,-4.1767,-4.1636,-4.1355,-4.1086,-4.095,-4.0746,-4.0608,-4.0524,-4.0524,-4.0524,-4.0524,-4.0455,-4.0455,-4.0401,-4.0292,-4.0152,-3.997,-3.9598,-3.928,-3.89,-3.8575,-3.8202,-3.7839,-3.7457,-3.7162,-3.6929,-3.6628,-3.6391,-3.6152,-3.5992,-3.5804,-3.571,-3.571,-3.571,-3.571,-3.5723,-3.5399,-3.5072,-3.4908,-3.4743,-3.4577,-3.4711,-3.5495,-3.6018,-3.6279,-3.692,-3.7704,-4.5512,-4.57,-4.5757,-4.5867,-4.5975,-4.6066,-4.6111,-4.6196,-4.6254,-4.6289,-4.6303,-4.6296,-4.6297,-4.6289,-4.6306,-4.626,-4.6209,-4.615,-4.6093,-4.6007,-4.5929,-4.5874,-4.5786,-4.5687,-4.5549,-4.5438,-4.5319,-4.5317,-4.5213,-4.5057,-4.4914,-4.4789,-4.4605,-4.4458,-4.4296,-4.4147,-4.3961,-4.3818,-4.36,-4.3339,-4.2995,-4.2747,-4.2961,-4.3458,-4.397,-4.4622,-4.5163,-4.5656,-4.5854,-4.5667,-4.5632,-4.5529,-4.5406,-4.5299,-4.5211,-4.5194,-4.5177,-4.5086,-4.4852,-4.4648,-4.4423,-4.4138,-4.3789,-4.3492,-4.3052,-4.2555,-4.2125,-4.1947,-4.1604,-4.1339,-4.1153,-4.095,-4.0746,-4.0677,-4.0539,-4.0524,-4.0524,-4.0524,-4.0524,-4.047,-4.0401,-4.0331,-4.0207,-4.0066,-3.9869,-3.9481,-3.9119,-3.8738,-3.8352,-3.7991,-3.7687,-3.7303,-3.7007,-3.6772,-3.6549,-3.6312,-3.6138,-3.5898,-3.5804,-3.571,-3.571,-3.571,-3.5723,-3.5562,-3.5318,-3.5072,-3.4921,-3.4743,-3.4481,-3.4789,-3.5443,-3.5822,-3.6109,-3.692,-3.7848,-4.5629,-4.5776,-4.5841,-4.5917,-4.6007,-4.6122,-4.6169,-4.6216,-4.6265,-4.6288,-4.6287,-4.63,-4.6289,-4.6293,-4.6255,-4.6209,-4.6183,-4.6091,-4.5998,-4.5953,-4.5867,-4.5791,-4.5684,-4.5566,-4.5438,-4.532,-4.5173,-4.508,-4.5033,-4.4962,-4.484,-4.4632,-4.4496,-4.4325,-4.4147,-4.4005,-4.3814,-4.36,-4.3322,-4.305,-4.2747,-4.2602,-4.2917,-4.3837,-4.4084,-4.463,-4.5387,-4.5711,-4.5821,-4.5615,-4.5494,-4.532,-4.5283,-4.514,-4.4998,-4.4797,-4.4797,-4.4742,-4.4631,-4.4406,-4.4138,-4.3848,-4.3552,-4.3251,-4.268,-4.2254,-4.1866,-4.1538,-4.139,-4.1205,-4.1003,-4.0867,-4.0746,-4.0608,-4.0524,-4.0524,-4.0524,-4.0524,-4.047,-4.0401,-4.0331,-4.0191,-4.0051,-3.9768,-3.9553,-3.925,-3.8885,-3.8441,-3.8127,-3.7749,-3.7457,-3.7148,-3.685,-3.6628,-3.647,-3.6232,-3.6058,-3.5817,-3.5723,-3.571,-3.571,-3.5723,-3.5642,-3.5562,-3.5236,-3.5072,-3.4921,-3.4743,-3.4397,-3.4829,-3.5338,-3.573,-3.6188,-3.709,-3.7848,-4.5771,-4.5854,-4.5886,-4.5975,-4.6037,-4.6135,-4.6216,-4.6234,-4.6275,-4.6303,-4.6305,-4.6289,-4.6293,-4.6279,-4.6234,-4.6183,-4.6181,-4.6037,-4.5944,-4.5873,-4.58,-4.5696,-4.5601,-4.5457,-4.532,-4.5235,-4.5038,-4.4895,-4.4815,-4.4764,-4.4685,-4.4468,-4.4354,-4.4188,-4.4036,-4.3846,-4.3615,-4.3339,-4.3069,-4.2824,-4.257,-4.2409,-4.3088,-4.3775,-4.4283,-4.4659,-4.5711,-4.5821,-4.5684,-4.5494,-4.5319,-4.5213,-4.5123,-4.4923,-4.4797,-4.4558,-4.4429,-4.4226,-4.4162,-4.4023,-4.3848,-4.3611,-4.3251,-4.2883,-4.2254,-4.1882,-4.1686,-4.139,-4.1189,-4.1055,-4.0851,-4.0799,-4.0662,-4.0524,-4.0524,-4.0524,-4.0455,-4.0455,-4.047,-4.0331,-4.0191,-3.998,-3.9768,-3.9394,-3.9177,-3.9017,-3.8649,-3.8217,-3.7839,-3.7534,-3.7226,-3.6929,-3.6707,-3.6484,-3.6325,-3.6152,-3.5898,-3.5804,-3.5723,-3.571,-3.571,-3.571,-3.5642,-3.548,-3.5236,-3.5086,-3.4921,-3.466,-3.4437,-3.4789,-3.5208,-3.5783,-3.6397,-3.7273,-3.7821,-4.5874,-4.5991,-4.5986,-4.6037,-4.6088,-4.6164,-4.6234,-4.6294,-4.6292,-4.6297,-4.6289,-4.629,-4.6308,-4.627,-4.6235,-4.6162,-4.6102,-4.6027,-4.591,-4.5808,-4.5727,-4.5651,-4.5513,-4.5361,-4.5216,-4.5103,-4.4919,-4.4719,-4.4578,-4.4524,-4.4496,-4.4468,-4.4218,-4.4067,-4.3878,-4.3649,-4.3375,-4.3069,-4.2882,-4.267,-4.2432,-4.2371,-4.2896,-4.38,-4.4091,-4.448,-4.5699,-4.5667,-4.5511,-4.5283,-4.5194,-4.5086,-4.4923,-4.4699,-4.4514,-4.4333,-4.4004,-4.3773,-4.3621,-4.3628,-4.3568,-4.3312,-4.2945,-4.2445,-4.1931,-4.1736,-4.1538,-4.1256,-4.1055,-4.0851,-4.073,-4.0662,-4.0524,-4.0524,-4.0524,-4.0524,-4.0455,-4.0455,-4.0401,-4.0277,-4.0066,-3.9768,-3.9466,-3.9177,-3.8885,-3.8723,-3.8277,-3.7839,-3.7534,-3.7226,-3.7007,-3.6772,-3.6549,-3.6325,-3.6166,-3.5992,-3.5804,-3.5723,-3.571,-3.571,-3.571,-3.5629,-3.5548,-3.5399,-3.5154,-3.5003,-3.4839,-3.4577,-3.4463,-3.4672,-3.509,-3.573,-3.6449,-3.7273,-3.7704,-4.5917,-4.5986,-4.6104,-4.6127,-4.6169,-4.6228,-4.6289,-4.6299,-4.6296,-4.6305,-4.6297,-4.6292,-4.6289,-4.6234,-4.6157,-4.6091,-4.6027,-4.5972,-4.5854,-4.5742,-4.5668,-4.5568,-4.5419,-4.5277,-4.5103,-4.4943,-4.477,-4.4613,-4.4496,-4.4325,-4.4218,-4.4128,-4.4017,-4.3878,-4.3682,-4.341,-4.3123,-4.292,-4.2768,-4.257,-4.2369,-4.2228,-4.2731,-4.381,-4.3875,-4.444,-4.544,-4.5511,-4.5389,-4.5177,-4.5049,-4.4869,-4.4686,-4.4474,-4.4246,-4.4006,-4.3698,-4.3403,-4.3113,-4.3117,-4.3027,-4.2775,-4.2397,-4.2012,-4.1736,-4.1522,-4.1256,-4.1055,-4.0867,-4.073,-4.0593,-4.0524,-4.0524,-4.0524,-4.0524,-4.0524,-4.047,-4.0385,-4.0246,-4.0137,-3.9854,-3.9496,-3.9192,-3.8885,-3.8649,-3.8427,-3.7976,-3.7519,-3.7226,-3.7007,-3.6772,-3.6628,-3.6405,-3.6232,-3.6072,-3.5898,-3.571,-3.571,-3.571,-3.571,-3.571,-3.5548,-3.5399,-3.5236,-3.5072,-3.4825,-3.466,-3.4481,-3.4463,-3.458,-3.5077,-3.5757,-3.6515,-3.7312,-3.7639,-4.5975,-4.6037,-4.6135,-4.6203,-4.6209,-4.6265,-4.6303,-4.6296,-4.629,-4.6289,-4.6292,-4.6279,-4.6259,-4.619,-4.6127,-4.6047,-4.5975,-4.5912,-4.5791,-4.5684,-4.5566,-4.5458,-4.5298,-4.5125,-4.4986,-4.4796,-4.4613,-4.4468,-4.4325,-4.4097,-4.3974,-4.391,-4.3828,-4.3682,-4.3513,-4.3214,-4.2956,-4.2786,-4.2631,-4.2409,-4.2222,-4.2041,-4.2555,-4.3565,-4.3668,-4.4324,-4.5165,-4.5441,-4.53,-4.5069,-4.4852,-4.4631,-4.4406,-4.4196,-4.3923,-4.3638,-4.335,-4.3059,-4.2805,-4.2573,-4.2541,-4.2286,-4.1996,-4.1736,-4.1522,-4.1307,-4.0987,-4.0851,-4.0715,-4.0662,-4.0524,-4.0524,-4.0524,-4.0524,-4.0524,-4.047,-4.0401,-4.0331,-4.0121,-3.9925,-3.964,-3.9352,-3.8885,-3.8575,-3.8202,-3.7976,-3.7749,-3.7303,-3.6993,-3.6786,-3.6642,-3.6484,-3.6246,-3.6152,-3.5978,-3.5804,-3.571,-3.571,-3.571,-3.571,-3.5629,-3.548,-3.5318,-3.5154,-3.499,-3.4743,-3.4564,-3.4397,-3.4397,-3.441,-3.5116,-3.594,-3.6632,-3.7377,-3.7691,-4.6047,-4.6102,-4.6183,-4.6203,-4.6209,-4.627,-4.6296,-4.6301,-4.6289,-4.6301,-4.6284,-4.625,-4.6228,-4.6169,-4.6113,-4.6026,-4.5898,-4.5827,-4.5712,-4.5584,-4.5476,-4.5361,-4.5194,-4.5033,-4.4846,-4.4693,-4.4505,-4.4277,-4.4067,-4.3974,-4.3814,-4.3615,-4.3548,-4.3479,-4.3444,-4.3105,-4.2824,-4.2591,-4.2409,-4.2205,-4.197,-4.1771,-4.2464,-4.3284,-4.3458,-4.4123,-4.5131,-4.5283,-4.514,-4.4906,-4.4669,-4.4463,-4.4236,-4.3906,-4.3628,-4.3492,-4.299,-4.268,-4.2587,-4.2318,-4.2061,-4.1882,-4.167,-4.1522,-4.1256,-4.1055,-4.0867,-4.073,-4.0662,-4.0524,-4.0524,-4.0524,-4.0524,-4.0524,-4.0524,-4.047,-4.0416,-4.0277,-4.0066,-3.9768,-3.9481,-3.9192,-3.8649,-3.8202,-3.7839,-3.7534,-3.7457,-3.7148,-3.685,-3.6549,-3.6484,-3.6325,-3.6166,-3.5978,-3.5884,-3.5804,-3.571,-3.571,-3.571,-3.5723,-3.5642,-3.548,-3.5236,-3.5072,-3.4825,-3.4577,-3.4481,-3.4397,-3.4397,-3.4502,-3.5391,-3.6201,-3.6867,-3.7403,-3.773,-4.6123,-4.6162,-4.6196,-4.6215,-4.627,-4.6288,-4.6293,-4.6289,-4.63,-4.6296,-4.6294,-4.6228,-4.6176,-4.613,-4.6056,-4.5953,-4.5822,-4.5757,-4.5651,-4.5457,-4.5361,-4.5194,-4.5038,-4.4895,-4.4719,-4.4551,-4.4364,-4.4188,-4.4005,-4.3846,-4.3682,-4.3497,-4.3268,-4.3123,-4.305,-4.288,-4.2688,-4.245,-4.2287,-4.2121,-4.178,-4.1692,-4.2188,-4.3353,-4.3328,-4.3973,-4.5198,-4.5123,-4.4978,-4.4742,-4.4446,-4.4179,-4.3964,-4.3568,-4.3372,-4.3068,-4.2634,-4.2493,-4.2173,-4.1783,-4.1588,-4.1472,-4.1406,-4.1256,-4.0987,-4.0919,-4.0783,-4.0662,-4.0524,-4.0524,-4.0524,-4.0524,-4.0524,-4.0524,-4.047,-4.0401,-4.0347,-4.0137,-3.9925,-3.9553,-3.925,-3.8738,-3.8292,-3.7901,-3.7534,-3.7226,-3.707,-3.6929,-3.6707,-3.6391,-3.6246,-3.6152,-3.5978,-3.5804,-3.571,-3.571,-3.571,-3.571,-3.5642,-3.5642,-3.5562,-3.5399,-3.5154,-3.4921,-3.4743,-3.4494,-3.4481,-3.4397,-3.4397,-3.4698,-3.5495,-3.6031,-3.6449,-3.7129,-3.7795,-4.6138,-4.6209,-4.6209,-4.6255,-4.6296,-4.63,-4.6301,-4.6305,-4.6296,-4.6289,-4.6259,-4.6209,-4.6146,-4.6075,-4.5997,-4.5905,-4.5771,-4.568,-4.5566,-4.5361,-4.5258,-4.5106,-4.4943,-4.4745,-4.4605,-4.4411,-4.4218,-4.4036,-4.3897,-4.3682,-4.3444,-4.3232,-4.3013,-4.2824,-4.2709,-4.2609,-4.2548,-4.2287,-4.2145,-4.1892,-4.1648,-4.1681,-4.2056,-4.2926,-4.3402,-4.3786,-4.473,-4.4978,-4.4759,-4.4519,-4.4236,-4.3964,-4.3611,-4.3312,-4.3068,-4.2696,-4.2397,-4.2173,-4.1718,-4.1503,-4.1323,-4.1122,-4.1122,-4.0987,-4.0783,-4.073,-4.0662,-4.0524,-4.0524,-4.0524,-4.0524,-4.0524,-4.0524,-4.0524,-4.047,-4.0401,-4.0207,-3.9996,-3.9696,-3.9322,-3.8943,-3.8441,-3.7915,-3.761,-3.7317,-3.7007,-3.6693,-3.6628,-3.6549,-3.6232,-3.6006,-3.5898,-3.5898,-3.5804,-3.571,-3.571,-3.571,-3.571,-3.5642,-3.5562,-3.5399,-3.5236,-3.5003,-3.4839,-3.466,-3.4494,-3.4397,-3.4397,-3.4397,-3.475,-3.543,-3.5835,-3.6057,-3.6867,-3.7821,-4.6157,-4.6189,-4.6265,-4.63,-4.63,-4.6295,-4.6289,-4.63,-4.6284,-4.6265,-4.6203,-4.6203,-4.6122,-4.5997,-4.5922,-4.5808,-4.57,-4.5618,-4.5457,-4.5298,-4.5151,-4.501,-4.484,-4.4632,-4.4468,-4.4325,-4.4128,-4.391,-4.3804,-4.3497,-4.3232,-4.3013,-4.2786,-4.2609,-4.245,-4.2287,-4.2246,-4.2061,-4.1909,-4.1692,-4.1488,-4.1313,-4.2007,-4.2745,-4.3183,-4.3821,-4.4502,-4.4797,-4.4575,-4.4293,-4.3948,-4.3671,-4.3372,-4.2929,-4.2743,-4.2445,-4.2141,-4.1752,-4.1488,-4.1323,-4.1122,-4.0935,-4.0867,-4.0799,-4.073,-4.0662,-4.0524,-4.0524,-4.0524,-4.0524,-4.0524,-4.0524,-4.0524,-4.047,-4.0401,-4.0277,-4.0066,-3.9783,-3.9466,-3.9162,-3.8797,-3.8277,-3.7749,-3.738,-3.7007,-3.6758,-3.6522,-3.6298,-3.6232,-3.6138,-3.5898,-3.5804,-3.5723,-3.571,-3.571,-3.5723,-3.5642,-3.5642,-3.548,-3.5399,-3.5236,-3.5072,-3.4921,-3.4673,-3.4577,-3.441,-3.4397,-3.4397,-3.4397,-3.4855,-3.5299,-3.577,-3.6044,-3.7063,-3.79,-4.6196,-4.6265,-4.6289,-4.6303,-4.6289,-4.6303,-4.6303,-4.6303,-4.6275,-4.6215,-4.6203,-4.6158,-4.6047,-4.5941,-4.5854,-4.5752,-4.5616,-4.5514,-4.5361,-4.5194,-4.5014,-4.4865,-4.4712,-4.4524,-4.4354,-4.4158,-4.3974,-4.38,-4.3566,-4.3304,-4.3087,-4.2882,-4.2591,-4.2409,-4.2205,-4.1995,-4.1892,-4.1762,-4.1604,-4.1488,-4.1307,-4.114,-4.195,-4.2632,-4.2944,-4.3665,-4.446,-4.4597,-4.439,-4.4006,-4.3789,-4.3509,-4.2883,-4.2696,-4.2508,-4.2077,-4.1752,-4.1406,-4.1256,-4.107,-4.0935,-4.0799,-4.0662,-4.0593,-4.0593,-4.0524,-4.0524,-4.0524,-4.0524,-4.0524,-4.0524,-4.0524,-4.047,-4.0401,-4.0331,-4.0137,-3.9925,-3.964,-3.9322,-3.887,-3.8501,-3.8023,-3.7429,-3.7084,-3.6786,-3.6522,-3.635,-3.6125,-3.5978,-3.5898,-3.5898,-3.5723,-3.571,-3.571,-3.5723,-3.5642,-3.5562,-3.5494,-3.5399,-3.5236,-3.5086,-3.4839,-3.4756,-3.4577,-3.4494,-3.441,-3.4397,-3.4397,-3.4397,-3.458,-3.4999,-3.5534,-3.6162,-3.7077,-3.7821,-4.6228,-4.6294,-4.6288,-4.6301,-4.6303,-4.6296,-4.6294,-4.6265,-4.6215,-4.619,-4.6154,-4.6095,-4.5975,-4.588,-4.5802,-4.5669,-4.5513,-4.5419,-4.5256,-4.5038,-4.4895,-4.4738,-4.4578,-4.4383,-4.4188,-4.4005,-4.3814,-4.3667,-4.341,-4.3105,-4.2882,-4.2631,-4.2369,-4.2205,-4.1995,-4.1736,-4.156,-4.1471,-4.1353,-4.1261,-4.114,-4.1052,-4.1722,-4.2585,-4.2775,-4.3471,-4.4466,-4.4429,-4.4121,-4.373,-4.3568,-4.319,-4.2634,-4.2461,-4.2125,-4.1752,-4.1472,-4.1256,-4.1055,-4.0935,-4.0799,-4.0662,-4.0608,-4.0524,-4.0524,-4.0524,-4.0524,-4.0524,-4.0524,-4.0524,-4.0524,-4.0455,-4.047,-4.0401,-4.0261,-4.0066,-3.9768,-3.9481,-3.9031,-3.8575,-3.8113,-3.763,-3.7183,-3.6929,-3.6642,-3.6377,-3.6204,-3.6058,-3.5898,-3.5804,-3.5804,-3.571,-3.571,-3.571,-3.5642,-3.5562,-3.548,-3.5331,-3.5168,-3.5003,-3.4839,-3.4673,-3.4577,-3.4494,-3.4397,-3.4397,-3.4397,-3.4397,-3.4424,-3.4593,-3.4842,-3.543,-3.6044,-3.6789,-3.7416,-4.6259,-4.6303,-4.6295,-4.6289,-4.63,-4.6303,-4.6265,-4.6203,-4.6203,-4.6174,-4.6084,-4.6037,-4.591,-4.5814,-4.5728,-4.5571,-4.5438,-4.5314,-4.5141,-4.4895,-4.4745,-4.4605,-4.4393,-4.4158,-4.4036,-4.386,-4.3716,-4.3479,-4.3321,-4.2995,-4.2631,-4.2287,-4.2187,-4.2019,-4.1736,-4.156,-4.1335,-4.1152,-4.1123,-4.1047,-4.1,-4.103,-4.1366,-4.2518,-4.279,-4.3071,-4.4041,-4.4196,-4.3923,-4.3552,-4.3251,-4.2867,-4.2508,-4.2061,-4.167,-4.1472,-4.1256,-4.1122,-4.0935,-4.0799,-4.0662,-4.0593,-4.0524,-4.0524,-4.0524,-4.0524,-4.0524,-4.0524,-4.0524,-4.0524,-4.0524,-4.0455,-4.0455,-4.0331,-4.0207,-3.9925,-3.964,-3.9265,-3.8664,-3.8202,-3.7749,-3.7337,-3.6972,-3.6702,-3.6432,-3.6232,-3.6045,-3.5898,-3.5804,-3.571,-3.5629,-3.5629,-3.5629,-3.5562,-3.5399,-3.5331,-3.5236,-3.5086,-3.4934,-3.4839,-3.4673,-3.4577,-3.4397,-3.4397,-3.4397,-3.4397,-3.4397,-3.4397,-3.441,-3.4476,-3.4816,-3.5378,-3.5992,-3.6606,-3.7207,-4.6279,-4.63,-4.6289,-4.6297,-4.6284,-4.6236,-4.6215,-4.6203,-4.6149,-4.6085,-4.6017,-4.5933,-4.5835,-4.5727,-4.5638,-4.5507,-4.5339,-4.5194,-4.5052,-4.4852,-4.4659,-4.4449,-4.4288,-4.4048,-4.391,-4.3716,-4.3513,-4.3304,-4.3032,-4.2709,-4.2486,-4.2246,-4.2048,-4.1736,-4.156,-4.1398,-4.1123,-4.0935,-4.084,-4.0793,-4.0745,-4.0951,-4.1317,-4.2194,-4.2562,-4.3061,-4.3749,-4.3964,-4.3671,-4.3432,-4.2945,-4.2508,-4.2093,-4.1686,-4.1472,-4.1256,-4.107,-4.0935,-4.0799,-4.0677,-4.0593,-4.0524,-4.0524,-4.0524,-4.0524,-4.0524,-4.0524,-4.0524,-4.0524,-4.0524,-4.0455,-4.0455,-4.0385,-4.0261,-4.0081,-3.9783,-3.9496,-3.8885,-3.8277,-3.7825,-3.7457,-3.7106,-3.6802,-3.6531,-3.6246,-3.6019,-3.5898,-3.5723,-3.5642,-3.5548,-3.548,-3.548,-3.548,-3.5399,-3.5249,-3.5168,-3.5072,-3.4921,-3.4852,-3.4673,-3.4577,-3.4481,-3.4397,-3.4397,-3.4397,-3.4397,-3.4397,-3.4397,-3.4424,-3.445,-3.462,-3.5116,-3.5717,-3.6345,-3.6998,-4.6296,-4.6303,-4.6301,-4.6296,-4.6275,-4.6215,-4.619,-4.6146,-4.6095,-4.6005,-4.591,-4.5861,-4.5786,-4.5651,-4.5545,-4.5438,-4.5233,-4.5066,-4.4903,-4.4731,-4.4551,-4.4335,-4.4158,-4.3955,-4.3781,-4.36,-4.3304,-4.3032,-4.2711,-4.2472,-4.2299,-4.2008,-4.1674,-4.1533,-4.1398,-4.1123,-4.0935,-4.0793,-4.068,-4.06,-4.0551,-4.0656,-4.1188,-4.1968,-4.2486,-4.2997,-4.3447,-4.3687,-4.3432,-4.3068,-4.2508,-4.227,-4.1898,-4.1538,-4.1339,-4.1138,-4.1003,-4.0799,-4.0677,-4.0608,-4.0524,-4.0524,-4.0524,-4.0524,-4.0524,-4.0524,-4.0524,-4.0524,-4.0524,-4.0524,-4.047,-4.047,-4.0285,-4.0146,-3.9753,-3.9409,-3.9031,-3.8516,-3.7976,-3.7596,-3.7226,-3.69,-3.6638,-3.6336,-3.6099,-3.5925,-3.571,-3.5629,-3.5548,-3.5399,-3.5318,-3.5236,-3.5236,-3.5154,-3.5003,-3.4921,-3.4825,-3.4756,-3.4673,-3.4577,-3.4481,-3.4397,-3.4397,-3.4397,-3.4397,-3.4397,-3.4397,-3.4397,-3.4397,-3.4424,-3.4567,-3.4789,-3.5443,-3.6123,-3.6789,-4.6295,-4.6287,-4.63,-4.6294,-4.6284,-4.6216,-4.6154,-4.6084,-4.6007,-4.5898,-4.58,-4.5786,-4.57,-4.5566,-4.5438,-4.5298,-4.5141,-4.4972,-4.478,-4.4597,-4.4411,-4.4207,-4.4023,-4.3832,-4.3582,-4.3375,-4.3105,-4.275,-4.2418,-4.2251,-4.203,-4.1683,-4.1513,-4.1398,-4.1123,-4.0935,-4.0793,-4.0631,-4.0485,-4.0387,-4.0355,-4.0306,-4.1138,-4.1726,-4.2206,-4.2618,-4.3248,-4.3449,-4.3129,-4.2759,-4.2254,-4.1947,-4.1702,-4.1406,-4.1205,-4.1018,-4.0867,-4.0662,-4.0593,-4.0539,-4.0524,-4.0524,-4.0524,-4.0524,-4.0524,-4.0524,-4.0524,-4.047,-4.047,-4.047,-4.047,-4.0385,-4.0216,-3.992,-3.9538,-3.9046,-3.859,-3.8127,-3.7763,-3.7303,-3.6993,-3.6758,-3.6522,-3.6232,-3.5992,-3.5804,-3.5629,-3.5548,-3.5399,-3.5236,-3.5072,-3.499,-3.4908,-3.4839,-3.4756,-3.4743,-3.466,-3.4577,-3.4494,-3.441,-3.4397,-3.4397,-3.4397,-3.4397,-3.4397,-3.4397,-3.4397,-3.4397,-3.4397,-3.4397,-3.4476,-3.4698,-3.5365,-3.6031,-3.6632,-4.6289,-4.6308,-4.6299,-4.6259,-4.6229,-4.6203,-4.6119,-4.6017,-4.5953,-4.5854,-4.5727,-4.5651,-4.5549,-4.5419,-4.536,-4.5213,-4.5005,-4.4832,-4.4672,-4.4533,-4.4266,-4.4055,-4.3865,-4.3582,-4.3321,-4.3105,-4.2882,-4.2652,-4.2315,-4.2086,-4.1866,-4.1595,-4.1267,-4.114,-4.0982,-4.0776,-4.0648,-4.0436,-4.0355,-4.0255,-4.0104,-4.0307,-4.0949,-4.1429,-4.1777,-4.2484,-4.3079,-4.3157,-4.2945,-4.2571,-4.2125,-4.1752,-4.1488,-4.1272,-4.1086,-4.0882,-4.073,-4.0593,-4.0524,-4.0524,-4.0524,-4.0524,-4.0524,-4.0524,-4.0524,-4.0524,-4.047,-4.047,-4.047,-4.0416,-4.0347,-4.0277,-4.0106,-3.964,-3.9237,-3.8752,-3.8277,-3.7915,-3.7457,-3.707,-3.6772,-3.6494,-3.6294,-3.6004,-3.5817,-3.5642,-3.5562,-3.5399,-3.5318,-3.5072,-3.4921,-3.4756,-3.466,-3.4577,-3.4494,-3.4494,-3.4481,-3.4397,-3.4397,-3.4397,-3.4397,-3.4397,-3.4397,-3.4397,-3.4397,-3.4397,-3.4397,-3.4397,-3.4397,-3.4397,-3.4397,-3.4646,-3.5299,-3.5913,-3.6502]}]]